[[{"header":{"parameterUnit":"m.s-1","parameterCategory":1,"la1":31.0,"la2":29.5877,"lo1":-88.7671,"lo2":-86.6584,"dx":0.0162,"dy":0.0185,"nx":115,"ny":88,"refTime":"2023-02-11T18:00:00:Z","depth":0,"parameterNumber":2,"parameterNumberName":"U-component_of_WINDS"},"data":[0.0,0.0,0.0,0.0,0.0,0.0,0.0,0.0,0.0,0.0,0.0,0.0,0.0,0.0,0.0,0.0,0.0,0.0,0.0,0.0,0.0,0.0,0.0,0.0,0.0,0.0,0.0,0.0,0.0,0.0,0.0,0.0,0.0,0.0,0.0,0.0,0.0,0.0,0.0,0.0,0.0,0.0,0.0,0.0,0.0,0.0,0.0,0.0,0.0,0.0,0.0,0.0,0.0,0.0,0.0,0.0,0.0,0.0,0.0,0.0,0.0,0.0,0.0,0.0,0.0,0.0,0.0,0.0,0.0,0.0,0.0,0.0,0.0,0.0,0.0,0.0,0.0,0.0,0.0,0.0,0.0,0.0,0.0,0.0,0.0,0.0,0.0,0.0,0.0,0.0,0.0,0.0,0.0,0.0,0.0,0.0,0.0,0.0,0.0,0.0,0.0,0.0,0.0,0.0,0.0,0.0,0.0,0.0,0.0,0.0,0.0,0.0,0.0,0.0,0.0,0.0,0.0,0.0,0.0,0.0,0.0,0.0,0.0,0.0,0.0,0.0,0.0,0.0,0.0,0.0,0.0,0.0,0.0,0.0,0.0,0.0,0.0,0.0,0.0,0.0,0.0,0.0,0.0,0.0,0.0,0.0,0.0,0.0,0.0,0.0,0.0,0.0,0.0,0.0,0.0,0.0,0.0,0.0,0.0,0.0,0.0,0.0,0.0,0.0,0.0,0.0,0.0,0.0,0.0,0.0,0.0,0.0,0.0,0.0,0.0,0.0,0.0,0.0,0.0,0.0,0.0,0.0,0.0,0.0,0.0,0.0,0.0,0.0,0.0,0.0,0.0,0.0,0.0,0.0,0.0,0.0,0.0,0.0,0.0,0.0,0.0,0.0,0.0,0.0,0.0,0.0,0.0,0.0,0.0,0.0,0.0,0.0,0.0,0.0,0.0,0.0,0.0,0.0,0.0,0.0,0.0,0.0,0.0,0.0,0.0,0.0,0.0,0.0,0.0,0.0,0.0,0.0,0.0,0.0,0.0,0.0,0.0,0.0,0.0,0.0,0.0,0.0,0.0,0.0,0.0,0.0,0.0,0.0,0.0,0.0,0.0,0.0,0.0,0.0,0.0,0.0,0.0,0.0,0.0,0.0,0.0,0.0,0.0,0.0,0.0,0.0,0.0,0.0,0.0,0.0,0.0,0.0,0.0,0.0,0.0,0.0,0.0,0.0,0.0,0.0,0.0,0.0,0.0,0.0,0.0,0.0,0.0,0.0,0.0,0.0,0.0,0.0,0.0,0.0,0.0,0.0,0.0,0.0,0.0,0.0,0.0,0.0,0.0,0.0,0.0,0.0,0.0,0.0,0.0,0.0,0.0,0.0,0.0,0.0,0.0,0.0,0.0,0.0,0.0,0.0,0.0,0.0,0.0,0.0,0.0,0.0,0.0,0.0,0.0,0.0,0.0,0.0,0.0,0.0,0.0,0.0,0.0,0.0,0.0,0.0,0.0,0.0,0.0,0.0,0.0,0.0,0.0,0.0,0.0,0.0,0.0,0.0,0.0,0.0,0.0,0.0,0.0,0.0,0.0,0.0,0.0,0.0,0.0,0.0,0.0,0.0,0.0,0.0,0.0,0.0,0.0,0.0,0.0,0.0,0.0,0.0,0.0,0.0,0.0,0.0,0.0,0.0,0.0,0.0,0.0,0.0,0.0,0.0,0.0,0.0,0.0,0.0,0.0,0.0,0.0,0.0,0.0,0.0,0.0,0.0,0.0,0.0,0.0,0.0,0.0,0.0,0.0,0.0,0.0,0.0,0.0,0.0,0.0,0.0,0.0,0.0,0.0,0.0,0.0,0.0,0.0,0.0,0.0,0.0,0.0,0.0,0.0,0.0,0.0,0.0,0.0,0.0,0.0,0.0,0.0,0.0,0.0,0.0,0.0,0.0,0.0,0.0,0.0,0.0,0.0,0.0,0.0,0.0,0.0,0.0,0.0,0.0,0.0,0.0,0.0,0.0,0.0,0.0,0.0,0.0,0.0,0.0,0.0,0.0,0.0,0.0,0.0,0.0,0.0,0.0,0.0,0.0,0.0,0.0,0.0,0.0,0.0,0.0,0.0,0.0,0.0,0.0,0.0,0.0,0.0,0.0,0.0,0.0,0.0,0.0,0.0,0.0,0.0,0.0,0.0,0.0,0.0,0.0,0.0,0.0,0.0,0.0,0.0,0.0,0.0,0.0,0.0,0.0,0.0,0.0,0.0,0.0,0.0,0.0,0.0,0.0,0.0,0.0,0.0,0.0,0.0,0.0,0.0,0.0,0.0,0.0,0.0,0.0,0.0,0.0,0.0,0.0,0.0,0.0,0.0,0.0,0.0,0.0,0.0,0.0,0.0,0.0,0.0,0.0,0.0,0.0,0.0,0.0,0.0,0.0,0.0,0.0,0.0,0.0,0.0,0.0,0.0,0.0,0.0,0.0,0.0,0.0,0.0,0.0,0.0,0.0,0.0,0.0,0.0,0.0,0.0,0.0,0.0,0.0,0.0,0.0,0.0,0.0,0.0,0.0,0.0,0.0,0.0,0.0,0.0,0.0,0.0,0.0,0.0,0.0,0.0,0.0,0.0,0.0,0.0,0.0,0.0,0.0,0.0,0.0,0.0,0.0,0.0,0.0,0.0,0.0,0.0,0.0,0.0,0.0,0.0,0.0,0.0,0.0,0.0,0.0,0.0,0.0,0.0,0.0,0.0,0.0,0.0,0.0,0.0,0.0,0.0,0.0,0.0,0.0,0.0,0.0,0.0,0.0,0.0,0.0,0.0,0.0,0.0,0.0,0.0,0.0,0.0,0.0,0.0,0.0,0.0,0.0,0.0,0.0,0.0,0.0,0.0,0.0,0.0,0.0,0.0,0.0,0.0,0.0,0.0,0.0,0.0,0.0,0.0,0.0,0.0,0.0,0.0,0.0,0.0,0.0,0.0,0.0,0.0,0.0,0.0,0.0,0.0,0.0,0.0,0.0,0.0,0.0,0.0,0.0,0.0,0.0,0.0,0.0,0.0,0.0,0.0,0.0,0.0,0.0,0.0,0.0,0.0,0.0,0.0,0.0,0.0,0.0,0.0,0.0,0.0,0.0,0.0,0.0,0.0,0.0,0.0,0.0,0.0,0.0,0.0,0.0,0.0,0.0,0.0,0.0,0.0,0.0,0.0,0.0,0.0,0.0,0.0,0.0,0.0,0.0,0.0,0.0,0.0,0.0,0.0,0.0,0.0,0.0,0.0,0.0,0.0,0.0,0.0,0.0,0.0,0.0,0.0,0.0,0.0,0.0,0.0,0.0,0.0,0.0,0.0,0.0,0.0,0.0,0.0,0.0,0.0,0.0,0.0,0.0,0.0,0.0,0.0,0.0,0.0,0.0,0.0,0.0,0.0,0.0,0.0,0.0,0.0,0.0,0.0,0.0,0.0,0.0,0.0,0.0,0.0,0.0,0.0,0.0,0.0,0.0,0.0,0.0,0.0,0.0,0.0,0.0,0.0,0.0,0.0,0.0,0.0,0.0,0.0,0.0,0.0,0.0,0.0,0.0,0.0,0.0,0.0,0.0,0.0,0.0,0.0,0.0,0.0,0.0,0.0,0.0,0.0,0.0,0.0,0.0,0.0,0.0,0.0,0.0,0.0,0.0,0.0,0.0,0.0,0.0,0.0,0.0,0.0,0.0,0.0,0.0,0.0,0.0,0.0,0.0,0.0,0.0,0.0,0.0,0.0,0.0,0.0,0.0,0.0,0.0,0.0,0.0,0.0,0.0,0.0,0.0,0.0,0.0,0.0,0.0,0.0,0.0,0.0,0.0,0.0,0.0,0.0,0.0,0.0,0.0,0.0,0.0,0.0,0.0,0.0,0.0,0.0,0.0,0.0,0.0,0.0,0.0,0.0,0.0,0.0,0.0,0.0,0.0,0.0,0.0,0.0,0.0,0.0,0.0,0.0,0.0,0.0,0.0,0.0,0.0,0.0,0.0,0.0,0.0,0.0,0.0,0.0,0.0,0.0,0.0,0.0,0.0,0.0,0.0,0.0,0.0,0.0,0.0,0.0,0.0,0.0,0.0,0.0,0.0,0.0,0.0,0.0,0.0,0.0,0.0,0.0,0.0,0.0,0.0,0.0,0.0,0.0,0.0,0.0,0.0,0.0,0.0,0.0,0.0,0.0,0.0,0.0,0.0,0.0,0.0,0.0,0.0,0.0,0.0,0.0,0.0,0.0,0.0,0.0,0.0,-6.5245,0.0,0.0,0.0,0.0,0.0,0.0,0.0,0.0,0.0,0.0,0.0,0.0,0.0,0.0,0.0,0.0,0.0,0.0,0.0,0.0,0.0,0.0,0.0,0.0,0.0,0.0,0.0,0.0,0.0,0.0,0.0,0.0,0.0,0.0,0.0,0.0,0.0,0.0,0.0,0.0,0.0,0.0,0.0,0.0,0.0,0.0,0.0,0.0,0.0,0.0,0.0,0.0,0.0,0.0,0.0,0.0,0.0,0.0,0.0,0.0,0.0,0.0,0.0,0.0,0.0,0.0,0.0,0.0,0.0,0.0,0.0,0.0,0.0,0.0,0.0,0.0,0.0,0.0,0.0,0.0,0.0,0.0,0.0,0.0,0.0,0.0,0.0,0.0,0.0,0.0,0.0,0.0,0.0,0.0,0.0,0.0,0.0,0.0,0.0,0.0,0.0,0.0,0.0,0.0,0.0,0.0,0.0,0.0,0.0,0.0,-6.6269,-6.6177,-6.5607,-6.528,-6.5212,0.0,0.0,0.0,0.0,0.0,0.0,0.0,0.0,0.0,0.0,0.0,0.0,0.0,0.0,0.0,0.0,0.0,0.0,0.0,0.0,0.0,0.0,0.0,0.0,0.0,0.0,0.0,0.0,0.0,0.0,0.0,0.0,0.0,0.0,0.0,0.0,0.0,0.0,0.0,0.0,0.0,0.0,0.0,0.0,0.0,0.0,0.0,0.0,0.0,0.0,0.0,0.0,0.0,0.0,0.0,0.0,0.0,0.0,0.0,0.0,0.0,0.0,0.0,0.0,0.0,0.0,0.0,0.0,0.0,0.0,0.0,0.0,0.0,0.0,0.0,0.0,0.0,0.0,0.0,0.0,0.0,0.0,0.0,0.0,0.0,0.0,0.0,0.0,0.0,0.0,0.0,0.0,0.0,0.0,0.0,0.0,0.0,0.0,0.0,0.0,0.0,0.0,0.0,0.0,0.0,0.0,0.0,0.0,0.0,0.0,0.0,0.0,-6.5704,-6.5412,-6.5078,0.0,0.0,0.0,0.0,0.0,0.0,0.0,0.0,0.0,0.0,0.0,0.0,0.0,0.0,0.0,0.0,0.0,0.0,0.0,0.0,0.0,0.0,0.0,0.0,0.0,0.0,0.0,0.0,0.0,0.0,0.0,0.0,0.0,0.0,0.0,0.0,0.0,0.0,0.0,0.0,0.0,0.0,0.0,0.0,0.0,0.0,0.0,0.0,0.0,0.0,0.0,0.0,0.0,0.0,0.0,0.0,0.0,0.0,0.0,0.0,0.0,0.0,0.0,0.0,0.0,0.0,0.0,0.0,0.0,0.0,0.0,0.0,0.0,0.0,0.0,0.0,0.0,0.0,0.0,0.0,0.0,0.0,0.0,0.0,0.0,0.0,0.0,0.0,0.0,0.0,0.0,0.0,0.0,0.0,0.0,0.0,0.0,0.0,0.0,0.0,0.0,0.0,0.0,0.0,0.0,0.0,0.0,0.0,0.0,0.0,-6.5278,-6.5149,-6.4911,0.0,-6.474,0.0,0.0,0.0,0.0,0.0,0.0,0.0,0.0,0.0,0.0,0.0,0.0,0.0,0.0,0.0,0.0,0.0,0.0,0.0,0.0,0.0,0.0,0.0,0.0,0.0,0.0,0.0,0.0,0.0,0.0,0.0,0.0,0.0,0.0,0.0,0.0,0.0,0.0,0.0,0.0,0.0,0.0,0.0,0.0,0.0,0.0,0.0,0.0,0.0,0.0,0.0,0.0,0.0,0.0,0.0,0.0,0.0,0.0,0.0,0.0,0.0,0.0,0.0,0.0,0.0,0.0,0.0,0.0,0.0,0.0,0.0,0.0,0.0,0.0,0.0,0.0,0.0,0.0,0.0,0.0,0.0,0.0,0.0,0.0,0.0,0.0,0.0,0.0,0.0,0.0,0.0,0.0,0.0,0.0,0.0,0.0,0.0,0.0,0.0,0.0,0.0,0.0,0.0,0.0,0.0,0.0,0.0,0.0,0.0,0.0,-6.5412,-6.5112,-6.4843,-6.4706,0.0,0.0,0.0,0.0,0.0,0.0,0.0,0.0,0.0,0.0,0.0,0.0,0.0,0.0,0.0,0.0,0.0,0.0,0.0,0.0,0.0,0.0,0.0,0.0,0.0,0.0,0.0,0.0,0.0,0.0,0.0,0.0,0.0,0.0,0.0,0.0,0.0,0.0,0.0,0.0,0.0,0.0,0.0,0.0,0.0,0.0,0.0,0.0,0.0,0.0,0.0,0.0,0.0,0.0,0.0,0.0,0.0,0.0,0.0,0.0,0.0,0.0,0.0,0.0,0.0,0.0,0.0,0.0,0.0,0.0,0.0,0.0,0.0,0.0,0.0,0.0,0.0,0.0,0.0,0.0,0.0,0.0,0.0,0.0,0.0,0.0,0.0,0.0,0.0,0.0,0.0,0.0,0.0,0.0,0.0,0.0,0.0,0.0,0.0,0.0,0.0,0.0,0.0,0.0,0.0,0.0,0.0,0.0,0.0,0.0,-6.5611,-6.5346,-6.5078,-6.4843,-6.4706,-6.4706,0.0,0.0,0.0,0.0,0.0,0.0,0.0,0.0,0.0,0.0,0.0,0.0,0.0,0.0,0.0,0.0,0.0,0.0,0.0,0.0,0.0,0.0,0.0,0.0,0.0,0.0,0.0,0.0,0.0,0.0,0.0,0.0,0.0,0.0,0.0,0.0,0.0,0.0,0.0,0.0,0.0,0.0,0.0,0.0,0.0,0.0,0.0,0.0,0.0,0.0,0.0,0.0,0.0,0.0,0.0,0.0,0.0,0.0,0.0,0.0,0.0,0.0,0.0,0.0,0.0,0.0,0.0,0.0,0.0,0.0,0.0,0.0,0.0,0.0,0.0,0.0,0.0,0.0,0.0,0.0,0.0,0.0,0.0,0.0,0.0,0.0,0.0,0.0,0.0,0.0,0.0,0.0,0.0,0.0,0.0,0.0,0.0,0.0,0.0,0.0,0.0,0.0,0.0,0.0,0.0,0.0,0.0,0.0,-6.5772,-6.5114,-6.474,-6.474,-6.4706,-6.4706,0.0,0.0,0.0,0.0,0.0,0.0,0.0,0.0,0.0,0.0,0.0,0.0,0.0,0.0,0.0,0.0,0.0,0.0,0.0,0.0,0.0,0.0,0.0,0.0,0.0,0.0,0.0,0.0,0.0,0.0,0.0,0.0,0.0,0.0,0.0,0.0,0.0,0.0,0.0,0.0,0.0,0.0,0.0,0.0,0.0,0.0,0.0,0.0,0.0,0.0,0.0,0.0,0.0,0.0,0.0,0.0,0.0,0.0,0.0,0.0,0.0,0.0,0.0,0.0,0.0,0.0,0.0,0.0,0.0,0.0,0.0,0.0,0.0,0.0,0.0,0.0,0.0,0.0,0.0,0.0,0.0,0.0,0.0,0.0,0.0,0.0,0.0,0.0,0.0,0.0,0.0,0.0,0.0,0.0,0.0,0.0,0.0,0.0,0.0,0.0,0.0,0.0,0.0,0.0,0.0,0.0,0.0,0.0,0.0,-6.508,-6.4844,-6.4706,-6.4706,-6.4706,-6.4706,0.0,0.0,0.0,0.0,0.0,0.0,0.0,0.0,0.0,0.0,0.0,0.0,0.0,0.0,0.0,0.0,0.0,0.0,0.0,0.0,0.0,0.0,0.0,0.0,0.0,0.0,0.0,0.0,0.0,0.0,0.0,0.0,0.0,0.0,0.0,0.0,0.0,0.0,0.0,0.0,0.0,0.0,0.0,0.0,0.0,0.0,0.0,0.0,0.0,0.0,0.0,0.0,0.0,0.0,0.0,0.0,0.0,0.0,0.0,0.0,0.0,0.0,0.0,0.0,0.0,0.0,0.0,0.0,0.0,0.0,0.0,0.0,0.0,0.0,0.0,0.0,0.0,0.0,0.0,0.0,0.0,0.0,0.0,0.0,0.0,0.0,0.0,0.0,0.0,0.0,0.0,0.0,0.0,0.0,0.0,0.0,0.0,0.0,0.0,0.0,0.0,0.0,0.0,0.0,0.0,0.0,0.0,0.0,0.0,-6.4706,0.0,-6.4706,-6.4706,-6.4706,-6.4706,0.0,0.0,0.0,0.0,0.0,0.0,0.0,0.0,0.0,0.0,0.0,0.0,0.0,0.0,0.0,0.0,0.0,0.0,0.0,0.0,0.0,0.0,0.0,0.0,0.0,0.0,0.0,0.0,0.0,0.0,0.0,0.0,0.0,0.0,0.0,0.0,0.0,0.0,0.0,0.0,0.0,0.0,0.0,0.0,0.0,0.0,0.0,0.0,0.0,0.0,0.0,0.0,0.0,0.0,0.0,0.0,0.0,0.0,0.0,0.0,0.0,0.0,0.0,0.0,0.0,0.0,0.0,0.0,0.0,0.0,0.0,0.0,0.0,0.0,0.0,0.0,0.0,0.0,0.0,0.0,0.0,0.0,0.0,0.0,0.0,0.0,0.0,0.0,0.0,0.0,0.0,0.0,0.0,0.0,0.0,0.0,0.0,0.0,0.0,0.0,0.0,0.0,0.0,0.0,0.0,0.0,0.0,0.0,-6.4706,-6.4706,-6.4706,-6.4706,-6.4706,-6.4706,-6.4706,0.0,0.0,0.0,0.0,0.0,0.0,0.0,0.0,0.0,0.0,0.0,0.0,0.0,0.0,0.0,0.0,0.0,0.0,0.0,0.0,0.0,0.0,0.0,0.0,0.0,0.0,0.0,0.0,0.0,0.0,0.0,0.0,0.0,0.0,0.0,0.0,0.0,0.0,0.0,0.0,0.0,0.0,0.0,0.0,0.0,0.0,0.0,0.0,0.0,0.0,0.0,0.0,0.0,0.0,0.0,0.0,0.0,0.0,0.0,0.0,0.0,0.0,0.0,0.0,0.0,0.0,0.0,0.0,0.0,0.0,0.0,0.0,0.0,0.0,0.0,0.0,0.0,0.0,0.0,0.0,0.0,0.0,0.0,0.0,0.0,0.0,0.0,0.0,0.0,0.0,0.0,0.0,0.0,0.0,0.0,0.0,0.0,0.0,0.0,0.0,0.0,0.0,0.0,0.0,0.0,0.0,0.0,0.0,0.0,-6.4706,-6.4706,-6.4706,-6.4706,-6.4706,-6.4706,0.0,0.0,0.0,0.0,0.0,0.0,0.0,0.0,0.0,0.0,0.0,0.0,0.0,0.0,0.0,0.0,0.0,0.0,0.0,0.0,0.0,0.0,0.0,0.0,0.0,0.0,0.0,0.0,0.0,0.0,0.0,0.0,0.0,0.0,0.0,0.0,0.0,0.0,0.0,0.0,0.0,0.0,0.0,0.0,0.0,0.0,0.0,0.0,0.0,0.0,0.0,0.0,0.0,0.0,0.0,0.0,0.0,0.0,0.0,0.0,0.0,0.0,0.0,0.0,0.0,0.0,0.0,0.0,0.0,0.0,0.0,0.0,0.0,0.0,0.0,0.0,0.0,0.0,0.0,0.0,0.0,0.0,0.0,0.0,0.0,0.0,0.0,0.0,0.0,0.0,0.0,0.0,0.0,0.0,0.0,0.0,0.0,0.0,0.0,0.0,0.0,0.0,0.0,0.0,0.0,0.0,0.0,0.0,0.0,-6.4602,-6.4602,-6.4602,-6.4602,-6.4602,-6.4602,-6.4602,0.0,0.0,0.0,0.0,0.0,0.0,0.0,0.0,0.0,0.0,0.0,0.0,0.0,0.0,0.0,0.0,0.0,0.0,0.0,0.0,0.0,0.0,0.0,0.0,0.0,0.0,0.0,0.0,0.0,0.0,0.0,0.0,0.0,0.0,0.0,0.0,0.0,0.0,0.0,0.0,0.0,0.0,0.0,0.0,0.0,0.0,0.0,0.0,0.0,0.0,0.0,0.0,0.0,0.0,0.0,0.0,0.0,0.0,0.0,0.0,0.0,0.0,0.0,0.0,0.0,0.0,0.0,0.0,0.0,0.0,0.0,0.0,0.0,0.0,0.0,0.0,0.0,0.0,0.0,0.0,0.0,0.0,0.0,0.0,0.0,0.0,0.0,0.0,0.0,0.0,0.0,0.0,0.0,0.0,0.0,0.0,0.0,0.0,0.0,0.0,0.0,0.0,0.0,0.0,0.0,0.0,0.0,0.0,-6.4393,-6.4393,-6.4428,-6.4393,-6.4393,-6.4393,0.0,0.0,0.0,0.0,0.0,0.0,0.0,0.0,0.0,0.0,0.0,0.0,0.0,0.0,0.0,0.0,0.0,0.0,0.0,0.0,0.0,0.0,0.0,0.0,0.0,0.0,0.0,0.0,0.0,0.0,0.0,0.0,0.0,0.0,0.0,0.0,0.0,0.0,0.0,0.0,0.0,0.0,0.0,0.0,0.0,0.0,0.0,0.0,0.0,0.0,0.0,0.0,0.0,0.0,0.0,0.0,0.0,0.0,0.0,0.0,0.0,0.0,0.0,0.0,0.0,0.0,0.0,0.0,0.0,0.0,0.0,0.0,0.0,0.0,0.0,0.0,0.0,0.0,0.0,0.0,0.0,0.0,0.0,0.0,0.0,0.0,0.0,0.0,0.0,0.0,0.0,0.0,0.0,0.0,0.0,0.0,0.0,0.0,0.0,0.0,0.0,0.0,0.0,0.0,0.0,0.0,0.0,0.0,0.0,-6.4393,-6.4287,-6.4251,-6.4251,-6.4251,-6.4287,0.0,0.0,0.0,0.0,0.0,0.0,0.0,0.0,0.0,0.0,0.0,0.0,0.0,0.0,0.0,0.0,0.0,0.0,0.0,0.0,0.0,0.0,0.0,0.0,0.0,0.0,0.0,0.0,0.0,0.0,0.0,0.0,0.0,0.0,0.0,0.0,0.0,0.0,0.0,0.0,0.0,0.0,0.0,0.0,0.0,0.0,0.0,0.0,0.0,0.0,0.0,0.0,0.0,0.0,0.0,0.0,0.0,0.0,0.0,0.0,0.0,0.0,0.0,0.0,0.0,0.0,0.0,0.0,0.0,0.0,0.0,0.0,0.0,0.0,0.0,0.0,0.0,0.0,0.0,0.0,0.0,0.0,0.0,0.0,0.0,0.0,0.0,0.0,0.0,0.0,0.0,0.0,0.0,0.0,0.0,0.0,0.0,0.0,0.0,0.0,0.0,0.0,0.0,0.0,0.0,0.0,0.0,0.0,-6.4498,-6.4323,-6.4144,-6.4001,-6.3965,-6.4036,-6.4109,0.0,0.0,0.0,0.0,0.0,0.0,0.0,0.0,0.0,0.0,0.0,0.0,0.0,0.0,0.0,0.0,0.0,0.0,0.0,0.0,0.0,0.0,0.0,0.0,0.0,0.0,0.0,0.0,0.0,0.0,0.0,0.0,0.0,0.0,0.0,0.0,0.0,0.0,0.0,0.0,0.0,0.0,0.0,0.0,0.0,0.0,0.0,0.0,0.0,0.0,0.0,0.0,0.0,0.0,0.0,0.0,0.0,0.0,0.0,0.0,0.0,0.0,0.0,0.0,0.0,0.0,0.0,0.0,0.0,0.0,0.0,0.0,0.0,0.0,0.0,0.0,0.0,0.0,0.0,0.0,0.0,0.0,0.0,0.0,0.0,0.0,0.0,0.0,0.0,0.0,0.0,0.0,0.0,0.0,0.0,0.0,0.0,0.0,0.0,0.0,0.0,0.0,0.0,0.0,0.0,0.0,0.0,0.0,-6.4358,-6.418,-6.4036,-6.382,-6.3637,-6.3783,-6.3856,0.0,0.0,0.0,0.0,0.0,0.0,0.0,0.0,0.0,0.0,0.0,0.0,0.0,0.0,0.0,0.0,0.0,0.0,0.0,0.0,0.0,0.0,0.0,0.0,0.0,0.0,0.0,0.0,0.0,0.0,0.0,0.0,0.0,0.0,0.0,0.0,0.0,0.0,0.0,0.0,0.0,0.0,0.0,0.0,0.0,0.0,0.0,0.0,0.0,0.0,0.0,0.0,0.0,0.0,0.0,0.0,0.0,0.0,0.0,0.0,0.0,0.0,0.0,0.0,0.0,0.0,0.0,0.0,0.0,0.0,0.0,0.0,0.0,0.0,0.0,0.0,0.0,0.0,0.0,0.0,0.0,0.0,0.0,0.0,0.0,0.0,0.0,0.0,0.0,0.0,0.0,0.0,0.0,0.0,0.0,0.0,0.0,0.0,0.0,0.0,0.0,0.0,0.0,0.0,0.0,0.0,0.0,0.0,-6.4323,-6.418,-6.3999,-6.3856,-6.382,-6.371,-6.3747,0.0,0.0,0.0,0.0,0.0,0.0,0.0,0.0,0.0,0.0,0.0,0.0,0.0,0.0,0.0,0.0,0.0,0.0,0.0,0.0,0.0,0.0,0.0,0.0,0.0,0.0,0.0,0.0,0.0,0.0,0.0,0.0,0.0,0.0,0.0,0.0,0.0,0.0,0.0,0.0,0.0,0.0,0.0,0.0,0.0,0.0,0.0,0.0,-6.1119,0.0,0.0,0.0,0.0,0.0,0.0,0.0,0.0,0.0,0.0,0.0,0.0,0.0,0.0,0.0,0.0,0.0,0.0,0.0,0.0,0.0,0.0,0.0,0.0,0.0,0.0,0.0,0.0,0.0,0.0,0.0,0.0,0.0,0.0,0.0,0.0,0.0,0.0,0.0,0.0,0.0,0.0,0.0,0.0,0.0,0.0,0.0,0.0,0.0,0.0,0.0,0.0,0.0,0.0,0.0,0.0,0.0,0.0,0.0,-6.5153,-6.5113,-6.493,-6.4853,-6.4818,-6.4398,-6.3982,0.0,0.0,0.0,0.0,0.0,0.0,0.0,0.0,0.0,0.0,0.0,0.0,0.0,0.0,0.0,0.0,0.0,0.0,0.0,0.0,0.0,0.0,0.0,0.0,0.0,0.0,0.0,0.0,0.0,0.0,0.0,0.0,0.0,0.0,0.0,0.0,0.0,0.0,0.0,0.0,0.0,0.0,0.0,0.0,0.0,0.0,0.0,0.0,0.0,0.0,0.0,0.0,0.0,0.0,0.0,0.0,0.0,0.0,0.0,0.0,0.0,0.0,0.0,0.0,0.0,0.0,0.0,0.0,0.0,0.0,0.0,0.0,0.0,0.0,0.0,0.0,0.0,0.0,0.0,0.0,0.0,0.0,0.0,0.0,0.0,0.0,0.0,0.0,0.0,0.0,0.0,0.0,0.0,0.0,0.0,0.0,0.0,0.0,0.0,0.0,0.0,0.0,0.0,0.0,0.0,0.0,0.0,-6.6331,-6.6145,-6.6107,-6.599,-6.5876,-6.5876,-6.5221,-6.4565,-6.3979,0.0,0.0,0.0,0.0,0.0,0.0,0.0,0.0,0.0,0.0,0.0,0.0,0.0,0.0,0.0,0.0,0.0,0.0,0.0,0.0,0.0,0.0,0.0,0.0,0.0,0.0,0.0,0.0,0.0,0.0,0.0,0.0,0.0,0.0,0.0,0.0,0.0,0.0,-6.1119,-6.1119,0.0,0.0,0.0,0.0,0.0,0.0,0.0,0.0,-6.1119,0.0,0.0,0.0,0.0,0.0,0.0,0.0,0.0,0.0,0.0,0.0,0.0,0.0,0.0,0.0,0.0,0.0,0.0,0.0,0.0,0.0,0.0,0.0,0.0,0.0,0.0,0.0,0.0,0.0,0.0,0.0,0.0,0.0,0.0,0.0,0.0,0.0,0.0,0.0,0.0,0.0,0.0,0.0,0.0,0.0,0.0,0.0,0.0,0.0,0.0,0.0,0.0,0.0,0.0,0.0,0.0,-6.677,-6.6586,-6.6329,-6.6217,-6.599,-6.5876,-6.5876,-6.5773,-6.5635,-6.5462,0.0,0.0,0.0,0.0,0.0,0.0,0.0,0.0,0.0,0.0,0.0,0.0,0.0,0.0,0.0,0.0,0.0,0.0,0.0,0.0,0.0,0.0,0.0,0.0,0.0,0.0,0.0,0.0,0.0,0.0,0.0,0.0,0.0,0.0,0.0,0.0,0.0,0.0,0.0,-6.1119,-6.1119,0.0,0.0,0.0,0.0,0.0,0.0,0.0,0.0,-6.1119,0.0,0.0,0.0,0.0,0.0,0.0,0.0,0.0,0.0,0.0,0.0,0.0,0.0,0.0,0.0,0.0,0.0,0.0,0.0,0.0,0.0,0.0,0.0,0.0,0.0,0.0,0.0,0.0,0.0,0.0,0.0,0.0,0.0,0.0,0.0,0.0,0.0,0.0,0.0,0.0,0.0,0.0,0.0,0.0,0.0,0.0,0.0,0.0,0.0,0.0,0.0,0.0,0.0,0.0,0.0,-6.7776,-6.751,-6.7281,-6.7169,-6.7126,-6.7049,-6.7014,-6.6669,-6.6428,0.0,0.0,0.0,0.0,0.0,0.0,0.0,0.0,0.0,0.0,0.0,0.0,0.0,0.0,0.0,0.0,0.0,0.0,0.0,0.0,0.0,0.0,0.0,0.0,0.0,0.0,0.0,0.0,0.0,0.0,0.0,0.0,0.0,0.0,0.0,0.0,0.0,0.0,0.0,0.0,-6.1119,-6.1119,-6.1119,0.0,0.0,0.0,0.0,0.0,0.0,-6.1119,-6.1119,0.0,0.0,0.0,0.0,0.0,0.0,0.0,0.0,0.0,0.0,0.0,0.0,0.0,0.0,0.0,0.0,0.0,0.0,0.0,0.0,0.0,0.0,0.0,0.0,0.0,0.0,0.0,0.0,0.0,0.0,0.0,0.0,0.0,0.0,0.0,0.0,0.0,0.0,0.0,0.0,0.0,0.0,0.0,0.0,0.0,0.0,0.0,0.0,0.0,0.0,0.0,0.0,0.0,0.0,0.0,-6.8743,-6.8358,-6.8162,-6.8162,-6.8123,-6.8083,-6.8083,-6.7532,-6.7221,0.0,0.0,0.0,0.0,0.0,0.0,0.0,0.0,0.0,0.0,0.0,0.0,0.0,0.0,0.0,0.0,0.0,0.0,0.0,0.0,0.0,0.0,0.0,0.0,0.0,0.0,0.0,0.0,0.0,0.0,0.0,0.0,0.0,0.0,0.0,0.0,0.0,0.0,0.0,0.0,0.0,-6.155,-6.155,-6.155,0.0,0.0,0.0,0.0,-6.155,-6.155,0.0,0.0,0.0,0.0,0.0,0.0,0.0,0.0,0.0,0.0,0.0,0.0,0.0,0.0,0.0,0.0,0.0,0.0,0.0,0.0,0.0,0.0,0.0,0.0,0.0,0.0,0.0,0.0,0.0,0.0,0.0,0.0,0.0,0.0,0.0,0.0,0.0,0.0,0.0,0.0,0.0,0.0,0.0,0.0,0.0,0.0,0.0,0.0,0.0,0.0,0.0,0.0,0.0,0.0,0.0,0.0,-6.904,-6.859,-6.8358,-6.8358,-6.8201,-6.8083,-6.8083,-6.8014,-6.798,0.0,0.0,0.0,0.0,0.0,0.0,0.0,0.0,0.0,0.0,0.0,0.0,0.0,0.0,0.0,0.0,0.0,0.0,0.0,0.0,0.0,0.0,0.0,0.0,0.0,0.0,0.0,0.0,0.0,0.0,0.0,0.0,0.0,0.0,0.0,0.0,0.0,0.0,0.0,0.0,0.0,-6.304,-6.304,-6.304,-6.305,0.0,0.0,-6.305,-6.304,-6.304,0.0,0.0,0.0,0.0,0.0,0.0,0.0,0.0,0.0,0.0,0.0,0.0,0.0,0.0,0.0,0.0,0.0,0.0,0.0,0.0,0.0,0.0,0.0,0.0,0.0,0.0,0.0,0.0,0.0,0.0,0.0,0.0,0.0,0.0,0.0,0.0,0.0,0.0,0.0,0.0,0.0,0.0,0.0,0.0,0.0,0.0,0.0,0.0,0.0,0.0,0.0,0.0,0.0,0.0,0.0,-6.8892,-6.8854,-6.8435,-6.8241,-6.8241,-6.8123,-6.8083,-6.8083,-6.8083,-6.8083,0.0,0.0,0.0,0.0,0.0,0.0,0.0,0.0,0.0,0.0,0.0,0.0,0.0,0.0,0.0,0.0,0.0,0.0,0.0,0.0,0.0,0.0,0.0,0.0,0.0,0.0,0.0,0.0,0.0,0.0,0.0,0.0,0.0,0.0,0.0,0.0,0.0,0.0,0.0,0.0,0.0,0.0,-6.3315,-6.3315,0.0,0.0,0.0,-6.3315,-6.3315,0.0,0.0,0.0,0.0,0.0,0.0,0.0,0.0,0.0,0.0,0.0,0.0,0.0,0.0,0.0,0.0,0.0,0.0,0.0,0.0,0.0,0.0,0.0,0.0,0.0,0.0,0.0,0.0,0.0,0.0,0.0,0.0,0.0,0.0,0.0,0.0,0.0,0.0,0.0,0.0,0.0,0.0,0.0,0.0,0.0,0.0,0.0,0.0,0.0,0.0,0.0,0.0,0.0,0.0,0.0,0.0,0.0,-6.8705,-6.8319,-6.8083,-6.8083,-6.8083,-6.8083,-6.8083,-6.8004,0.0,0.0,0.0,0.0,0.0,0.0,0.0,0.0,0.0,0.0,0.0,0.0,0.0,0.0,0.0,0.0,0.0,0.0,0.0,0.0,0.0,0.0,0.0,0.0,0.0,0.0,0.0,-6.3239,0.0,0.0,0.0,0.0,0.0,0.0,0.0,0.0,0.0,0.0,0.0,0.0,0.0,0.0,-6.3802,-6.3802,-6.3802,-6.3802,0.0,0.0,-6.3835,-6.3802,-6.3802,-6.3802,0.0,0.0,0.0,0.0,0.0,0.0,0.0,0.0,0.0,0.0,0.0,0.0,0.0,0.0,0.0,0.0,0.0,0.0,0.0,0.0,0.0,0.0,0.0,0.0,0.0,0.0,0.0,0.0,0.0,0.0,0.0,0.0,0.0,0.0,0.0,0.0,0.0,0.0,0.0,0.0,0.0,0.0,0.0,0.0,0.0,0.0,0.0,0.0,0.0,0.0,0.0,0.0,0.0,0.0,-6.8705,-6.8705,-6.828,-6.8083,-6.8083,-6.8083,-6.8083,-6.8083,-6.7719,-6.7719,0.0,0.0,0.0,0.0,0.0,0.0,0.0,0.0,0.0,0.0,0.0,0.0,0.0,0.0,0.0,0.0,0.0,0.0,0.0,0.0,0.0,0.0,0.0,0.0,0.0,0.0,0.0,0.0,0.0,0.0,0.0,0.0,0.0,0.0,0.0,0.0,0.0,0.0,0.0,0.0,0.0,-6.5293,-6.526,-6.526,-6.526,0.0,-6.526,-6.526,-6.526,-6.526,-6.526,-6.526,0.0,0.0,0.0,0.0,0.0,0.0,0.0,0.0,0.0,0.0,0.0,0.0,0.0,0.0,0.0,0.0,0.0,0.0,0.0,0.0,0.0,0.0,0.0,0.0,0.0,0.0,0.0,0.0,0.0,0.0,0.0,0.0,0.0,0.0,0.0,0.0,0.0,0.0,0.0,0.0,0.0,0.0,0.0,0.0,0.0,0.0,0.0,0.0,0.0,0.0,0.0,0.0,0.0,-6.8705,-6.8705,-6.828,-6.8083,-6.8083,-6.8083,-6.8083,-6.8083,-6.7959,-6.7839,0.0,0.0,0.0,0.0,0.0,0.0,0.0,0.0,0.0,0.0,0.0,0.0,0.0,0.0,0.0,0.0,0.0,0.0,0.0,0.0,0.0,0.0,0.0,0.0,0.0,0.0,0.0,0.0,-6.4724,-6.487,-6.4641,0.0,0.0,0.0,0.0,0.0,0.0,0.0,0.0,0.0,0.0,-6.5425,-6.5425,-6.5425,0.0,0.0,-6.5425,-6.5425,-6.5425,-6.5425,-6.5425,-6.5425,-6.5425,0.0,0.0,0.0,0.0,0.0,0.0,0.0,0.0,0.0,0.0,0.0,0.0,0.0,0.0,0.0,0.0,0.0,0.0,0.0,0.0,0.0,0.0,0.0,0.0,0.0,0.0,0.0,0.0,0.0,0.0,0.0,0.0,0.0,0.0,0.0,0.0,0.0,0.0,0.0,0.0,0.0,0.0,0.0,0.0,0.0,0.0,0.0,0.0,0.0,0.0,0.0,0.0,-6.8667,-6.8593,-6.828,-6.8083,-6.8083,-6.8083,-6.8083,-6.8083,-6.7999,-6.7799,0.0,0.0,0.0,0.0,0.0,0.0,0.0,0.0,0.0,0.0,0.0,0.0,0.0,0.0,0.0,0.0,0.0,0.0,0.0,0.0,0.0,0.0,0.0,0.0,0.0,0.0,0.0,0.0,-6.5216,-6.5425,-6.5425,0.0,0.0,0.0,0.0,0.0,0.0,0.0,0.0,0.0,0.0,-6.5425,-6.5425,-6.5425,-6.5425,-6.5425,-6.5425,-6.5425,-6.5425,-6.5425,-6.5425,-6.5425,0.0,0.0,0.0,0.0,0.0,0.0,0.0,0.0,0.0,0.0,0.0,0.0,0.0,0.0,0.0,0.0,0.0,0.0,0.0,0.0,0.0,0.0,0.0,0.0,0.0,0.0,0.0,0.0,0.0,0.0,-7.1494,0.0,0.0,0.0,0.0,0.0,0.0,0.0,0.0,0.0,0.0,0.0,0.0,0.0,0.0,0.0,0.0,0.0,0.0,0.0,0.0,0.0,0.0,-6.8628,-6.8397,-6.8201,-6.8083,-6.8083,-6.8083,-6.8083,-6.8078,-6.7719,-6.751,-6.7475,0.0,0.0,0.0,0.0,0.0,0.0,0.0,0.0,0.0,0.0,0.0,0.0,0.0,0.0,0.0,0.0,0.0,0.0,0.0,0.0,0.0,0.0,0.0,0.0,0.0,0.0,-6.6062,-6.5658,-6.5392,0.0,0.0,0.0,0.0,0.0,0.0,0.0,0.0,0.0,0.0,-6.5425,-6.5425,-6.5425,-6.5425,-6.5425,-6.5425,-6.5425,-6.5425,-6.5425,-6.5425,-6.5425,0.0,0.0,0.0,0.0,0.0,0.0,0.0,0.0,0.0,0.0,0.0,0.0,0.0,0.0,0.0,0.0,0.0,0.0,0.0,0.0,0.0,0.0,0.0,0.0,0.0,0.0,0.0,-7.1494,-7.1494,0.0,0.0,0.0,0.0,0.0,0.0,0.0,0.0,0.0,0.0,0.0,-6.9777,-6.9522,0.0,0.0,0.0,0.0,0.0,0.0,0.0,0.0,0.0,0.0,0.0,0.0,-6.859,-6.8397,-6.8201,-6.8083,-6.8083,-6.8083,-6.7999,-6.7719,-6.7557,-6.7229,-6.6567,0.0,0.0,0.0,0.0,0.0,0.0,0.0,0.0,0.0,0.0,0.0,0.0,0.0,0.0,0.0,0.0,0.0,0.0,0.0,0.0,0.0,0.0,0.0,0.0,0.0,-6.579,0.0,0.0,0.0,0.0,0.0,0.0,0.0,0.0,0.0,0.0,0.0,-6.5425,-6.5425,-6.5823,-6.5955,-6.5492,-6.5823,-6.5989,0.0,0.0,0.0,0.0,0.0,0.0,0.0,0.0,0.0,0.0,0.0,0.0,0.0,0.0,-6.2716,-6.236,-6.1975,-6.167,-6.1719,0.0,0.0,0.0,0.0,0.0,0.0,0.0,0.0,0.0,0.0,0.0,0.0,0.0,0.0,-7.1179,0.0,-7.1143,0.0,0.0,0.0,0.0,0.0,0.0,0.0,0.0,-6.9884,-6.9597,-6.9376,-6.9376,-6.9376,0.0,-6.9376,-6.9376,0.0,0.0,0.0,0.0,0.0,0.0,0.0,0.0,-6.859,-6.8319,-6.8162,-6.8083,-6.8083,-6.8083,-6.7919,-6.751,-6.7188,-6.6812,-6.6354,-6.6009,-6.5922,0.0,0.0,0.0,0.0,0.0,0.0,0.0,0.0,0.0,0.0,0.0,0.0,0.0,0.0,0.0,0.0,0.0,0.0,0.0,0.0,0.0,0.0,0.0,-6.5437,0.0,0.0,0.0,0.0,0.0,0.0,0.0,0.0,0.0,-6.5425,-6.5425,-6.5425,-6.5425,-6.5823,-6.5955,-6.5492,0.0,0.0,0.0,0.0,0.0,0.0,0.0,-6.5425,-6.5425,-6.5425,-6.5425,-6.5425,-6.5156,-6.4885,-6.4748,0.0,0.0,-6.2808,-6.2513,-6.2396,-6.2396,-6.2067,-6.1909,-6.2302,-6.2067,-6.1877,0.0,0.0,0.0,0.0,0.0,0.0,0.0,0.0,-7.0649,-7.0548,0.0,-7.0548,0.0,0.0,0.0,0.0,0.0,-7.0236,0.0,0.0,-6.956,-6.9376,-6.9376,-6.9376,-6.9376,-6.9376,-6.9376,-6.9376,-6.9376,-6.9376,0.0,0.0,0.0,0.0,0.0,0.0,-6.8513,-6.8123,-6.8083,-6.8118,-6.8113,-6.8113,-6.7914,-6.7537,-6.6635,-6.6335,-6.672,-6.5911,-6.5614,-6.6052,-6.5658,0.0,0.0,0.0,0.0,0.0,0.0,0.0,0.0,0.0,0.0,0.0,0.0,0.0,0.0,0.0,0.0,0.0,0.0,0.0,0.0,-6.5425,0.0,0.0,0.0,0.0,0.0,0.0,0.0,0.0,0.0,0.0,-6.5525,-6.5459,-6.5425,-6.5459,0.0,0.0,0.0,0.0,-6.5525,-6.5525,-6.5492,-6.5492,-6.5492,-6.5492,-6.5492,-6.5525,0.0,0.0,-6.5425,-6.5425,-6.5246,-6.4793,-6.4702,-6.4426,-6.3404,-6.2856,-6.2446,-6.2396,-6.2365,-6.2396,-6.2396,-6.2365,-6.2333,-7.1494,0.0,0.0,0.0,0.0,-7.1143,-7.0979,-7.0979,-7.0649,-7.0514,-7.0514,-7.0514,0.0,0.0,0.0,0.0,0.0,0.0,-6.9885,-6.9849,-6.9559,-6.9376,-6.9376,-6.9376,-6.9376,-6.9376,-6.9376,-6.9376,-6.9376,-6.9376,-6.9376,-6.9376,0.0,0.0,0.0,0.0,-6.8513,-6.8123,-6.8083,-6.82,-6.8426,-6.846,-6.8326,-6.8065,-6.6946,-6.6457,-6.6546,-6.5824,-6.547,-6.557,-6.579,0.0,0.0,0.0,0.0,0.0,0.0,0.0,0.0,0.0,0.0,0.0,0.0,0.0,0.0,0.0,0.0,0.0,0.0,0.0,-6.5425,-6.5425,-6.547,0.0,0.0,0.0,0.0,0.0,0.0,0.0,0.0,0.0,-6.6916,-6.6055,-6.5624,0.0,0.0,-6.6937,-6.6937,-6.7413,-6.7579,-6.7036,-6.6982,0.0,-6.6937,-6.6937,-6.6982,-6.6937,-6.6506,-6.6022,-6.5492,-6.5425,-6.5381,-6.5201,-6.493,-6.461,-6.43,-6.3548,-6.2905,-6.2513,-6.2396,-6.2396,-6.2396,-6.2396,-6.2396,-7.1494,-7.1494,-7.1494,-7.1399,-7.1272,-7.1078,-7.0979,-7.0979,-7.0649,-7.041,-7.0272,-7.0272,-7.0272,-7.0272,-7.0237,0.0,0.0,0.0,-6.9705,-6.9705,-6.9486,-6.9376,-6.9376,-6.9376,-6.9376,-6.9376,-6.9376,-6.9376,-6.9376,-6.9376,-6.9376,-6.9376,0.0,0.0,-6.8857,-6.9056,-6.9038,-6.8725,-6.8882,-6.9101,-6.9296,-6.8963,-6.8786,-6.8803,-6.7635,-6.704,-6.7222,-6.6609,-6.6242,-6.6287,-6.6556,-6.6556,0.0,0.0,0.0,0.0,0.0,0.0,0.0,0.0,0.0,0.0,0.0,-6.6129,-6.5834,0.0,0.0,0.0,-6.5425,-6.5702,-6.649,-6.6112,0.0,0.0,0.0,0.0,0.0,0.0,0.0,-6.6287,-6.6684,-6.7069,-6.7499,-6.685,-6.6452,-6.6837,-6.7347,-6.7566,-6.7566,0.0,-6.8109,-6.7632,-6.7566,-6.7566,-6.7566,-6.7566,-6.7566,-6.7566,-6.7235,-6.6804,-6.6386,-6.6287,-6.6242,-6.6242,-6.6014,-6.5785,-6.56,-6.5085,-6.4192,-6.3001,-6.271,-6.2661,-6.2446,-6.2396,-6.2396,-7.1463,-7.1499,-7.1463,-7.1336,-7.1045,-7.1012,-7.0979,-7.0946,-7.0615,-7.0272,-6.9956,-6.992,-6.9885,-6.9885,-6.9849,0.0,-6.9849,-6.9524,-6.9412,-6.9376,-6.9376,-6.9376,-6.9376,-6.9376,-6.9376,-6.9376,-6.9483,-6.9518,-6.9481,-6.9551,-6.9586,-6.9586,-6.9551,-6.9442,-6.9217,-6.9725,-6.9875,-6.9679,-7.0136,-7.0429,-7.034,-6.9578,-6.9311,-6.9689,-6.8394,-6.7895,-6.8271,-6.7874,-6.7566,-6.7566,-6.7566,-6.7566,-6.7612,0.0,0.0,0.0,0.0,0.0,0.0,0.0,0.0,0.0,0.0,0.0,0.0,0.0,0.0,-6.5669,-6.5591,0.0,-6.807,-6.7243,0.0,0.0,0.0,-6.7658,-6.7658,-6.7658,-6.7691,-6.7757,0.0,0.0,-6.7764,-6.7764,-6.7811,-6.7764,-6.7698,-6.7744,-6.7731,-6.7844,-6.7764,-6.7831,-6.7811,-6.7811,-6.7943,-6.791,-6.791,-6.7811,-6.7711,-6.7632,-6.7579,-6.7546,-6.7566,-6.7499,-6.7566,-6.744,-6.7006,-6.6813,-6.6235,-6.395,-6.3565,-6.334,-6.2897,-6.283,-6.278,-7.1336,-7.1143,-7.1399,-7.1431,-7.1368,-7.111,-7.0979,-7.0946,-7.0305,-7.0167,-7.0341,-7.0062,-6.9885,-6.9885,-6.9633,-6.9487,-6.9522,-6.9449,-6.9376,-6.9376,-6.9376,-6.9376,-6.9376,-6.9376,-6.9376,-6.9411,-6.9972,-7.0253,-7.0288,-7.085,-7.1166,-7.1131,-7.1166,-7.0661,-6.9757,-7.0415,-7.0561,-7.0199,-7.0331,-7.034,-7.0172,-7.0131,-7.0025,-6.9749,-6.8892,-6.8487,-6.8593,-6.7923,-6.7566,-6.7566,-6.7566,-6.7566,-6.7566,-6.7538,0.0,0.0,0.0,0.0,0.0,0.0,0.0,0.0,0.0,-6.6621,-6.7558,0.0,-6.7418,0.0,-6.7264,-6.7293,-6.7717,-6.7492,0.0,0.0,-6.8023,-6.8126,-6.8126,-6.8126,-6.8359,-6.8894,-6.8672,-6.8639,-6.9202,-6.9268,-6.9268,-6.9268,-6.8771,-6.8639,-6.9169,-6.9268,-6.9268,-6.9235,-6.9202,-6.9268,-6.9235,-6.9268,-6.9069,-6.8506,-6.844,-6.8241,-6.7711,-6.7566,-6.7566,-6.7566,-6.7566,-6.7553,-6.746,-6.7427,-6.7128,-6.6249,-6.5722,-6.5255,-6.4747,-6.4566,-6.4498,-7.1368,-7.124,-7.1399,-7.1494,-7.1499,-7.1304,-7.1207,-7.1175,-7.0814,-7.0581,-7.048,-6.992,-6.9669,-6.9669,-6.9486,-6.9376,-6.9376,-6.9376,-6.9376,-6.9376,-6.9376,-6.9376,-6.9411,-6.9727,-6.9867,-6.9902,-7.0675,-7.1061,-7.1061,-7.1482,-7.1693,-7.1728,-7.2044,-7.182,-7.1124,-7.1434,-7.1444,-7.1041,-7.1263,-7.1266,-7.0988,-7.0873,-7.0608,-7.0096,-6.9495,-6.9169,-6.9202,-6.8804,-6.8572,-6.8606,-6.8606,-6.8572,-6.8572,-6.8274,-6.8109,0.0,0.0,0.0,0.0,0.0,0.0,0.0,0.0,0.0,0.0,0.0,-6.8301,-6.8877,-6.8344,-6.8107,-6.8539,-6.8307,-6.8241,-6.8572,-6.8805,-6.8957,-6.8957,-6.914,-6.9353,-6.9523,-6.9543,-6.957,-6.9779,-6.9798,-6.9798,-6.9798,-6.9434,-6.9334,-6.9699,-6.9798,-6.9798,-6.9798,-6.9798,-6.9798,-6.9798,-6.9798,-6.9666,-6.9301,-6.9169,-6.9036,-6.8672,-6.8606,-6.8606,-6.8572,-6.8572,-6.8572,-6.8606,-6.8572,-6.8479,-6.8276,-6.7958,-6.7264,-6.5949,-6.5475,-6.5176,-7.1494,-7.1494,-7.1494,-7.1494,-7.1494,-7.1494,-7.1494,-7.1494,-7.1399,-7.1048,-7.048,-6.9884,-6.9595,-6.9559,-6.9486,-6.9449,-6.9376,-6.9376,-6.9376,-6.9376,-6.9376,-6.9446,-6.9588,-7.0183,-7.0569,-7.0675,-7.1482,-7.1868,-7.1868,-7.1938,-7.2009,-7.2044,-7.2641,-7.284,-7.2678,-7.2678,-7.2445,-7.1966,-7.2493,-7.2501,-7.1985,-7.1478,-7.0985,-7.0515,-7.0049,-6.9798,-6.9798,-6.9798,-6.9798,-6.9798,-6.9798,-6.9798,-6.9765,-6.9202,-6.8837,0.0,-6.8241,0.0,0.0,0.0,0.0,0.0,0.0,0.0,0.0,-6.8566,-6.9197,-6.9827,-6.9115,-6.8973,-6.9902,-6.939,-6.9257,-6.9888,-7.0049,-7.0082,-7.0002,-7.033,-7.0423,-6.9941,-7.019,-7.027,-6.9893,-6.9798,-6.9798,-6.9798,-6.9765,-6.9732,-6.9798,-6.9798,-6.9798,-6.9798,-6.9798,-6.9798,-6.9798,-6.9798,-6.9798,-6.9765,-6.9732,-6.9798,-6.9732,-6.9732,-6.9765,-6.9732,-6.9699,-6.9732,-6.9798,-6.9765,-6.9765,-6.9651,-6.9618,-6.8969,-6.7086,-6.6158,-6.5664,-7.1494,-7.1494,-7.1494,-7.1494,-7.1494,-7.1494,-7.1494,-7.1463,-7.0916,-7.0615,-7.0513,-7.0649,-7.0547,-7.0307,-6.9956,-6.9633,-6.9376,-6.9376,-6.9376,-6.9376,-6.9376,-6.9727,-7.0288,-7.0429,-7.085,-7.1482,-7.2254,-7.2606,-7.2606,-7.3238,-7.3589,-7.3589,-7.3694,-7.3646,-7.3522,0.0,0.0,0.0,-7.2894,-7.2628,-7.1985,-7.1478,-7.0985,-7.0515,-7.0049,0.0,-6.9798,-6.9798,-6.9798,-6.9798,-6.9798,0.0,0.0,0.0,0.0,0.0,0.0,0.0,0.0,0.0,0.0,0.0,-6.981,-6.9929,-6.9975,-7.0109,-7.0243,-7.0376,-7.0155,-7.0318,-7.086,-7.0805,-7.0771,-7.0906,-7.1289,-7.1423,-7.103,-7.103,-7.0894,-7.0423,-7.0096,-6.9941,-6.9846,-6.9798,-6.9798,-6.9798,-6.9798,-6.9798,-6.9798,-6.9798,-6.9798,-6.9798,-6.9798,-6.9798,-6.9798,-6.9798,-6.9798,-6.9798,-6.9798,-6.9798,-6.9798,-6.9798,-6.9798,-6.9798,-6.9798,-6.9798,-6.9798,-6.9798,-6.9798,-6.9798,-6.9798,-6.9508,-6.8666,-6.8028,-6.7512,-7.1494,0.0,-7.1494,-7.1494,0.0,-7.1494,-7.1494,-7.1463,-7.111,-7.0817,-7.0514,-7.0443,-7.0272,-6.9955,-6.9777,-6.9559,-6.9376,-6.9376,-6.9376,-6.9376,-6.9376,-6.9797,-7.0499,-7.092,-7.1482,-7.2254,-7.3027,-7.3378,-7.3413,-7.3799,-7.401,-7.401,-7.401,-7.397,-7.3852,-7.397,-7.3777,-7.3334,-7.3211,-7.2678,-7.1854,-7.1522,-7.1019,-7.019,-6.9941,0.0,0.0,0.0,0.0,0.0,0.0,0.0,0.0,0.0,0.0,-6.9798,-6.9798,-6.9798,-6.9798,-6.9798,-6.9798,-6.9798,-7.0035,-7.0376,-7.0803,-7.0849,-7.0712,-7.0515,-7.0515,-7.0515,-7.0482,-7.0482,-7.0482,-7.0528,-7.0745,-7.0791,-7.0574,-7.094,-7.0985,-7.0654,-7.0745,-7.0699,-7.019,-7.0143,-7.0002,-6.9846,-6.9798,-6.9798,-6.9798,-6.9798,-6.9798,-6.9798,-6.9798,-6.9798,-6.9798,-6.9798,-6.9798,-6.9798,-6.9798,-6.9798,-6.9798,-6.9798,-6.9798,-6.9798,-6.9798,-6.9798,-6.9798,-6.9798,-6.9798,-6.9798,-6.9798,-6.9751,-6.9382,-6.8994,-6.855,-7.1494,-7.1494,-7.1494,-7.1494,-7.1494,-7.1494,-7.1494,-7.1494,0.0,0.0,0.0,-7.0306,-6.9991,-6.9595,-6.9595,-6.9522,-6.9412,-6.9376,-6.9376,-6.9376,-6.9376,-6.9867,-7.0745,-7.1377,-7.2149,-7.3027,-7.3694,-7.401,-7.401,-7.401,-7.401,-7.401,-7.401,-7.401,-7.401,-7.401,-7.3931,-7.3772,-7.3496,-7.2887,-7.1951,-7.1732,-7.1154,-7.0143,-6.9907,-6.9798,-6.9798,-6.9798,-6.9798,-6.9798,-6.9798,-6.9798,-6.9798,-6.9798,-6.9798,-6.9798,-6.9798,-6.9798,-6.9798,-6.9798,-6.9846,-6.9941,-6.9907,-7.019,-7.094,-7.094,-7.0849,-7.0515,-7.0515,-7.0376,-7.0223,-7.019,-7.019,-7.0283,-7.0236,-7.019,-7.0143,-7.0654,-7.0849,-7.0561,-7.1109,-7.1457,-7.0608,-7.0561,-7.0469,-7.0002,-6.9988,-6.9893,-6.9846,-6.9798,-6.9798,-6.9798,-6.9798,-6.9798,-6.9798,-6.9798,-6.9798,-6.9798,-6.9798,-6.9798,-6.9798,-6.9798,-6.9798,-6.9798,-6.9798,-6.9798,-6.9798,-6.9798,-6.9798,-6.9798,-6.9798,-6.9798,-6.9751,-6.9463,-6.9091,-7.1494,-7.1494,-7.1494,-7.1494,-7.1494,-7.1494,-7.1494,-7.1494,-7.1494,-7.111,-7.0513,-7.1045,-7.0913,-7.0306,-7.0342,-7.0026,-6.9412,-6.9376,-6.9376,-6.9376,-6.9376,-7.0148,-7.1517,-7.1658,-7.2465,-7.3764,-7.394,-7.401,-7.401,-7.401,-7.401,-7.401,-7.401,-7.401,-7.401,-7.401,-7.401,-7.397,-7.3772,-7.3456,-7.3053,-7.2124,-7.1556,-7.1334,-7.033,-6.9798,-6.9798,-6.9798,-6.9798,-6.9798,-6.9798,-6.9798,-6.9798,-6.9798,-6.9798,-6.9798,-6.9798,-6.9798,-6.9798,-6.9798,-6.9988,-7.033,-7.0376,-7.0283,-7.0002,-7.0002,-7.0143,-7.0469,-7.0515,-7.0837,-7.1546,-7.1634,-7.1688,-7.2115,-7.1864,-7.1512,-7.0985,-7.0757,-7.0515,-7.0096,-7.041,-7.0791,-7.0699,-7.0849,-7.0894,-7.0515,-7.033,-7.0236,-6.9893,-6.9798,-6.9798,-6.9798,-6.9798,-6.9798,-6.9798,-6.9798,-6.9798,-6.9798,-6.9798,-6.9798,-6.9798,-6.9798,-6.9831,-6.9798,-6.9864,-6.9864,-6.9898,-6.9798,-6.9931,-6.9964,-6.9997,-6.9931,-6.9964,-6.9835,-6.9625,-7.1494,-7.1494,-7.1494,-7.1494,-7.1494,-7.1494,-7.1399,-7.124,-7.1431,-7.1207,-7.0817,-7.088,-7.0682,-7.0167,-6.9956,-6.974,-6.9376,-6.9376,-6.9376,-6.9411,-6.9797,-7.0604,-7.1693,-7.2114,-7.2886,-7.3975,-7.401,-7.401,-7.401,-7.401,-7.401,-7.401,-7.401,-7.401,-7.401,-7.401,-7.401,-7.401,-7.3896,-7.3496,-7.2762,-7.2253,-7.1688,-7.1019,-7.0469,-7.0143,-7.019,-7.0082,-6.9988,-6.9988,-6.9893,-6.9798,-6.9798,-6.9798,-6.9798,-6.9798,-6.9798,-6.9798,-6.9798,-6.9669,-6.9775,-7.0231,-7.0276,-7.0186,-7.0004,-7.0327,-7.0666,-7.0849,-7.0894,-7.103,-7.1512,-7.1556,-7.1688,-7.1864,-7.1688,-7.1512,-7.13,-7.1334,-7.1199,-7.1064,-7.1423,-7.16,-7.1334,-7.1255,-7.103,-7.0608,-7.0515,-7.033,-6.9893,-7.0035,-7.0082,-6.9846,-6.9798,-6.9798,-6.9798,-6.9798,-6.9798,-6.9798,-6.9798,-6.9798,-6.9798,-6.9798,-6.9997,-7.0295,-7.0394,-7.056,-7.0858,-7.0991,-7.0991,-7.0991,-7.0991,-7.0991,-7.0991,-7.0991,-7.0532,-7.1494,-7.1494,-7.1494,-7.1494,-7.1494,-7.1494,-7.1336,-7.1143,-7.1368,-7.1336,-7.1078,-7.085,-7.0513,-7.0131,-6.9884,-6.9704,-6.9522,-6.9522,-6.9486,-6.9483,-7.0148,-7.092,-7.1728,-7.243,-7.3202,-7.394,-7.401,-7.401,-7.401,-7.401,-7.401,-7.401,-7.401,-7.401,-7.401,-7.401,-7.401,-7.401,-7.401,-7.3542,-7.272,-7.2517,-7.1917,-7.0985,-7.0745,-7.0608,-7.0515,-7.0363,-7.027,-7.027,-7.0035,-6.9893,-6.9893,-6.9846,-6.9798,-6.9798,-6.9798,-6.9798,-6.9765,-6.9597,-6.9678,-7.0097,-7.0231,-7.0276,-7.0398,-7.105,-7.1355,-7.1221,-7.1075,-7.112,-7.1344,-7.13,-7.13,-7.1478,-7.1433,-7.1433,-7.1433,-7.1644,-7.1854,-7.1898,-7.2245,-7.2331,-7.2029,-7.1732,-7.1389,-7.1019,-7.0788,-7.0597,-7.0315,-7.0556,-7.0642,-7.0405,-7.0163,-7.0096,-7.0063,-7.0262,-7.0361,-7.0295,-7.0361,-7.0428,-7.0394,-7.0328,-7.0461,-7.1024,-7.1156,-7.1322,-7.1852,-7.1951,-7.1918,-7.1852,-7.1819,-7.1918,-7.1885,-7.1885,-7.1555,-7.1494,-7.1494,-7.1494,-7.1494,-7.1494,-7.1494,-7.1463,-7.1431,-7.1463,-7.1499,-7.1431,-7.1436,-7.1207,-7.0913,-7.0814,-7.0409,-6.9884,-6.9849,-6.9669,-6.9553,-7.0148,-7.092,-7.1763,-7.2465,-7.3202,-7.394,-7.401,-7.401,-7.401,-7.401,-7.401,-7.401,-7.401,-7.401,-7.401,-7.401,-7.401,-7.401,-7.401,-7.397,-7.3817,-7.3183,-7.2644,-7.2133,-7.1478,-7.094,-7.0608,-7.0469,-7.0469,-7.0423,-7.0316,-7.0176,-7.0129,-6.9941,-6.9798,-6.9846,-6.9846,-6.9798,-6.9846,-6.9779,-6.9916,-7.017,-7.0589,-7.0873,-7.1052,-7.1761,-7.1917,-7.1389,-7.0882,-7.1109,-7.1766,-7.1556,-7.161,-7.2296,-7.2159,-7.1942,-7.1898,-7.1522,-7.13,-7.13,-7.1864,-7.2063,-7.214,-7.2382,-7.2391,-7.1916,-7.1727,-7.1567,-7.1506,-7.1656,-7.1845,-7.1651,-7.1304,-7.0858,-7.0858,-7.1388,-7.1521,-7.1653,-7.1753,-7.162,-7.1554,-7.1587,-7.1852,-7.1786,-7.1918,-7.1985,-7.2084,-7.2018,-7.2117,-7.2316,-7.225,-7.2084,-7.2018,-7.215,-7.1969,-7.1494,-7.1494,-7.1494,-7.1494,-7.1494,-7.1494,-7.1494,-7.1494,-7.1494,-7.1494,-7.1494,-7.1494,-7.1304,-7.0979,-7.0545,-7.0166,-6.992,-6.9705,-6.9805,-7.0078,-7.085,-7.1622,-7.236,-7.3132,-7.3694,-7.3975,-7.401,-7.401,-7.401,-7.401,-7.401,-7.401,-7.401,-7.401,-7.401,-7.401,-7.401,-7.401,-7.401,-7.401,-7.3931,-7.3456,-7.2929,-7.2517,-7.2176,-7.196,-7.1742,-7.1478,-7.1389,-7.1522,-7.1244,-7.1064,-7.1199,-7.1075,-7.0894,-7.0666,-7.062,-7.0666,-7.0882,-7.0804,-7.0964,-7.1354,-7.1397,-7.1525,-7.1602,-7.2184,-7.2382,-7.2124,-7.1907,-7.1994,-7.2331,-7.221,-7.2253,-7.2586,-7.2501,-7.245,-7.2416,-7.221,-7.2081,-7.2124,-7.2253,-7.2622,-7.2992,-7.336,-7.3382,-7.2971,-7.2776,-7.2726,-7.2713,-7.2841,-7.2882,-7.2901,-7.2696,-7.2293,-7.1784,-7.1753,-7.2018,-7.2018,-7.2018,-7.2018,-7.2084,-7.2018,-7.2117,-7.2548,-7.2647,-7.2846,-7.3276,-7.3276,-7.3276,-7.321,-7.3276,-7.3276,-7.3276,-7.3276,-7.3276,-7.1494,-7.1494,-7.1494,-7.1494,-7.1531,-7.1748,-7.1857,-7.1893,-7.2074,-7.2146,-7.2146,-7.2183,-7.2018,-7.1726,-7.0941,-7.0521,-7.0487,-7.0379,-7.0585,-7.1073,-7.1774,-7.2405,-7.2851,-7.3624,-7.401,-7.401,-7.401,-7.401,-7.401,-7.401,-7.401,-7.401,-7.401,-7.401,-7.401,-7.401,-7.401,-7.401,-7.401,-7.401,-7.397,-7.3657,-7.3258,-7.2846,-7.2769,-7.2728,-7.2602,-7.2262,-7.2176,-7.2347,-7.2038,-7.183,-7.2004,-7.1917,-7.1742,-7.1344,-7.1255,-7.13,-7.1478,-7.1318,-7.1472,-7.1967,-7.1884,-7.1884,-7.2154,-7.2569,-7.2846,-7.2838,-7.3053,-7.3115,-7.2797,-7.2628,-7.2655,-7.2954,-7.3065,-7.3092,-7.3291,-7.3291,-7.3318,-7.3291,-7.3387,-7.3464,-7.3973,-7.4238,-7.4203,-7.3969,-7.3934,-7.4012,-7.4,-7.4043,-7.4073,-7.3945,-7.4004,-7.3633,-7.2743,-7.268,-7.2597,-7.2614,-7.2713,-7.2746,-7.2614,-7.2614,-7.2647,-7.3343,-7.3376,-7.3475,-7.374,-7.4056,-7.4155,-7.4188,-7.4188,-7.4105,-7.4023,-7.4155,-7.4155,-7.1494,-7.1531,-7.1531,-7.1603,-7.1603,-7.2327,-7.2653,-7.269,-7.3414,-7.3707,-7.3671,-7.3704,-7.3744,-7.3602,-7.2523,-7.2099,-7.2137,-7.2333,-7.2335,-7.2257,-7.2928,-7.3129,-7.289,-7.3624,-7.401,-7.401,-7.401,-7.401,-7.401,-7.401,-7.401,-7.401,-7.401,-7.401,-7.401,-7.4045,-7.401,-7.408,-7.415,-7.408,-7.408,-7.4041,-7.3802,-7.3473,-7.3293,-7.3094,-7.2686,-7.2602,-7.2602,-7.2602,-7.239,-7.2305,-7.2262,-7.209,-7.1873,-7.1644,-7.1389,-7.1221,-7.1255,-7.1008,-7.1064,-7.1586,-7.1926,-7.2004,-7.2762,-7.3192,-7.342,-7.3322,-7.3982,-7.4045,-7.3282,-7.2819,-7.2897,-7.3849,-7.3868,-7.4093,-7.4671,-7.4645,-7.4809,-7.474,-7.4705,-7.474,-7.4878,-7.4869,-7.4954,-7.4959,-7.507,-7.5219,-7.5276,-7.5429,-7.529,-7.5022,-7.4862,-7.4567,-7.3949,-7.3608,-7.3824,-7.3824,-7.3608,-7.3923,-7.4089,-7.4155,-7.4122,-7.4089,-7.3972,-7.3972,-7.4155,-7.4221,-7.4188,-7.4221,-7.4221,-7.4221,-7.4221,-7.4221,-7.4221,-7.3052,-7.3052,-7.3052,-7.3052,-7.3088,-7.3378,-7.3486,-7.3486,-7.3776,-7.3888,-7.3888,-7.3888,-7.3888,-7.3888,-7.374,-7.3424,-7.2993,-7.2865,-7.2869,-7.3039,-7.3283,-7.3484,-7.3628,-7.3869,-7.401,-7.401,-7.401,-7.401,-7.401,-7.401,-7.401,-7.401,-7.401,-7.401,-7.408,-7.4466,-7.4712,-7.4747,-7.5168,-7.5484,-7.5414,-7.5484,-7.5369,-7.5172,-7.4227,-7.3657,-7.3502,-7.334,-7.334,-7.3461,-7.3299,-7.3252,-7.3299,-7.3012,-7.2686,-7.2475,-7.2517,-7.2475,-7.2356,-7.2602,-7.2846,-7.3088,-7.3462,-7.3698,-7.4052,-7.4482,-7.4761,-7.483,-7.497,-7.5039,-7.49,-7.4418,-7.4309,-7.4722,-7.4833,-7.4937,-7.5188,-7.5249,-7.5163,-7.5189,-7.5413,-7.5671,-7.5671,-7.6041,-7.6351,-7.6307,-7.6188,-7.6165,-7.6405,-7.637,-7.6182,-7.6228,-7.5818,-7.5465,-7.5641,-7.4652,-7.4188,-7.4188,-7.4155,-7.4122,-7.4221,-7.4221,-7.4155,-7.4155,-7.4188,-7.4221,-7.4221,-7.4221,-7.4221,-7.4221,-7.4221,-7.4221,-7.4221,-7.4221,-7.4221,-7.3888,-7.3888,-7.3888,-7.3888,-7.3957,-7.4211,-7.425,-7.4287,-7.4573,-7.4682,-7.4682,-7.4682,-7.4682,-7.4721,-7.4957,-7.4855,-7.435,-7.3935,-7.3833,-7.3932,-7.393,-7.3987,-7.4018,-7.401,-7.401,-7.401,-7.401,-7.401,-7.401,-7.401,-7.415,-7.4361,-7.4361,-7.4501,-7.4782,-7.5239,-7.5484,-7.559,-7.6011,-7.6292,-7.6292,-7.6292,-7.6292,-7.6152,-7.5274,-7.4747,-7.4747,-7.4627,-7.4627,-7.4707,-7.4627,-7.4627,-7.4707,-7.4386,-7.4106,-7.3947,-7.3982,-7.3982,-7.3788,-7.4112,-7.4351,-7.4507,-7.4682,-7.4913,-7.5031,-7.5484,-7.5687,-7.5757,-7.6084,-7.6272,-7.6301,-7.6265,-7.6165,-7.5956,-7.5844,-7.5906,-7.6199,-7.614,-7.5907,-7.5647,-7.5586,-7.5671,-7.5775,-7.6154,-7.6326,-7.6499,-7.6358,-7.653,-7.6744,-7.6815,-7.6725,-7.6907,-7.6368,-7.6041,-7.5892,-7.5209,-7.4688,-7.4589,-7.4439,-7.4389,-7.4221,-7.4221,-7.4221,-7.4221,-7.4221,-7.4221,-7.4221,-7.4221,-7.4221,-7.4221,-7.4221,-7.4221,-7.4221,-7.4221,-7.4221,-7.3961,-7.403,-7.3957,-7.4102,-7.4247,-7.4826,-7.5083,-7.5225,-7.5841,-7.6022,-7.5985,-7.613,-7.6022,-7.6167,-7.6061,-7.6169,-7.5993,-7.5612,-7.5263,-7.4974,-7.4973,-7.4565,-7.4049,-7.401,-7.401,-7.401,-7.401,-7.4045,-7.4115,-7.415,-7.4431,-7.4993,-7.5098,-7.5414,-7.6222,-7.6222,-7.6292,-7.6327,-7.6468,-7.6468,-7.6327,-7.6503,-7.6538,-7.6468,-7.6327,-7.6327,-7.6292,-7.6222,-7.6081,-7.6152,-7.6152,-7.6257,-7.6041,-7.5913,-7.5894,-7.5748,-7.5694,-7.5568,-7.5492,-7.5134,-7.515,-7.5394,-7.5231,-7.535,-7.5715,-7.6021,-7.6244,-7.639,-7.683,-7.7221,-7.716,-7.7468,-7.7565,-7.7181,-7.6768,-7.6876,-7.719,-7.744,-7.7144,-7.6139,-7.5464,-7.4972,-7.4938,-7.5257,-7.5464,-7.5627,-7.5928,-7.6307,-7.6489,-7.6823,-7.6884,-7.6725,-7.6495,-7.6356,-7.5994,-7.5662,-7.534,-7.5048,-7.4852,-7.4704,-7.4289,-7.4221,-7.4221,-7.4221,-7.4221,-7.4221,-7.4221,-7.4221,-7.4221,-7.4221,-7.4221,-7.4221,-7.4221,-7.4221,-7.4221,-7.5551,-7.5551,-7.5551,-7.5551,-7.5587,-7.5804,-7.5913,-7.5949,-7.6203,-7.6275,-7.6275,-7.6275,-7.6275,-7.6275,-7.6275,-7.6275,-7.6275,-7.614,-7.5725,-7.519,-7.5081,-7.4709,-7.4128,-7.401,-7.401,-7.401,-7.401,-7.4291,-7.4677,-7.4747,-7.5133,-7.58,-7.5906,-7.6046,-7.6362,-7.6784,-7.7064,-7.7135,-7.7626,-7.7872,-7.7872,-7.7837,-7.7837,-7.7872,-7.7872,-7.7872,-7.7837,-7.6854,-7.6327,-7.6327,-7.6292,-7.6292,-7.6292,-7.6251,-7.6211,-7.617,-7.6129,-7.6088,-7.6088,-7.5964,-7.5958,-7.6152,-7.6419,-7.6664,-7.6887,-7.7355,-7.7684,-7.7684,-7.7585,-7.7333,-7.7298,-7.7011,-7.7005,-7.7083,-7.7034,-7.6817,-7.6586,-7.6261,-7.5829,-7.5404,-7.5041,-7.511,-7.5568,-7.5671,-7.5775,-7.6189,-7.6558,-7.6775,-7.6878,-7.6982,-7.7144,-7.6998,-7.6771,-7.6633,-7.6507,-7.6275,-7.5947,-7.5532,-7.5243,-7.4803,-7.4389,-7.4221,-7.4221,-7.4221,-7.4221,-7.4221,-7.4221,-7.4221,-7.4221,-7.4221,-7.4221,-7.4221,-7.4221,-7.4221,-7.4221,-7.6275,-7.6275,-7.6275,-7.6275,-7.6275,-7.6275,-7.6275,-7.6275,-7.6275,-7.6275,-7.6275,-7.6275,-7.6275,-7.6275,-7.6275,-7.6275,-7.6275,-7.6275,-7.5829,-7.519,-7.5081,-7.4709,-7.4088,-7.401,-7.4185,-7.4361,-7.4396,-7.4782,-7.5484,-7.5555,-7.5941,-7.6608,-7.6713,-7.6889,-7.7135,-7.7591,-7.7837,-7.7942,-7.8293,-7.8574,-7.8574,-7.8574,-7.8574,-7.8574,-7.8574,-7.8574,-7.8504,-7.7626,-7.7135,-7.7135,-7.7135,-7.7135,-7.7135,-7.717,-7.7135,-7.7135,-7.7135,-7.717,-7.7135,-7.7199,-7.7135,-7.724,-7.7591,-7.7696,-7.7591,-7.7942,-7.8047,-7.7696,-7.7275,-7.6994,-7.6924,-7.6608,-7.6351,-7.6298,-7.6613,-7.6537,-7.5993,-7.5547,-7.5284,-7.5111,-7.499,-7.5188,-7.5499,-7.5706,-7.5844,-7.6282,-7.6592,-7.6809,-7.6878,-7.7006,-7.7109,-7.7178,-7.6998,-7.6998,-7.7133,-7.6907,-7.6541,-7.6088,-7.558,-7.4984,-7.4423,-7.4272,-7.4221,-7.4221,-7.4221,-7.4221,-7.4221,-7.4221,-7.4221,-7.4221,-7.4221,-7.4221,-7.4221,-7.4221,-7.4221,-7.6275,-7.6275,-7.6275,-7.6275,-7.6275,-7.6275,-7.6275,-7.6275,-7.6275,-7.6275,-7.6275,-7.6275,-7.6275,-7.6275,-7.6275,-7.6275,-7.6275,-7.6275,-7.5934,-7.5371,-7.5261,-7.4999,-7.4382,-7.4303,-7.4616,-7.5098,-7.5168,-7.559,-7.6327,-7.6362,-7.6713,-7.7415,-7.7521,-7.7802,-7.8258,-7.8539,-7.8469,-7.8469,-7.8539,-7.8574,-7.8574,-7.8574,-7.8574,-7.8574,-7.8574,-7.8574,-7.8539,-7.8399,-7.8434,-7.8539,-7.8363,-7.8328,-7.8504,-7.8574,-7.8434,-7.8363,-7.8539,-7.8434,-7.8504,-7.8153,-7.8188,-7.8153,-7.8047,-7.8188,-7.7415,-7.7415,-7.738,-7.6819,-7.6643,-7.6503,-7.6503,-7.6327,-7.6046,-7.5449,-7.586,-7.5989,-7.5888,-7.5512,-7.5335,-7.5249,-7.5077,-7.4981,-7.5154,-7.5223,-7.5214,-7.5489,-7.6006,-7.6395,-7.6533,-7.6913,-7.7154,-7.7178,-7.7088,-7.7133,-7.7178,-7.7133,-7.6816,-7.6356,-7.5899,-7.5325,-7.4589,-7.4339,-7.4221,-7.4221,-7.4221,-7.4221,-7.4221,-7.4221,-7.4221,-7.4221,-7.4221,-7.4221,-7.4221,-7.4221,-7.4221,-7.6275,-7.6275,-7.6275,-7.6275,-7.6275,-7.6275,-7.6275,-7.6275,-7.6275,-7.6275,-7.6275,-7.6275,-7.6275,-7.6275,-7.6311,-7.6275,-7.6348,-7.6348,-7.6072,-7.5727,-7.6195,-7.5974,-7.5407,-7.525,-7.5481,-7.5911,-7.5976,-7.6362,-7.7064,-7.7135,-7.7521,-7.8258,-7.8223,-7.8328,-7.8574,-7.8574,-7.8574,-7.8574,-7.8574,-7.8574,-7.8574,-7.8574,-7.8574,-7.8574,-7.8574,-7.8574,-7.8574,-7.8574,-7.8574,-7.8574,-7.8574,-7.8574,-7.8574,-7.8539,-7.8539,-7.8574,-7.8539,-7.8574,-7.8469,-7.8083,-7.7802,-7.7661,-7.7486,-7.6819,-7.6643,-7.7135,-7.7275,-7.7135,-7.7135,-7.7064,-7.7029,-7.6608,-7.6187,-7.5976,-7.5714,-7.5516,-7.5659,-7.5596,-7.5504,-7.5335,-7.5284,-7.5509,-7.5811,-7.5897,-7.5982,-7.6351,-7.6627,-7.6844,-7.6878,-7.6947,-7.7223,-7.7223,-7.7178,-7.7178,-7.7178,-7.7178,-7.6998,-7.6587,-7.6182,-7.5805,-7.5033,-7.4439,-7.4289,-7.4221,-7.4221,-7.4221,-7.4221,-7.4221,-7.4221,-7.4221,-7.4221,-7.4221,-7.4221,-7.4221,-7.4221,-7.6275,-7.6275,-7.6275,-7.6275,-7.6275,-7.6275,-7.6275,-7.6275,-7.6275,-7.6275,-7.6275,-7.6275,-7.6275,-7.6311,-7.6637,-7.6782,-7.6818,-7.7144,-7.7083,-7.6804,-7.7092,-7.6833,-7.6302,-7.6066,-7.6252,-7.6719,-7.6784,-7.7205,-7.7802,-7.7907,-7.8188,-7.8469,-7.8574,-7.8574,-7.8574,-7.8574,-7.8574,-7.8574,-7.8574,-7.8574,-7.8574,-7.8574,-7.8574,-7.8504,-7.8328,-7.8083,-7.8118,-7.8399,-7.8574,-7.8574,-7.8574,-7.8574,-7.8539,-7.8258,-7.8258,-7.8504,-7.8293,-7.8188,-7.8469,-7.8118,-7.7942,-7.7872,-7.7451,-7.7135,-7.6959,-7.7205,-7.7339,-7.6959,-7.6959,-7.6959,-7.6889,-7.6538,-7.6503,-7.6643,-7.624,-7.5907,-7.5923,-7.6119,-7.6168,-7.6145,-7.6218,-7.6401,-7.6851,-7.6701,-7.6775,-7.7006,-7.7041,-7.7154,-7.7189,-7.7223,-7.7223,-7.7223,-7.7223,-7.7223,-7.7223,-7.7223,-7.7282,-7.6919,-7.6445,-7.6048,-7.5624,-7.4855,-7.4406,-7.4338,-7.4255,-7.4288,-7.4337,-7.4337,-7.4221,-7.4221,-7.4221,-7.4288,-7.4321,-7.4469,-7.4436,-7.6275,-7.6275,-7.6275,-7.6348,-7.642,-7.642,-7.6601,-7.6601,-7.671,-7.6674,-7.6674,-7.6601,-7.6782,-7.6565,-7.7362,-7.7615,-7.7651,-7.8159,-7.8348,-7.8135,-7.7988,-7.7613,-7.7366,-7.6874,-7.7057,-7.7492,-7.7556,-7.7907,-7.8328,-7.8504,-7.8539,-7.8574,-7.8574,-7.8574,-7.8574,-7.8574,-7.8574,-7.8574,-7.8574,-7.8574,-7.8574,-7.8574,-7.8574,-7.8504,-7.8083,-7.7802,-7.7907,-7.8223,-7.8574,-7.8574,-7.8574,-7.8574,-7.8504,-7.7907,-7.7942,-7.8363,-7.8118,-7.8012,-7.8399,-7.8399,-7.8363,-7.8223,-7.8188,-7.8083,-7.7345,-7.724,-7.7205,-7.6748,-7.6503,-7.6819,-7.6854,-7.6643,-7.6959,-7.7415,-7.7444,-7.717,-7.6813,-7.6928,-7.7258,-7.7216,-7.7502,-7.7597,-7.7535,-7.7402,-7.7178,-7.7109,-7.7223,-7.7223,-7.7223,-7.7223,-7.7223,-7.7223,-7.7223,-7.7223,-7.7223,-7.7223,-7.7316,-7.7284,-7.679,-7.6354,-7.6222,-7.5603,-7.4872,-7.4605,-7.5071,-7.507,-7.48,-7.4668,-7.4535,-7.4635,-7.4966,-7.4767,-7.4535,-7.49,-7.4999,-7.6275,-7.6275,-7.6275,-7.6674,-7.7181,-7.7253,-7.7579,-7.8122,-7.8159,-7.805,-7.8159,-7.8159,-7.8122,-7.8122,-7.8303,-7.8448,-7.8448,-7.8738,-7.8852,-7.9216,-7.8736,-7.8752,-7.8658,-7.8217,-7.8075,-7.8277,-7.8328,-7.8434,-7.8574,-7.8574,-7.8574,-7.8574,-7.8574,-7.8574,-7.8574,-7.8574,-7.8574,-7.8574,-7.8574,-7.8574,-7.8574,-7.8574,-7.8539,-7.8504,-7.8363,-7.8328,-7.8328,-7.8504,-7.8574,-7.8574,-7.8574,-7.8574,-7.8539,-7.8363,-7.8328,-7.8434,-7.8434,-7.8363,-7.8469,-7.8118,-7.7696,-7.7802,-7.7451,-7.6713,-7.6643,-7.7205,-7.7345,-7.731,-7.7696,-7.7907,-7.7907,-7.8047,-7.8047,-7.8153,-7.8223,-7.8188,-7.8153,-7.8146,-7.8091,-7.8027,-7.784,-7.7807,-7.7798,-7.7446,-7.7268,-7.7223,-7.7223,-7.7223,-7.7223,-7.7223,-7.7223,-7.7223,-7.7223,-7.7292,-7.7568,-7.7627,-7.7857,-7.7835,-7.7362,-7.7101,-7.6888,-7.662,-7.6073,-7.6024,-7.6258,-7.6022,-7.5499,-7.5595,-7.5562,-7.5695,-7.5728,-7.5562,-7.5463,-7.5595,-7.5529,-7.7434,-7.7434,-7.7398,-7.7688,-7.8014,-7.805,-7.8303,-7.8666,-7.8702,-7.8702,-7.8702,-7.8702,-7.8702,-7.8738,-7.9064,-7.9245,-7.939,-7.968,-7.9971,-8.019,-7.9861,-7.9777,-7.9724,-7.9273,-7.8837,-7.8622,-7.8574,-7.8574,-7.8574,-7.8574,-7.8574,-7.8574,-7.8574,-7.8574,-7.8574,-7.8574,-7.8574,-7.8574,-7.8574,-7.8574,-7.8574,-7.8574,-7.8328,-7.8223,-7.8328,-7.8469,-7.8047,-7.8399,-7.8539,-7.8574,-7.8574,-7.8574,-7.8469,-7.8258,-7.8223,-7.8504,-7.8188,-7.8293,-7.8293,-7.8258,-7.8012,-7.7942,-7.7556,-7.7451,-7.7415,-7.7767,-7.7907,-7.8047,-7.8293,-7.8574,-7.8574,-7.8539,-7.8574,-7.8574,-7.8574,-7.8574,-7.8574,-7.8574,-7.8574,-7.8399,-7.8109,-7.7937,-7.7798,-7.749,-7.7313,-7.7223,-7.7223,-7.7223,-7.7223,-7.7223,-7.7223,-7.7223,-7.7223,-7.7396,-7.7844,-7.8098,-7.8454,-7.8453,-7.8195,-7.804,-7.8034,-7.772,-7.7362,-7.7246,-7.7095,-7.664,-7.6233,-7.6395,-7.6424,-7.6192,-7.6125,-7.6258,-7.6291,-7.6159,-7.6026,-7.8702,-7.8702,-7.8702,-7.8774,-7.8883,-7.8883,-7.8992,-7.9136,-7.9064,-7.9281,-7.91,-7.9064,-7.9318,-7.9281,-7.9788,-8.0078,-8.0259,-8.0586,-8.0912,-8.0804,-8.0586,-8.04,-8.0209,-7.9637,-7.9125,-7.8741,-7.8616,-7.8574,-7.8574,-7.8574,-7.8574,-7.8574,-7.8574,-7.8574,-7.8574,-7.8574,-7.8574,-7.8574,-7.8574,-7.8574,-7.8574,-7.8574,-7.8293,-7.8047,-7.8258,-7.8328,-7.8047,-7.8293,-7.8574,-7.8574,-7.8574,-7.8574,-7.8434,-7.8083,-7.7837,-7.8539,-7.8083,-7.8118,-7.8469,-7.8539,-7.8504,-7.8574,-7.8539,-7.8504,-7.8504,-7.8434,-7.8434,-7.8469,-7.8574,-7.8574,-7.8574,-7.8574,-7.8574,-7.8574,-7.8574,-7.8574,-7.8574,-7.8574,-7.8574,-7.8532,-7.8194,-7.7971,-7.7841,-7.7667,-7.7446,-7.7268,-7.7303,-7.7327,-7.7361,-7.7465,-7.7603,-7.7913,-7.8085,-7.8154,-7.8534,-7.8741,-7.9051,-7.9256,-7.9076,-7.9118,-7.9139,-7.9143,-7.8788,-7.7934,-7.7581,-7.7291,-7.7115,-7.7139,-7.702,-7.6655,-7.6755,-7.7152,-7.702,-7.6722,-7.6622,-7.8702,-7.8702,-7.8702,-7.91,-7.968,-7.9716,-8.0042,-8.0658,-8.0585,-8.0694,-8.0621,-8.0658,-8.0585,-8.0694,-8.0766,-8.0875,-8.0875,-8.1056,-8.1057,-8.0912,-8.0693,-8.0508,-8.0245,-7.9747,-7.9276,-7.9034,-7.8823,-7.8616,-7.8574,-7.8574,-7.8574,-7.8574,-7.8574,-7.8574,-7.8574,-7.8574,-7.8574,-7.8574,-7.8574,-7.8574,-7.8574,-7.8574,-7.8539,-7.8258,-7.8504,-7.8469,-7.8399,-7.8469,-7.8574,-7.8574,-7.8574,-7.8574,-7.8539,-7.8399,-7.8434,-7.8469,-7.8399,-7.8363,-7.8539,-7.8574,-7.8574,-7.8574,-7.8574,-7.8574,-7.8574,-7.8574,-7.8574,-7.8574,-7.8574,-7.8574,-7.8574,-7.8574,-7.8574,-7.8574,-7.8574,-7.8574,-7.8574,-7.8574,-7.8644,-7.8708,-7.8342,-7.7971,-7.7963,-7.7937,-7.7856,-7.7827,-7.793,-7.8038,-7.8189,-7.8292,-7.8465,-7.881,-7.9189,-7.9224,-7.9327,-7.9465,-7.9695,-8.0165,-8.0218,-8.0268,-8.0344,-8.0609,-8.0183,-7.8943,-7.8435,-7.8393,-7.8231,-7.7934,-7.7848,-7.7616,-7.7848,-7.808,-7.7815,-7.755,-7.7484,-7.9933,-7.9933,-7.9933,-8.0187,-8.0476,-8.0549,-8.0766,-8.1056,-8.1092,-8.1092,-8.1092,-8.1092,-8.1092,-8.1092,-8.1092,-8.1092,-8.1092,-8.1092,-8.1021,-8.0912,-8.0876,-8.0693,-8.0471,-7.9941,-7.9629,-7.9316,-7.8952,-7.8699,-7.8616,-7.8574,-7.8574,-7.8574,-7.8574,-7.8574,-7.8574,-7.8574,-7.8574,-7.8574,-7.8574,-7.8574,-7.8574,-7.8574,-7.8574,-7.8574,-7.8574,-7.8574,-7.8574,-7.8574,-7.8574,-7.8574,-7.8574,-7.8574,-7.8574,-7.8574,-7.8574,-7.8574,-7.8574,-7.8574,-7.8574,-7.8574,-7.8574,-7.8574,-7.8574,-7.8574,-7.8574,-7.8574,-7.8574,-7.8574,-7.8574,-7.8574,-7.8574,-7.8574,-7.8574,-7.8574,-7.8574,-7.8574,-7.8609,-7.8609,-7.882,-7.903,-7.8672,-7.8396,-7.8291,-7.8293,-7.831,-7.8351,-7.8559,-7.876,-7.8959,-7.9132,-7.9235,-7.9534,-7.9913,-8.0086,-8.0155,-8.0327,-8.0362,-8.081,-8.0932,-8.0981,-8.0746,-8.0656,-8.0224,-7.9313,-7.9187,-7.9008,-7.871,-7.8246,-7.8411,-7.8511,-7.8411,-7.8312,-7.8411,-7.8411,-7.8212,-8.1092,-8.1092,-8.1092,-8.1092,-8.1092,-8.1092,-8.1092,-8.1092,-8.1092,-8.1092,-8.1092,-8.1092,-8.1092,-8.1092,-8.1092,-8.1092,-8.1092,-8.1092,-8.1056,-8.1056,-8.1093,-8.0985,-8.073,-8.0396,-7.9902,-7.9436,-7.9074,-7.8823,-7.8616,-7.8574,-7.8574,-7.8574,-7.8574,-7.8574,-7.8574,-7.8574,-7.8574,-7.8574,-7.8574,-7.8574,-7.8574,-7.8574,-7.8574,-7.8574,-7.8574,-7.8574,-7.8574,-7.8574,-7.8574,-7.8574,-7.8574,-7.8574,-7.8574,-7.8574,-7.8574,-7.8574,-7.8574,-7.8574,-7.8574,-7.8574,-7.8574,-7.8574,-7.8574,-7.8574,-7.8574,-7.8574,-7.8574,-7.8574,-7.8574,-7.8574,-7.8574,-7.8574,-7.8574,-7.8574,-7.8574,-7.8644,-7.8855,-7.9066,-7.9382,-7.9409,-7.8994,-7.9056,-7.9266,-7.9129,-7.9295,-7.9188,-7.9352,-7.9633,-7.9798,-7.9891,-8.0018,-8.0282,-8.0581,-8.0776,-8.0983,-8.1224,-8.1224,-8.1362,-8.1215,-8.1029,-8.0672,-8.0292,-7.9718,-7.9187,-7.9046,-7.883,-7.8617,-7.8511,-7.8511,-7.8511,-7.8511,-7.8511,-7.8511,-7.8511,-7.8411,-8.1092,-8.1092,-8.1092,-8.1092,-8.1092,-8.1092,-8.1092,-8.1092,-8.1092,-8.1092,-8.1092,-8.1092,-8.1092,-8.1092,-8.1092,-8.1092,-8.1092,-8.1092,-8.1092,-8.1092,-8.1056,-8.1021,-8.0767,-8.0396,-7.998,-7.959,-7.9115,-7.8823,-7.8699,-7.8657,-7.8616,-7.8616,-7.8657,-7.8616,-7.8616,-7.8657,-7.8574,-7.8574,-7.8574,-7.8574,-7.8574,-7.8574,-7.8574,-7.8574,-7.8574,-7.8574,-7.8574,-7.8574,-7.8574,-7.8574,-7.8574,-7.8574,-7.8574,-7.8574,-7.8574,-7.8574,-7.8574,-7.8574,-7.8574,-7.8574,-7.8574,-7.8574,-7.8574,-7.8574,-7.8574,-7.8574,-7.8574,-7.8574,-7.8574,-7.8574,-7.8574,-7.8574,-7.8574,-7.8679,-7.875,-7.9136,-7.9417,-7.9662,-7.9978,-8.0435,-8.0314,-8.0489,-8.0665,-8.0491,-8.0351,-8.021,-8.0136,-8.0498,-8.0673,-8.072,-8.0813,-8.1031,-8.1111,-8.1259,-8.1233,-8.1543,-8.1564,-8.1681,-8.1297,-8.0872,-8.0376,-7.9836,-7.9321,-7.8869,-7.8777,-7.8724,-7.8564,-7.8511,-7.8511,-7.8511,-7.8511,-7.8511,-7.8511,-7.8511,-7.8511,-8.1092,-8.1092,-8.1092,-8.1092,-8.1092,-8.1092,-8.1092,-8.1092,-8.1092,-8.1092,-8.1092,-8.1092,-8.1092,-8.1092,-8.1092,-8.1092,-8.1092,-8.1092,-8.1092,-8.1092,-8.1056,-8.0985,-8.0803,-8.0508,-8.0169,-7.9743,-7.9431,-7.9191,-7.8987,-7.8823,-7.8823,-7.8906,-7.8906,-7.8906,-7.8782,-7.8782,-7.8699,-7.8616,-7.8574,-7.8574,-7.8574,-7.8574,-7.8574,-7.8574,-7.8574,-7.8574,-7.8574,-7.8574,-7.8574,-7.8574,-7.8574,-7.8574,-7.8574,-7.8574,-7.8574,-7.8574,-7.8574,-7.8574,-7.8574,-7.8574,-7.8574,-7.8574,-7.8574,-7.8574,-7.8574,-7.8574,-7.8574,-7.8574,-7.8574,-7.8574,-7.8609,-7.8574,-7.889,-7.9066,-7.9241,-7.9768,-8.0189,-8.0365,-8.0646,-8.1137,-8.1593,-8.1699,-8.1734,-8.1577,-8.1331,-8.1189,-8.1265,-8.1628,-8.1689,-8.1644,-8.1736,-8.1829,-8.1745,-8.1672,-8.1495,-8.1503,-8.1311,-8.1248,-8.074,-8.0342,-7.9836,-7.9321,-7.8955,-7.8724,-7.8617,-7.8564,-7.8511,-7.8511,-7.8511,-7.8511,-7.8511,-7.8511,-7.8511,-7.8511,-7.8511,-8.1092,-8.1092,-8.1092,-8.1092,-8.1092,-8.1092,-8.1092,-8.1092,-8.1092,-8.1092,-8.1092,-8.1092,-8.1092,-8.1092,-8.1092,-8.1092,-8.1092,-8.1092,-8.1092,-8.1092,-8.1056,-8.0948,-8.0803,-8.0582,-8.032,-7.9899,-7.9704,-7.9507,-7.9347,-7.915,-7.915,-7.9191,-7.915,-7.9069,-7.8911,-7.8829,-7.8782,-7.8616,-7.8574,-7.8574,-7.8574,-7.8574,-7.8574,-7.8574,-7.8574,-7.8574,-7.8574,-7.8574,-7.8574,-7.8574,-7.8574,-7.8574,-7.8574,-7.8574,-7.8574,-7.8574,-7.8574,-7.8574,-7.8574,-7.8574,-7.8574,-7.8574,-7.8574,-7.8574,-7.8574,-7.8574,-7.8574,-7.8574,-7.8574,-7.8679,-7.882,-7.8925,-7.9346,-7.9768,-8.0049,-8.0575,-8.0997,-8.1172,-8.1488,-8.205,-8.2401,-8.2577,-8.2577,-8.2471,-8.2304,-8.2127,-8.2352,-8.2691,-8.2625,-8.2396,-8.235,-8.235,-8.2164,-8.2059,-8.1918,-8.1646,-8.1311,-8.0872,-8.0392,-7.9938,-7.9528,-7.9165,-7.8797,-7.8617,-7.8511,-7.8511,-7.8511,-7.8511,-7.8511,-7.8511,-7.8511,-7.8511,-7.8511,-7.8511,-7.8511,-8.1092,-8.1092,-8.1092,-8.1092,-8.1092,-8.1092,-8.1092,-8.1092,-8.1092,-8.1092,-8.1092,-8.1092,-8.1092,-8.1092,-8.1092,-8.1092,-8.1092,-8.1092,-8.1092,-8.1092,-8.1056,-8.1021,-8.084,-8.0693,-8.0471,-8.0015,-7.9899,-7.9743,-7.9621,-7.9507,-7.9387,-7.9231,-7.9311,-7.915,-7.8987,-7.8947,-7.8823,-7.8616,-7.8574,-7.8574,-7.8574,-7.8574,-7.8574,-7.8574,-7.8574,-7.8574,-7.8574,-7.8574,-7.8574,-7.8574,-7.8574,-7.8574,-7.8574,-7.8574,-7.8574,-7.8574,-7.8574,-7.8574,-7.8574,-7.8574,-7.8574,-7.8574,-7.8574,-7.8574,-7.8574,-7.8609,-7.8609,-7.875,-7.8925,-7.9171,-7.9487,-7.9803,-8.0084,-8.054,-8.0926,-8.1313,-8.1699,-8.1945,-8.2296,-8.2892,-8.3103,-8.3068,-8.3033,-8.2892,-8.2813,-8.2601,-8.2591,-8.2896,-8.2931,-8.2716,-8.2716,-8.267,-8.2533,-8.2396,-8.235,-8.2024,-8.1421,-8.0936,-8.0442,-7.9938,-7.9373,-7.906,-7.885,-7.8617,-7.8511,-7.8511,-7.8511,-7.8511,-7.8511,-7.8511,-7.8511,-7.8511,-7.8511,-7.8511,-7.8511,-8.1092,-8.1092,-8.1092,-8.1092,-8.1092,-8.1092,-8.1092,-8.1092,-8.1092,-8.1092,-8.1092,-8.1092,-8.1092,-8.1092,-8.1092,-8.1092,-8.1092,-8.1092,-8.1092,-8.1092,-8.1056,-8.1057,-8.0948,-8.0803,-8.0582,-8.0283,-8.013,-7.9977,-7.9783,-7.9743,-7.9743,-7.9665,-7.955,-7.9507,-7.9387,-7.9028,-7.8823,-7.8657,-7.8574,-7.8574,-7.8574,-7.8574,-7.8574,-7.8574,-7.8574,-7.8574,-7.8574,-7.8574,-7.8574,-7.8609,-7.8644,-7.8715,-7.875,-7.8715,-7.8715,-7.8715,-7.875,-7.8715,-7.8679,-7.8644,-7.8574,-7.8574,-7.8574,-7.8609,-7.8715,-7.8995,-7.9276,-7.9452,-7.9698,-8.0049,-8.033,-8.0505,-8.0751,-8.1348,-8.1804,-8.2085,-8.2331,-8.2541,-8.2682,-8.3103,-8.3173,-8.3173,-8.3173,-8.3173,-8.3129,-8.3085,-8.3075,-8.3075,-8.3066,-8.3021,-8.2976,-8.2896,-8.2761,-8.2625,-8.2579,-8.2083,-8.1482,-8.1,-8.0492,-7.9887,-7.9321,-7.9269,-7.906,-7.8777,-7.8511,-7.8511,-7.8511,-7.8511,-7.8511,-7.8511,-7.8511,-7.8511,-7.8511,-7.8511,-7.8511,-8.1092,-8.1092,-8.1092,-8.1092,-8.1092,-8.1092,-8.1092,-8.1092,-8.1092,-8.1092,-8.1092,-8.1092,-8.1092,-8.1092,-8.1092,-8.1092,-8.1092,-8.1092,-8.1092,-8.1092,-8.1092,-8.1092,-8.1021,-8.0985,-8.0803,-8.0582,-8.0396,-8.0169,-7.9977,-7.9938,-7.9861,-7.9861,-7.9861,-7.9743,-7.9507,-7.915,-7.8788,-7.8699,-7.8616,-7.8574,-7.8574,-7.8574,-7.8574,-7.8574,-7.8574,-7.882,-7.8925,-7.9066,-7.9206,-7.9346,-7.9417,-7.9346,-7.9311,-7.9276,-7.9276,-7.9276,-7.9241,-7.9241,-7.9206,-7.8785,-7.8644,-7.8574,-7.8925,-7.896,-7.9136,-7.9662,-8.0084,-8.0154,-8.061,-8.0997,-8.1137,-8.1277,-8.1629,-8.219,-8.2366,-8.2647,-8.2822,-8.2998,-8.3033,-8.3208,-8.3208,-8.3208,-8.3208,-8.3208,-8.3208,-8.3164,-8.3164,-8.312,-8.312,-8.3075,-8.3031,-8.2986,-8.2896,-8.2806,-8.2716,-8.2176,-8.1625,-8.0951,-8.0408,-7.9734,-7.9269,-7.9269,-7.906,-7.8671,-7.8511,-7.8511,-7.8511,-7.8511,-7.8511,-7.8511,-7.8511,-7.8511,-7.8511,-7.8511,-7.8511,-8.1092,-8.1092,-8.1092,-8.1092,-8.1092,-8.1092,-8.1092,-8.1092,-8.1092,-8.1092,-8.1092,-8.1092,-8.1092,-8.1092,-8.1092,-8.1092,-8.1092,-8.1092,-8.1092,-8.1092,-8.1092,-8.1092,-8.1056,-8.1021,-8.0948,-8.0767,-8.0545,-8.032,-8.0169,-7.9977,-7.9899,-7.9899,-7.9861,-7.9783,-7.9582,-7.915,-7.8911,-7.8864,-7.8699,-7.8616,-7.8574,-7.8574,-7.8574,-7.8785,-7.8785,-7.9101,-7.9627,-7.9768,-7.9978,-8.0294,-8.0435,-8.0435,-8.047,-8.0505,-8.054,-8.0575,-8.0646,-8.0716,-8.0716,-7.9417,-7.896,-7.8995,-7.9522,-7.9733,-7.9908,-8.04,-8.0891,-8.0926,-8.1172,-8.1488,-8.1769,-8.2085,-8.2506,-8.2752,-8.2892,-8.2998,-8.3138,-8.3208,-8.3208,-8.3208,-8.3208,-8.3208,-8.3208,-8.3208,-8.3208,-8.3208,-8.3208,-8.3208,-8.3208,-8.3164,-8.312,-8.3075,-8.3031,-8.3031,-8.2816,-8.2361,-8.1767,-8.1048,-8.0408,-7.9803,-7.9269,-7.9008,-7.883,-7.8564,-7.8511,-7.8511,-7.8511,-7.8511,-7.8511,-7.8511,-7.8511,-7.8511,-7.8511,-7.8511,-7.8511,-8.1092,-8.1092,-8.1092,-8.1092,-8.1092,-8.1092,-8.1092,-8.1092,-8.1092,-8.1092,-8.1092,-8.1092,-8.1092,-8.1092,-8.1092,-8.1092,-8.1092,-8.1092,-8.1092,-8.1092,-8.1092,-8.1092,-8.1092,-8.1056,-8.0985,-8.0803,-8.0582,-8.0396,-8.0169,-7.9977,-7.9899,-7.9899,-7.9861,-7.9783,-7.9546,-7.9231,-7.9069,-7.8906,-7.8699,-7.8574,-7.8574,-7.8609,-7.8855,-7.9311,-7.9346,-7.9768,-8.047,-8.054,-8.0751,-8.1067,-8.1137,-8.1102,-8.1067,-8.1067,-8.1032,-8.0961,-8.0961,-8.0926,-8.0891,-8.033,-8.0189,-8.0259,-8.033,-8.054,-8.061,-8.1277,-8.1593,-8.1804,-8.205,-8.2401,-8.2787,-8.2822,-8.3033,-8.3033,-8.3138,-8.3138,-8.3208,-8.3208,-8.3208,-8.3208,-8.3208,-8.3208,-8.3208,-8.3208,-8.3208,-8.3208,-8.3208,-8.3208,-8.3208,-8.3208,-8.3164,-8.3164,-8.3164,-8.3164,-8.2996,-8.2498,-8.2036,-8.1386,-8.0706,-8.0057,-7.9528,-7.9008,-7.883,-7.8724,-7.8564,-7.8511,-7.8511,-7.8564,-7.8511,-7.8511,-7.8511,-7.8511,-7.8511,-7.8511,-7.8511,-8.1092,-8.1092,-8.1092,-8.1092,-8.1092,-8.1092,-8.1092,-8.1092,-8.1092,-8.1092,-8.1092,-8.1092,-8.1092,-8.1092,-8.1092,-8.1092,-8.1092,-8.1092,-8.1092,-8.1092,-8.1092,-8.1092,-8.1092,-8.1056,-8.0948,-8.0803,-8.0582,-8.0396,-8.0207,-7.9977,-7.9899,-7.9899,-7.9899,-7.9822,-7.9625,-7.9427,-7.915,-7.8987,-7.8782,-7.8574,-7.8679,-7.889,-7.9276,-7.9698,-8.0084,-8.054,-8.1102,-8.1348,-8.1453,-8.1558,-8.1664,-8.1664,-8.1664,-8.1664,-8.1699,-8.1699,-8.1699,-8.1734,-8.1769,-8.1769,-8.1699,-8.1734,-8.1523,-8.1348,-8.1453,-8.205,-8.2331,-8.2647,-8.2998,-8.3103,-8.3173,-8.3208,-8.3208,-8.3208,-8.3208,-8.3208,-8.3208,-8.3208,-8.3208,-8.3208,-8.3208,-8.3208,-8.3208,-8.3208,-8.3208,-8.3208,-8.3208,-8.3208,-8.3208,-8.3208,-8.3208,-8.3208,-8.3208,-8.3208,-8.3031,-8.267,-8.2176,-8.1625,-8.0902,-8.0141,-7.9717,-7.9146,-7.9041,-7.8916,-7.8949,-7.893,-7.8724,-7.8671,-7.8684,-7.863,-7.8511,-7.8511,-7.8511,-7.8511,-7.8511,-8.1092,-8.1092,-8.1092,-8.1092,-8.1092,-8.1092,-8.1092,-8.1092,-8.1092,-8.1092,-8.1092,-8.1092,-8.1092,-8.1092,-8.1092,-8.1092,-8.1092,-8.1092,-8.1092,-8.1092,-8.1092,-8.1092,-8.1092,-8.1056,-8.0985,-8.0803,-8.0619,-8.0471,-8.0207,-7.9977,-7.9899,-7.9899,-7.9899,-7.9861,-7.9743,-7.9507,-7.9271,-7.915,-7.8864,-7.8805,-7.8974,-7.9389,-7.9803,-8.0259,-8.0716,-8.1348,-8.1839,-8.212,-8.2436,-8.2717,-8.3033,-8.3068,-8.3103,-8.3173,-8.3173,-8.3138,-8.3033,-8.2963,-8.2892,-8.2822,-8.2892,-8.2682,-8.2401,-8.2225,-8.2261,-8.2647,-8.2857,-8.2963,-8.3138,-8.3173,-8.3208,-8.3208,-8.3208,-8.3208,-8.3208,-8.3208,-8.3208,-8.3208,-8.3208,-8.3208,-8.3208,-8.3208,-8.3208,-8.3208,-8.3208,-8.3208,-8.3208,-8.3208,-8.3208,-8.3208,-8.3208,-8.3208,-8.3208,-8.3164,-8.2941,-8.2453,-8.1861,-8.1242,-8.0656,-7.9989,-7.9614,-7.9522,-7.9585,-7.9566,-7.957,-7.9499,-7.9515,-7.9276,-7.8923,-7.8837,-7.8709,-7.8511,-7.8511,-7.8511,-7.8511,-8.1092,-8.1092,-8.1092,-8.1092,-8.1092,-8.1092,-8.1092,-8.1092,-8.1092,-8.1092,-8.1092,-8.1092,-8.1092,-8.1092,-8.1092,-8.1092,-8.1092,-8.1092,-8.1092,-8.1092,-8.1092,-8.1092,-8.1092,-8.1056,-8.1021,-8.0948,-8.0767,-8.0582,-8.0358,-8.0092,-7.9899,-7.9899,-7.9899,-7.9899,-7.9783,-7.9625,-7.9546,-7.9422,-7.9064,-7.9217,-7.9479,-7.9852,-8.0407,-8.1102,-8.1523,-8.2155,-8.2577,-8.2787,-8.3033,-8.3103,-8.3208,-8.3208,-8.3208,-8.3208,-8.3208,-8.3208,-8.3173,-8.3173,-8.3208,-8.3208,-8.3208,-8.3208,-8.2928,-8.2928,-8.2963,-8.3033,-8.3208,-8.3208,-8.3208,-8.3208,-8.3208,-8.3208,-8.3208,-8.3208,-8.3208,-8.3208,-8.3208,-8.3208,-8.3208,-8.3208,-8.3208,-8.3208,-8.3208,-8.3208,-8.3208,-8.3208,-8.3208,-8.3164,-8.3164,-8.3164,-8.3075,-8.3075,-8.3031,-8.2986,-8.2498,-8.2036,-8.1434,-8.0804,-8.0444,-8.0175,-8.0035,-7.9995,-8.0144,-8.0278,-8.0483,-8.0574,-8.0621,-8.0235,-7.9788,-7.9235,-7.9041,-7.8742,-7.8511,-7.8544,-7.8544,-8.1092,-8.1092,-8.1092,-8.1092,-8.1092,-8.1092,-8.1092,-8.1092,-8.1092,-8.1092,-8.1092,-8.1092,-8.1092,-8.1092,-8.1092,-8.1092,-8.1092,-8.1092,-8.1092,-8.1092,-8.1092,-8.1092,-8.1092,-8.1056,-8.1057,-8.0985,-8.084,-8.0619,-8.0396,-8.0092,-7.9899,-7.9899,-7.9899,-7.9899,-7.9861,-7.9783,-7.9704,-7.9688,-7.9666,-7.9811,-8.0104,-8.0542,-8.1442,-8.1953,-8.2296,-8.2787,-8.3103,-8.3173,-8.3208,-8.3208,-8.3208,-8.3208,-8.3208,-8.3208,-8.3208,-8.3208,-8.3208,-8.3208,-8.3208,-8.3208,-8.3208,-8.3208,-8.3208,-8.3173,-8.3138,-8.3173,-8.3208,-8.3208,-8.3208,-8.3208,-8.3208,-8.3208,-8.3208,-8.3208,-8.3208,-8.3208,-8.3208,-8.3208,-8.3208,-8.3208,-8.3208,-8.3208,-8.3208,-8.3208,-8.3208,-8.3208,-8.312,-8.3031,-8.3075,-8.3075,-8.2941,-8.2851,-8.2806,-8.2681,-8.2211,-8.1879,-8.1571,-8.1183,-8.0919,-8.0698,-8.0524,-8.0774,-8.1249,-8.1451,-8.1566,-8.159,-8.1545,-8.1243,-8.0755,-8.0235,-7.97,-7.9421,-7.9069,-7.8676,-7.8643,-8.1092,-8.1092,-8.1092,-8.1092,-8.1092,-8.1092,-8.1092,-8.1092,-8.1092,-8.1092,-8.1092,-8.1092,-8.1092,-8.1092,-8.1092,-8.1092,-8.1092,-8.1092,-8.1092,-8.1092,-8.1092,-8.1092,-8.1092,-8.1056,-8.1057,-8.0876,-8.0767,-8.0693,-8.0283,-8.0015,-7.9899,-7.9899,-7.9899,-7.9899,-7.9861,-7.9861,-7.9929,-8.021,-8.0399,-8.0612,-8.0759,-8.1444,-8.238,-8.2339,-8.2717,-8.3173,-8.3208,-8.3208,-8.3208,-8.3208,-8.3208,-8.3208,-8.3208,-8.3208,-8.3208,-8.3208,-8.3208,-8.3208,-8.3208,-8.3208,-8.3208,-8.3208,-8.3208,-8.3208,-8.3208,-8.3208,-8.3208,-8.3208,-8.3208,-8.3208,-8.3208,-8.3208,-8.3208,-8.3208,-8.3208,-8.3208,-8.3208,-8.3208,-8.3208,-8.3208,-8.3208,-8.3208,-8.3164,-8.312,-8.2941,-8.3031,-8.2861,-8.2681,-8.282,-8.2901,-8.281,-8.2616,-8.2674,-8.2604,-8.2203,-8.1943,-8.1889,-8.1628,-8.1444,-8.1494,-8.1491,-8.1914,-8.2457,-8.2657,-8.2821,-8.2566,-8.2374,-8.2119,-8.1772,-8.1337,-8.0788,-8.0288,-7.9781,-7.9202,-7.8709,-8.1092,-8.1092,-8.1092,-8.1092,-8.1092,-8.1092,-8.1092,-8.1092,-8.1092,-8.1092,-8.1092,-8.1092,-8.1092,-8.1092,-8.1092,-8.1092,-8.1092,-8.1092,-8.1092,-8.1092,-8.1092,-8.1092,-8.1092,-8.1056,-8.1093,-8.1021,-8.0948,-8.0767,-8.0396,-8.0092,-7.9899,-7.9899,-7.9935,-7.9935,-8.0042,-8.0042,-8.0256,-8.0752,-8.135,-8.1531,-8.1491,-8.1874,-8.2521,-8.277,-8.3208,-8.3208,-8.3208,-8.3208,-8.3208,-8.3208,-8.3208,-8.3208,-8.3208,-8.3208,-8.3208,-8.3208,-8.3208,-8.3208,-8.3208,-8.3208,-8.3208,-8.3208,-8.3208,-8.3208,-8.3208,-8.3208,-8.3208,-8.3208,-8.3208,-8.3208,-8.3208,-8.3208,-8.3208,-8.3208,-8.3208,-8.3208,-8.3208,-8.3208,-8.3208,-8.3208,-8.3208,-8.3164,-8.312,-8.2941,-8.2761,-8.2453,-8.2176,-8.2059,-8.2405,-8.2509,-8.2531,-8.2423,-8.2678,-8.2556,-8.2237,-8.2147,-8.2205,-8.2276,-8.2172,-8.2272,-8.2475,-8.2881,-8.3321,-8.3862,-8.406,-8.367,-8.3293,-8.3086,-8.2738,-8.2335,-8.1866,-8.133,-8.0635,-8.0022,-7.9342,-8.1092,-8.1092,-8.1092,-8.1092,-8.1092,-8.1092,-8.1092,-8.1092,-8.1092,-8.1092,-8.1092,-8.1092,-8.1092,-8.1092,-8.1092,-8.1092,-8.1092,-8.1092,-8.1092,-8.1092,-8.1092,-8.1092,-8.1092,-8.1092,-8.1056,-8.1056,-8.0876,-8.0656,-8.0471,-8.013,-7.9899,-7.9935,-7.9935,-8.0078,-8.0292,-8.047,-8.0827,-8.1577,-8.2326,-8.2481,-8.2294,-8.2758,-8.3074,-8.3393,-8.3297,-8.3253,-8.3208,-8.3208,-8.3208,-8.3208,-8.3208,-8.3208,-8.3208,-8.3208,-8.3208,-8.3208,-8.3208,-8.3208,-8.3208,-8.3208,-8.3208,-8.3208,-8.3208,-8.3208,-8.3208,-8.3208,-8.3208,-8.3208,-8.3208,-8.3208,-8.3208,-8.3208,-8.3208,-8.3208,-8.3208,-8.3208,-8.3208,-8.3208,-8.3208,-8.3208,-8.3164,-8.3031,-8.2941,-8.2761,-8.2592,-8.2707,-8.2272,-8.226,-8.2418,-8.2492,-8.2443,-8.2497,-8.282,-8.2691,-8.2359,-8.2446,-8.2615,-8.2681,-8.2881,-8.3186,-8.3456,-8.3761,-8.4167,-8.4403,-8.4485,-8.4452,-8.4108,-8.3799,-8.3726,-8.341,-8.2872,-8.2287,-8.159,-8.0822,-8.0022,-8.1092,-8.1092,-8.1092,-8.1092,-8.1092,-8.1092,-8.1092,-8.1092,-8.1092,-8.1092,-8.1092,-8.1092,-8.1092,-8.1092,-8.1092,-8.1092,-8.1092,-8.1092,-8.1092,-8.1092,-8.1092,-8.1092,-8.1092,-8.1092,-8.1092,-8.0948,-8.073,-8.0619,-8.0471,-8.013,-7.9935,-7.9935,-8.0149,-8.0399,-8.0934,-8.1291,-8.1612,-8.229,-8.2892,-8.3239,-8.346,-8.3642,-8.367,-8.3559,-8.3376,-8.3208,-8.3208,-8.3208,-8.3208,-8.3208,-8.3208,-8.3208,-8.3208,-8.3208,-8.3208,-8.3208,-8.3208,-8.3208,-8.3208,-8.3208,-8.3208,-8.3208,-8.3208,-8.3208,-8.3208,-8.3208,-8.3208,-8.3208,-8.3208,-8.3208,-8.3208,-8.3208,-8.3208,-8.3208,-8.3208,-8.3208,-8.3208,-8.3164,-8.3199,-8.3199,-8.3126,-8.2991,-8.2799,-8.2569,-8.2672,-8.2811,-8.283,-8.2927,-8.2952,-8.2954,-8.2921,-8.3041,-8.333,-8.3057,-8.2662,-8.2899,-8.329,-8.3441,-8.3693,-8.4065,-8.4336,-8.4336,-8.437,-8.4505,-8.4553,-8.4553,-8.4553,-8.4331,-8.4325,-8.4164,-8.3847,-8.3206,-8.2469,-8.1719,-8.0802,-8.1092,-8.1092,-8.1092,-8.1092,-8.1092,-8.1092,-8.1092,-8.1092,-8.1092,-8.1092,-8.1092,-8.1092,-8.1092,-8.1092,-8.1092,-8.1092,-8.1092,-8.1092,-8.1092,-8.1092,-8.1092,-8.1092,-8.1092,-8.1092,-8.1092,-8.0948,-8.073,-8.0545,-8.0433,-8.0092,-7.9935,-8.0006,-8.0649,-8.0934,-8.1148,-8.1648,-8.2362,-8.304,-8.3361,-8.3677,-8.4053,-8.4087,-8.3783,-8.3595,-8.3376,-8.3253,-8.3208,-8.3208,-8.3208,-8.3208,-8.3208,-8.3208,-8.3208,-8.3208,-8.3208,-8.3208,-8.3208,-8.3208,-8.3208,-8.3208,-8.3208,-8.3208,-8.3208,-8.3208,-8.3208,-8.3208,-8.3208,-8.3208,-8.3208,-8.3208,-8.3208,-8.3208,-8.3208,-8.3208,-8.3208,-8.3164,-8.312,-8.3145,-8.3126,-8.319,-8.3206,-8.3067,-8.2864,-8.2831,-8.2973,-8.3018,-8.2785,-8.2888,-8.3108,-8.3243,-8.341,-8.3613,-8.3817,-8.3731,-8.3456,-8.3795,-8.4099,-8.4268,-8.4336,-8.4437,-8.4505,-8.4573,-8.4606,-8.4606,-8.4606,-8.4553,-8.4606,-8.4606,-8.4553,-8.4412,-8.45,-8.4108,-8.3335,-8.2476,-8.1558]},{"header":{"parameterUnit":"m.s-1","parameterCategory":1,"la1":31.0,"la2":29.5877,"lo1":-88.7671,"lo2":-86.6584,"dx":0.0162,"dy":0.0185,"nx":115,"ny":88,"refTime":"2023-02-11T18:00:00:Z","depth":0,"parameterNumber":3,"parameterNumberName":"V-component_of_WINDS"},"data":[0.0,0.0,0.0,0.0,0.0,0.0,0.0,0.0,0.0,0.0,0.0,0.0,0.0,0.0,0.0,0.0,0.0,0.0,0.0,0.0,0.0,0.0,0.0,0.0,0.0,0.0,0.0,0.0,0.0,0.0,0.0,0.0,0.0,0.0,0.0,0.0,0.0,0.0,0.0,0.0,0.0,0.0,0.0,0.0,0.0,0.0,0.0,0.0,0.0,0.0,0.0,0.0,0.0,0.0,0.0,0.0,0.0,0.0,0.0,0.0,0.0,0.0,0.0,0.0,0.0,0.0,0.0,0.0,0.0,0.0,0.0,0.0,0.0,0.0,0.0,0.0,0.0,0.0,0.0,0.0,0.0,0.0,0.0,0.0,0.0,0.0,0.0,0.0,0.0,0.0,0.0,0.0,0.0,0.0,0.0,0.0,0.0,0.0,0.0,0.0,0.0,0.0,0.0,0.0,0.0,0.0,0.0,0.0,0.0,0.0,0.0,0.0,0.0,0.0,0.0,0.0,0.0,0.0,0.0,0.0,0.0,0.0,0.0,0.0,0.0,0.0,0.0,0.0,0.0,0.0,0.0,0.0,0.0,0.0,0.0,0.0,0.0,0.0,0.0,0.0,0.0,0.0,0.0,0.0,0.0,0.0,0.0,0.0,0.0,0.0,0.0,0.0,0.0,0.0,0.0,0.0,0.0,0.0,0.0,0.0,0.0,0.0,0.0,0.0,0.0,0.0,0.0,0.0,0.0,0.0,0.0,0.0,0.0,0.0,0.0,0.0,0.0,0.0,0.0,0.0,0.0,0.0,0.0,0.0,0.0,0.0,0.0,0.0,0.0,0.0,0.0,0.0,0.0,0.0,0.0,0.0,0.0,0.0,0.0,0.0,0.0,0.0,0.0,0.0,0.0,0.0,0.0,0.0,0.0,0.0,0.0,0.0,0.0,0.0,0.0,0.0,0.0,0.0,0.0,0.0,0.0,0.0,0.0,0.0,0.0,0.0,0.0,0.0,0.0,0.0,0.0,0.0,0.0,0.0,0.0,0.0,0.0,0.0,0.0,0.0,0.0,0.0,0.0,0.0,0.0,0.0,0.0,0.0,0.0,0.0,0.0,0.0,0.0,0.0,0.0,0.0,0.0,0.0,0.0,0.0,0.0,0.0,0.0,0.0,0.0,0.0,0.0,0.0,0.0,0.0,0.0,0.0,0.0,0.0,0.0,0.0,0.0,0.0,0.0,0.0,0.0,0.0,0.0,0.0,0.0,0.0,0.0,0.0,0.0,0.0,0.0,0.0,0.0,0.0,0.0,0.0,0.0,0.0,0.0,0.0,0.0,0.0,0.0,0.0,0.0,0.0,0.0,0.0,0.0,0.0,0.0,0.0,0.0,0.0,0.0,0.0,0.0,0.0,0.0,0.0,0.0,0.0,0.0,0.0,0.0,0.0,0.0,0.0,0.0,0.0,0.0,0.0,0.0,0.0,0.0,0.0,0.0,0.0,0.0,0.0,0.0,0.0,0.0,0.0,0.0,0.0,0.0,0.0,0.0,0.0,0.0,0.0,0.0,0.0,0.0,0.0,0.0,0.0,0.0,0.0,0.0,0.0,0.0,0.0,0.0,0.0,0.0,0.0,0.0,0.0,0.0,0.0,0.0,0.0,0.0,0.0,0.0,0.0,0.0,0.0,0.0,0.0,0.0,0.0,0.0,0.0,0.0,0.0,0.0,0.0,0.0,0.0,0.0,0.0,0.0,0.0,0.0,0.0,0.0,0.0,0.0,0.0,0.0,0.0,0.0,0.0,0.0,0.0,0.0,0.0,0.0,0.0,0.0,0.0,0.0,0.0,0.0,0.0,0.0,0.0,0.0,0.0,0.0,0.0,0.0,0.0,0.0,0.0,0.0,0.0,0.0,0.0,0.0,0.0,0.0,0.0,0.0,0.0,0.0,0.0,0.0,0.0,0.0,0.0,0.0,0.0,0.0,0.0,0.0,0.0,0.0,0.0,0.0,0.0,0.0,0.0,0.0,0.0,0.0,0.0,0.0,0.0,0.0,0.0,0.0,0.0,0.0,0.0,0.0,0.0,0.0,0.0,0.0,0.0,0.0,0.0,0.0,0.0,0.0,0.0,0.0,0.0,0.0,0.0,0.0,0.0,0.0,0.0,0.0,0.0,0.0,0.0,0.0,0.0,0.0,0.0,0.0,0.0,0.0,0.0,0.0,0.0,0.0,0.0,0.0,0.0,0.0,0.0,0.0,0.0,0.0,0.0,0.0,0.0,0.0,0.0,0.0,0.0,0.0,0.0,0.0,0.0,0.0,0.0,0.0,0.0,0.0,0.0,0.0,0.0,0.0,0.0,0.0,0.0,0.0,0.0,0.0,0.0,0.0,0.0,0.0,0.0,0.0,0.0,0.0,0.0,0.0,0.0,0.0,0.0,0.0,0.0,0.0,0.0,0.0,0.0,0.0,0.0,0.0,0.0,0.0,0.0,0.0,0.0,0.0,0.0,0.0,0.0,0.0,0.0,0.0,0.0,0.0,0.0,0.0,0.0,0.0,0.0,0.0,0.0,0.0,0.0,0.0,0.0,0.0,0.0,0.0,0.0,0.0,0.0,0.0,0.0,0.0,0.0,0.0,0.0,0.0,0.0,0.0,0.0,0.0,0.0,0.0,0.0,0.0,0.0,0.0,0.0,0.0,0.0,0.0,0.0,0.0,0.0,0.0,0.0,0.0,0.0,0.0,0.0,0.0,0.0,0.0,0.0,0.0,0.0,0.0,0.0,0.0,0.0,0.0,0.0,0.0,0.0,0.0,0.0,0.0,0.0,0.0,0.0,0.0,0.0,0.0,0.0,0.0,0.0,0.0,0.0,0.0,0.0,0.0,0.0,0.0,0.0,0.0,0.0,0.0,0.0,0.0,0.0,0.0,0.0,0.0,0.0,0.0,0.0,0.0,0.0,0.0,0.0,0.0,0.0,0.0,0.0,0.0,0.0,0.0,0.0,0.0,0.0,0.0,0.0,0.0,0.0,0.0,0.0,0.0,0.0,0.0,0.0,0.0,0.0,0.0,0.0,0.0,0.0,0.0,0.0,0.0,0.0,0.0,0.0,0.0,0.0,0.0,0.0,0.0,0.0,0.0,0.0,0.0,0.0,0.0,0.0,0.0,0.0,0.0,0.0,0.0,0.0,0.0,0.0,0.0,0.0,0.0,0.0,0.0,0.0,0.0,0.0,0.0,0.0,0.0,0.0,0.0,0.0,0.0,0.0,0.0,0.0,0.0,0.0,0.0,0.0,0.0,0.0,0.0,0.0,0.0,0.0,0.0,0.0,0.0,0.0,0.0,0.0,0.0,0.0,0.0,0.0,0.0,0.0,0.0,0.0,0.0,0.0,0.0,0.0,0.0,0.0,0.0,0.0,0.0,0.0,0.0,0.0,0.0,0.0,0.0,0.0,0.0,0.0,0.0,0.0,0.0,0.0,0.0,0.0,0.0,0.0,0.0,0.0,0.0,0.0,0.0,0.0,0.0,0.0,0.0,0.0,0.0,0.0,0.0,0.0,0.0,0.0,0.0,0.0,0.0,0.0,0.0,0.0,0.0,0.0,0.0,0.0,0.0,0.0,0.0,0.0,0.0,0.0,0.0,0.0,0.0,0.0,0.0,0.0,0.0,0.0,0.0,0.0,0.0,0.0,0.0,0.0,0.0,0.0,0.0,0.0,0.0,0.0,0.0,0.0,0.0,0.0,0.0,0.0,0.0,0.0,0.0,0.0,0.0,0.0,0.0,0.0,0.0,0.0,0.0,0.0,0.0,0.0,0.0,0.0,0.0,0.0,0.0,0.0,0.0,0.0,0.0,0.0,0.0,0.0,0.0,0.0,0.0,0.0,0.0,0.0,0.0,0.0,0.0,0.0,0.0,0.0,0.0,0.0,0.0,0.0,0.0,0.0,0.0,0.0,0.0,0.0,0.0,0.0,0.0,0.0,0.0,0.0,0.0,0.0,0.0,0.0,0.0,0.0,0.0,0.0,0.0,0.0,0.0,0.0,0.0,0.0,0.0,0.0,0.0,0.0,0.0,0.0,0.0,0.0,0.0,0.0,0.0,0.0,0.0,0.0,0.0,0.0,0.0,0.0,0.0,0.0,0.0,0.0,0.0,0.0,0.0,0.0,0.0,0.0,0.0,0.0,0.0,0.0,0.0,0.0,0.0,0.0,0.0,0.0,0.0,0.0,0.0,0.0,0.0,0.0,0.0,0.0,0.0,0.0,0.0,0.0,3.0337,0.0,0.0,0.0,0.0,0.0,0.0,0.0,0.0,0.0,0.0,0.0,0.0,0.0,0.0,0.0,0.0,0.0,0.0,0.0,0.0,0.0,0.0,0.0,0.0,0.0,0.0,0.0,0.0,0.0,0.0,0.0,0.0,0.0,0.0,0.0,0.0,0.0,0.0,0.0,0.0,0.0,0.0,0.0,0.0,0.0,0.0,0.0,0.0,0.0,0.0,0.0,0.0,0.0,0.0,0.0,0.0,0.0,0.0,0.0,0.0,0.0,0.0,0.0,0.0,0.0,0.0,0.0,0.0,0.0,0.0,0.0,0.0,0.0,0.0,0.0,0.0,0.0,0.0,0.0,0.0,0.0,0.0,0.0,0.0,0.0,0.0,0.0,0.0,0.0,0.0,0.0,0.0,0.0,0.0,0.0,0.0,0.0,0.0,0.0,0.0,0.0,0.0,0.0,0.0,0.0,0.0,0.0,0.0,0.0,0.0,2.813,2.8346,2.964,3.0354,3.0409,0.0,0.0,0.0,0.0,0.0,0.0,0.0,0.0,0.0,0.0,0.0,0.0,0.0,0.0,0.0,0.0,0.0,0.0,0.0,0.0,0.0,0.0,0.0,0.0,0.0,0.0,0.0,0.0,0.0,0.0,0.0,0.0,0.0,0.0,0.0,0.0,0.0,0.0,0.0,0.0,0.0,0.0,0.0,0.0,0.0,0.0,0.0,0.0,0.0,0.0,0.0,0.0,0.0,0.0,0.0,0.0,0.0,0.0,0.0,0.0,0.0,0.0,0.0,0.0,0.0,0.0,0.0,0.0,0.0,0.0,0.0,0.0,0.0,0.0,0.0,0.0,0.0,0.0,0.0,0.0,0.0,0.0,0.0,0.0,0.0,0.0,0.0,0.0,0.0,0.0,0.0,0.0,0.0,0.0,0.0,0.0,0.0,0.0,0.0,0.0,0.0,0.0,0.0,0.0,0.0,0.0,0.0,0.0,0.0,0.0,0.0,0.0,2.9425,3.0069,3.0693,0.0,0.0,0.0,0.0,0.0,0.0,0.0,0.0,0.0,0.0,0.0,0.0,0.0,0.0,0.0,0.0,0.0,0.0,0.0,0.0,0.0,0.0,0.0,0.0,0.0,0.0,0.0,0.0,0.0,0.0,0.0,0.0,0.0,0.0,0.0,0.0,0.0,0.0,0.0,0.0,0.0,0.0,0.0,0.0,0.0,0.0,0.0,0.0,0.0,0.0,0.0,0.0,0.0,0.0,0.0,0.0,0.0,0.0,0.0,0.0,0.0,0.0,0.0,0.0,0.0,0.0,0.0,0.0,0.0,0.0,0.0,0.0,0.0,0.0,0.0,0.0,0.0,0.0,0.0,0.0,0.0,0.0,0.0,0.0,0.0,0.0,0.0,0.0,0.0,0.0,0.0,0.0,0.0,0.0,0.0,0.0,0.0,0.0,0.0,0.0,0.0,0.0,0.0,0.0,0.0,0.0,0.0,0.0,0.0,0.0,3.0266,3.0726,3.1135,0.0,3.1489,0.0,0.0,0.0,0.0,0.0,0.0,0.0,0.0,0.0,0.0,0.0,0.0,0.0,0.0,0.0,0.0,0.0,0.0,0.0,0.0,0.0,0.0,0.0,0.0,0.0,0.0,0.0,0.0,0.0,0.0,0.0,0.0,0.0,0.0,0.0,0.0,0.0,0.0,0.0,0.0,0.0,0.0,0.0,0.0,0.0,0.0,0.0,0.0,0.0,0.0,0.0,0.0,0.0,0.0,0.0,0.0,0.0,0.0,0.0,0.0,0.0,0.0,0.0,0.0,0.0,0.0,0.0,0.0,0.0,0.0,0.0,0.0,0.0,0.0,0.0,0.0,0.0,0.0,0.0,0.0,0.0,0.0,0.0,0.0,0.0,0.0,0.0,0.0,0.0,0.0,0.0,0.0,0.0,0.0,0.0,0.0,0.0,0.0,0.0,0.0,0.0,0.0,0.0,0.0,0.0,0.0,0.0,0.0,0.0,0.0,3.0069,3.0622,3.1277,3.1559,0.0,0.0,0.0,0.0,0.0,0.0,0.0,0.0,0.0,0.0,0.0,0.0,0.0,0.0,0.0,0.0,0.0,0.0,0.0,0.0,0.0,0.0,0.0,0.0,0.0,0.0,0.0,0.0,0.0,0.0,0.0,0.0,0.0,0.0,0.0,0.0,0.0,0.0,0.0,0.0,0.0,0.0,0.0,0.0,0.0,0.0,0.0,0.0,0.0,0.0,0.0,0.0,0.0,0.0,0.0,0.0,0.0,0.0,0.0,0.0,0.0,0.0,0.0,0.0,0.0,0.0,0.0,0.0,0.0,0.0,0.0,0.0,0.0,0.0,0.0,0.0,0.0,0.0,0.0,0.0,0.0,0.0,0.0,0.0,0.0,0.0,0.0,0.0,0.0,0.0,0.0,0.0,0.0,0.0,0.0,0.0,0.0,0.0,0.0,0.0,0.0,0.0,0.0,0.0,0.0,0.0,0.0,0.0,0.0,0.0,2.9728,3.0211,3.0693,3.1277,3.1559,3.1559,0.0,0.0,0.0,0.0,0.0,0.0,0.0,0.0,0.0,0.0,0.0,0.0,0.0,0.0,0.0,0.0,0.0,0.0,0.0,0.0,0.0,0.0,0.0,0.0,0.0,0.0,0.0,0.0,0.0,0.0,0.0,0.0,0.0,0.0,0.0,0.0,0.0,0.0,0.0,0.0,0.0,0.0,0.0,0.0,0.0,0.0,0.0,0.0,0.0,0.0,0.0,0.0,0.0,0.0,0.0,0.0,0.0,0.0,0.0,0.0,0.0,0.0,0.0,0.0,0.0,0.0,0.0,0.0,0.0,0.0,0.0,0.0,0.0,0.0,0.0,0.0,0.0,0.0,0.0,0.0,0.0,0.0,0.0,0.0,0.0,0.0,0.0,0.0,0.0,0.0,0.0,0.0,0.0,0.0,0.0,0.0,0.0,0.0,0.0,0.0,0.0,0.0,0.0,0.0,0.0,0.0,0.0,0.0,2.9369,3.071,3.1489,3.1489,3.1559,3.1559,0.0,0.0,0.0,0.0,0.0,0.0,0.0,0.0,0.0,0.0,0.0,0.0,0.0,0.0,0.0,0.0,0.0,0.0,0.0,0.0,0.0,0.0,0.0,0.0,0.0,0.0,0.0,0.0,0.0,0.0,0.0,0.0,0.0,0.0,0.0,0.0,0.0,0.0,0.0,0.0,0.0,0.0,0.0,0.0,0.0,0.0,0.0,0.0,0.0,0.0,0.0,0.0,0.0,0.0,0.0,0.0,0.0,0.0,0.0,0.0,0.0,0.0,0.0,0.0,0.0,0.0,0.0,0.0,0.0,0.0,0.0,0.0,0.0,0.0,0.0,0.0,0.0,0.0,0.0,0.0,0.0,0.0,0.0,0.0,0.0,0.0,0.0,0.0,0.0,0.0,0.0,0.0,0.0,0.0,0.0,0.0,0.0,0.0,0.0,0.0,0.0,0.0,0.0,0.0,0.0,0.0,0.0,0.0,0.0,3.0781,3.1364,3.1559,3.1559,3.1559,3.1559,0.0,0.0,0.0,0.0,0.0,0.0,0.0,0.0,0.0,0.0,0.0,0.0,0.0,0.0,0.0,0.0,0.0,0.0,0.0,0.0,0.0,0.0,0.0,0.0,0.0,0.0,0.0,0.0,0.0,0.0,0.0,0.0,0.0,0.0,0.0,0.0,0.0,0.0,0.0,0.0,0.0,0.0,0.0,0.0,0.0,0.0,0.0,0.0,0.0,0.0,0.0,0.0,0.0,0.0,0.0,0.0,0.0,0.0,0.0,0.0,0.0,0.0,0.0,0.0,0.0,0.0,0.0,0.0,0.0,0.0,0.0,0.0,0.0,0.0,0.0,0.0,0.0,0.0,0.0,0.0,0.0,0.0,0.0,0.0,0.0,0.0,0.0,0.0,0.0,0.0,0.0,0.0,0.0,0.0,0.0,0.0,0.0,0.0,0.0,0.0,0.0,0.0,0.0,0.0,0.0,0.0,0.0,0.0,0.0,3.1559,0.0,3.1559,3.1559,3.1559,3.1559,0.0,0.0,0.0,0.0,0.0,0.0,0.0,0.0,0.0,0.0,0.0,0.0,0.0,0.0,0.0,0.0,0.0,0.0,0.0,0.0,0.0,0.0,0.0,0.0,0.0,0.0,0.0,0.0,0.0,0.0,0.0,0.0,0.0,0.0,0.0,0.0,0.0,0.0,0.0,0.0,0.0,0.0,0.0,0.0,0.0,0.0,0.0,0.0,0.0,0.0,0.0,0.0,0.0,0.0,0.0,0.0,0.0,0.0,0.0,0.0,0.0,0.0,0.0,0.0,0.0,0.0,0.0,0.0,0.0,0.0,0.0,0.0,0.0,0.0,0.0,0.0,0.0,0.0,0.0,0.0,0.0,0.0,0.0,0.0,0.0,0.0,0.0,0.0,0.0,0.0,0.0,0.0,0.0,0.0,0.0,0.0,0.0,0.0,0.0,0.0,0.0,0.0,0.0,0.0,0.0,0.0,0.0,0.0,3.1559,3.1559,3.1559,3.1559,3.1559,3.1559,3.1559,0.0,0.0,0.0,0.0,0.0,0.0,0.0,0.0,0.0,0.0,0.0,0.0,0.0,0.0,0.0,0.0,0.0,0.0,0.0,0.0,0.0,0.0,0.0,0.0,0.0,0.0,0.0,0.0,0.0,0.0,0.0,0.0,0.0,0.0,0.0,0.0,0.0,0.0,0.0,0.0,0.0,0.0,0.0,0.0,0.0,0.0,0.0,0.0,0.0,0.0,0.0,0.0,0.0,0.0,0.0,0.0,0.0,0.0,0.0,0.0,0.0,0.0,0.0,0.0,0.0,0.0,0.0,0.0,0.0,0.0,0.0,0.0,0.0,0.0,0.0,0.0,0.0,0.0,0.0,0.0,0.0,0.0,0.0,0.0,0.0,0.0,0.0,0.0,0.0,0.0,0.0,0.0,0.0,0.0,0.0,0.0,0.0,0.0,0.0,0.0,0.0,0.0,0.0,0.0,0.0,0.0,0.0,0.0,0.0,3.1559,3.1559,3.1559,3.1559,3.1559,3.1559,0.0,0.0,0.0,0.0,0.0,0.0,0.0,0.0,0.0,0.0,0.0,0.0,0.0,0.0,0.0,0.0,0.0,0.0,0.0,0.0,0.0,0.0,0.0,0.0,0.0,0.0,0.0,0.0,0.0,0.0,0.0,0.0,0.0,0.0,0.0,0.0,0.0,0.0,0.0,0.0,0.0,0.0,0.0,0.0,0.0,0.0,0.0,0.0,0.0,0.0,0.0,0.0,0.0,0.0,0.0,0.0,0.0,0.0,0.0,0.0,0.0,0.0,0.0,0.0,0.0,0.0,0.0,0.0,0.0,0.0,0.0,0.0,0.0,0.0,0.0,0.0,0.0,0.0,0.0,0.0,0.0,0.0,0.0,0.0,0.0,0.0,0.0,0.0,0.0,0.0,0.0,0.0,0.0,0.0,0.0,0.0,0.0,0.0,0.0,0.0,0.0,0.0,0.0,0.0,0.0,0.0,0.0,0.0,0.0,3.1771,3.1771,3.1771,3.1771,3.1771,3.1771,3.1771,0.0,0.0,0.0,0.0,0.0,0.0,0.0,0.0,0.0,0.0,0.0,0.0,0.0,0.0,0.0,0.0,0.0,0.0,0.0,0.0,0.0,0.0,0.0,0.0,0.0,0.0,0.0,0.0,0.0,0.0,0.0,0.0,0.0,0.0,0.0,0.0,0.0,0.0,0.0,0.0,0.0,0.0,0.0,0.0,0.0,0.0,0.0,0.0,0.0,0.0,0.0,0.0,0.0,0.0,0.0,0.0,0.0,0.0,0.0,0.0,0.0,0.0,0.0,0.0,0.0,0.0,0.0,0.0,0.0,0.0,0.0,0.0,0.0,0.0,0.0,0.0,0.0,0.0,0.0,0.0,0.0,0.0,0.0,0.0,0.0,0.0,0.0,0.0,0.0,0.0,0.0,0.0,0.0,0.0,0.0,0.0,0.0,0.0,0.0,0.0,0.0,0.0,0.0,0.0,0.0,0.0,0.0,0.0,3.2105,3.2105,3.2123,3.2105,3.2105,3.2105,0.0,0.0,0.0,0.0,0.0,0.0,0.0,0.0,0.0,0.0,0.0,0.0,0.0,0.0,0.0,0.0,0.0,0.0,0.0,0.0,0.0,0.0,0.0,0.0,0.0,0.0,0.0,0.0,0.0,0.0,0.0,0.0,0.0,0.0,0.0,0.0,0.0,0.0,0.0,0.0,0.0,0.0,0.0,0.0,0.0,0.0,0.0,0.0,0.0,0.0,0.0,0.0,0.0,0.0,0.0,0.0,0.0,0.0,0.0,0.0,0.0,0.0,0.0,0.0,0.0,0.0,0.0,0.0,0.0,0.0,0.0,0.0,0.0,0.0,0.0,0.0,0.0,0.0,0.0,0.0,0.0,0.0,0.0,0.0,0.0,0.0,0.0,0.0,0.0,0.0,0.0,0.0,0.0,0.0,0.0,0.0,0.0,0.0,0.0,0.0,0.0,0.0,0.0,0.0,0.0,0.0,0.0,0.0,0.0,3.2105,3.2403,3.2561,3.2561,3.2561,3.2403,0.0,0.0,0.0,0.0,0.0,0.0,0.0,0.0,0.0,0.0,0.0,0.0,0.0,0.0,0.0,0.0,0.0,0.0,0.0,0.0,0.0,0.0,0.0,0.0,0.0,0.0,0.0,0.0,0.0,0.0,0.0,0.0,0.0,0.0,0.0,0.0,0.0,0.0,0.0,0.0,0.0,0.0,0.0,0.0,0.0,0.0,0.0,0.0,0.0,0.0,0.0,0.0,0.0,0.0,0.0,0.0,0.0,0.0,0.0,0.0,0.0,0.0,0.0,0.0,0.0,0.0,0.0,0.0,0.0,0.0,0.0,0.0,0.0,0.0,0.0,0.0,0.0,0.0,0.0,0.0,0.0,0.0,0.0,0.0,0.0,0.0,0.0,0.0,0.0,0.0,0.0,0.0,0.0,0.0,0.0,0.0,0.0,0.0,0.0,0.0,0.0,0.0,0.0,0.0,0.0,0.0,0.0,0.0,3.1982,3.2333,3.2771,3.3051,3.3121,3.3069,3.2841,0.0,0.0,0.0,0.0,0.0,0.0,0.0,0.0,0.0,0.0,0.0,0.0,0.0,0.0,0.0,0.0,0.0,0.0,0.0,0.0,0.0,0.0,0.0,0.0,0.0,0.0,0.0,0.0,0.0,0.0,0.0,0.0,0.0,0.0,0.0,0.0,0.0,0.0,0.0,0.0,0.0,0.0,0.0,0.0,0.0,0.0,0.0,0.0,0.0,0.0,0.0,0.0,0.0,0.0,0.0,0.0,0.0,0.0,0.0,0.0,0.0,0.0,0.0,0.0,0.0,0.0,0.0,0.0,0.0,0.0,0.0,0.0,0.0,0.0,0.0,0.0,0.0,0.0,0.0,0.0,0.0,0.0,0.0,0.0,0.0,0.0,0.0,0.0,0.0,0.0,0.0,0.0,0.0,0.0,0.0,0.0,0.0,0.0,0.0,0.0,0.0,0.0,0.0,0.0,0.0,0.0,0.0,0.0,3.2263,3.2701,3.3069,3.34,3.3747,3.3469,3.333,0.0,0.0,0.0,0.0,0.0,0.0,0.0,0.0,0.0,0.0,0.0,0.0,0.0,0.0,0.0,0.0,0.0,0.0,0.0,0.0,0.0,0.0,0.0,0.0,0.0,0.0,0.0,0.0,0.0,0.0,0.0,0.0,0.0,0.0,0.0,0.0,0.0,0.0,0.0,0.0,0.0,0.0,0.0,0.0,0.0,0.0,0.0,0.0,0.0,0.0,0.0,0.0,0.0,0.0,0.0,0.0,0.0,0.0,0.0,0.0,0.0,0.0,0.0,0.0,0.0,0.0,0.0,0.0,0.0,0.0,0.0,0.0,0.0,0.0,0.0,0.0,0.0,0.0,0.0,0.0,0.0,0.0,0.0,0.0,0.0,0.0,0.0,0.0,0.0,0.0,0.0,0.0,0.0,0.0,0.0,0.0,0.0,0.0,0.0,0.0,0.0,0.0,0.0,0.0,0.0,0.0,0.0,0.0,3.2333,3.2701,3.3139,3.333,3.34,3.3608,3.3539,0.0,0.0,0.0,0.0,0.0,0.0,0.0,0.0,0.0,0.0,0.0,0.0,0.0,0.0,0.0,0.0,0.0,0.0,0.0,0.0,0.0,0.0,0.0,0.0,0.0,0.0,0.0,0.0,0.0,0.0,0.0,0.0,0.0,0.0,0.0,0.0,0.0,0.0,0.0,0.0,0.0,0.0,0.0,0.0,0.0,0.0,0.0,0.0,3.8191,0.0,0.0,0.0,0.0,0.0,0.0,0.0,0.0,0.0,0.0,0.0,0.0,0.0,0.0,0.0,0.0,0.0,0.0,0.0,0.0,0.0,0.0,0.0,0.0,0.0,0.0,0.0,0.0,0.0,0.0,0.0,0.0,0.0,0.0,0.0,0.0,0.0,0.0,0.0,0.0,0.0,0.0,0.0,0.0,0.0,0.0,0.0,0.0,0.0,0.0,0.0,0.0,0.0,0.0,0.0,0.0,0.0,0.0,0.0,3.3287,3.3536,3.389,3.4121,3.4103,3.4061,3.393,0.0,0.0,0.0,0.0,0.0,0.0,0.0,0.0,0.0,0.0,0.0,0.0,0.0,0.0,0.0,0.0,0.0,0.0,0.0,0.0,0.0,0.0,0.0,0.0,0.0,0.0,0.0,0.0,0.0,0.0,0.0,0.0,0.0,0.0,0.0,0.0,0.0,0.0,0.0,0.0,0.0,0.0,0.0,0.0,0.0,0.0,0.0,0.0,0.0,0.0,0.0,0.0,0.0,0.0,0.0,0.0,0.0,0.0,0.0,0.0,0.0,0.0,0.0,0.0,0.0,0.0,0.0,0.0,0.0,0.0,0.0,0.0,0.0,0.0,0.0,0.0,0.0,0.0,0.0,0.0,0.0,0.0,0.0,0.0,0.0,0.0,0.0,0.0,0.0,0.0,0.0,0.0,0.0,0.0,0.0,0.0,0.0,0.0,0.0,0.0,0.0,0.0,0.0,0.0,0.0,0.0,0.0,3.4071,3.4433,3.4505,3.4811,3.5027,3.5027,3.4678,3.433,3.4018,0.0,0.0,0.0,0.0,0.0,0.0,0.0,0.0,0.0,0.0,0.0,0.0,0.0,0.0,0.0,0.0,0.0,0.0,0.0,0.0,0.0,0.0,0.0,0.0,0.0,0.0,0.0,0.0,0.0,0.0,0.0,0.0,0.0,0.0,0.0,0.0,0.0,0.0,3.8191,3.8191,0.0,0.0,0.0,0.0,0.0,0.0,0.0,0.0,3.8191,0.0,0.0,0.0,0.0,0.0,0.0,0.0,0.0,0.0,0.0,0.0,0.0,0.0,0.0,0.0,0.0,0.0,0.0,0.0,0.0,0.0,0.0,0.0,0.0,0.0,0.0,0.0,0.0,0.0,0.0,0.0,0.0,0.0,0.0,0.0,0.0,0.0,0.0,0.0,0.0,0.0,0.0,0.0,0.0,0.0,0.0,0.0,0.0,0.0,0.0,0.0,0.0,0.0,0.0,0.0,0.0,3.329,3.3744,3.4162,3.4378,3.4811,3.5027,3.5027,3.4972,3.4899,3.4807,0.0,0.0,0.0,0.0,0.0,0.0,0.0,0.0,0.0,0.0,0.0,0.0,0.0,0.0,0.0,0.0,0.0,0.0,0.0,0.0,0.0,0.0,0.0,0.0,0.0,0.0,0.0,0.0,0.0,0.0,0.0,0.0,0.0,0.0,0.0,0.0,0.0,0.0,0.0,3.8191,3.8191,0.0,0.0,0.0,0.0,0.0,0.0,0.0,0.0,3.8191,0.0,0.0,0.0,0.0,0.0,0.0,0.0,0.0,0.0,0.0,0.0,0.0,0.0,0.0,0.0,0.0,0.0,0.0,0.0,0.0,0.0,0.0,0.0,0.0,0.0,0.0,0.0,0.0,0.0,0.0,0.0,0.0,0.0,0.0,0.0,0.0,0.0,0.0,0.0,0.0,0.0,0.0,0.0,0.0,0.0,0.0,0.0,0.0,0.0,0.0,0.0,0.0,0.0,0.0,0.0,3.4162,3.477,3.5211,3.5339,3.5504,3.565,3.5632,3.5449,3.532,0.0,0.0,0.0,0.0,0.0,0.0,0.0,0.0,0.0,0.0,0.0,0.0,0.0,0.0,0.0,0.0,0.0,0.0,0.0,0.0,0.0,0.0,0.0,0.0,0.0,0.0,0.0,0.0,0.0,0.0,0.0,0.0,0.0,0.0,0.0,0.0,0.0,0.0,0.0,0.0,3.8191,3.8191,3.8191,0.0,0.0,0.0,0.0,0.0,0.0,3.8191,3.8191,0.0,0.0,0.0,0.0,0.0,0.0,0.0,0.0,0.0,0.0,0.0,0.0,0.0,0.0,0.0,0.0,0.0,0.0,0.0,0.0,0.0,0.0,0.0,0.0,0.0,0.0,0.0,0.0,0.0,0.0,0.0,0.0,0.0,0.0,0.0,0.0,0.0,0.0,0.0,0.0,0.0,0.0,0.0,0.0,0.0,0.0,0.0,0.0,0.0,0.0,0.0,0.0,0.0,0.0,0.0,3.4932,3.568,3.6052,3.6052,3.6126,3.6201,3.6201,3.5907,3.5742,0.0,0.0,0.0,0.0,0.0,0.0,0.0,0.0,0.0,0.0,0.0,0.0,0.0,0.0,0.0,0.0,0.0,0.0,0.0,0.0,0.0,0.0,0.0,0.0,0.0,0.0,0.0,0.0,0.0,0.0,0.0,0.0,0.0,0.0,0.0,0.0,0.0,0.0,0.0,0.0,0.0,3.846,3.846,3.846,0.0,0.0,0.0,0.0,3.846,3.846,0.0,0.0,0.0,0.0,0.0,0.0,0.0,0.0,0.0,0.0,0.0,0.0,0.0,0.0,0.0,0.0,0.0,0.0,0.0,0.0,0.0,0.0,0.0,0.0,0.0,0.0,0.0,0.0,0.0,0.0,0.0,0.0,0.0,0.0,0.0,0.0,0.0,0.0,0.0,0.0,0.0,0.0,0.0,0.0,0.0,0.0,0.0,0.0,0.0,0.0,0.0,0.0,0.0,0.0,0.0,0.0,3.4516,3.5231,3.568,3.568,3.5978,3.6201,3.6201,3.6164,3.6146,0.0,0.0,0.0,0.0,0.0,0.0,0.0,0.0,0.0,0.0,0.0,0.0,0.0,0.0,0.0,0.0,0.0,0.0,0.0,0.0,0.0,0.0,0.0,0.0,0.0,0.0,0.0,0.0,0.0,0.0,0.0,0.0,0.0,0.0,0.0,0.0,0.0,0.0,0.0,0.0,0.0,3.9392,3.9392,3.9392,3.9302,0.0,0.0,3.9302,3.9392,3.9392,0.0,0.0,0.0,0.0,0.0,0.0,0.0,0.0,0.0,0.0,0.0,0.0,0.0,0.0,0.0,0.0,0.0,0.0,0.0,0.0,0.0,0.0,0.0,0.0,0.0,0.0,0.0,0.0,0.0,0.0,0.0,0.0,0.0,0.0,0.0,0.0,0.0,0.0,0.0,0.0,0.0,0.0,0.0,0.0,0.0,0.0,0.0,0.0,0.0,0.0,0.0,0.0,0.0,0.0,0.0,3.4724,3.4799,3.553,3.5903,3.5903,3.6126,3.6201,3.6201,3.6201,3.6201,0.0,0.0,0.0,0.0,0.0,0.0,0.0,0.0,0.0,0.0,0.0,0.0,0.0,0.0,0.0,0.0,0.0,0.0,0.0,0.0,0.0,0.0,0.0,0.0,0.0,0.0,0.0,0.0,0.0,0.0,0.0,0.0,0.0,0.0,0.0,0.0,0.0,0.0,0.0,0.0,0.0,0.0,3.9468,3.9468,0.0,0.0,0.0,3.9468,3.9468,0.0,0.0,0.0,0.0,0.0,0.0,0.0,0.0,0.0,0.0,0.0,0.0,0.0,0.0,0.0,0.0,0.0,0.0,0.0,0.0,0.0,0.0,0.0,0.0,0.0,0.0,0.0,0.0,0.0,0.0,0.0,0.0,0.0,0.0,0.0,0.0,0.0,0.0,0.0,0.0,0.0,0.0,0.0,0.0,0.0,0.0,0.0,0.0,0.0,0.0,0.0,0.0,0.0,0.0,0.0,0.0,0.0,3.5007,3.5754,3.6201,3.6201,3.6201,3.6201,3.6201,3.6349,0.0,0.0,0.0,0.0,0.0,0.0,0.0,0.0,0.0,0.0,0.0,0.0,0.0,0.0,0.0,0.0,0.0,0.0,0.0,0.0,0.0,0.0,0.0,0.0,0.0,0.0,0.0,3.7717,0.0,0.0,0.0,0.0,0.0,0.0,0.0,0.0,0.0,0.0,0.0,0.0,0.0,0.0,3.9868,3.9868,3.9868,3.9868,0.0,0.0,3.9889,3.9868,3.9868,3.9868,0.0,0.0,0.0,0.0,0.0,0.0,0.0,0.0,0.0,0.0,0.0,0.0,0.0,0.0,0.0,0.0,0.0,0.0,0.0,0.0,0.0,0.0,0.0,0.0,0.0,0.0,0.0,0.0,0.0,0.0,0.0,0.0,0.0,0.0,0.0,0.0,0.0,0.0,0.0,0.0,0.0,0.0,0.0,0.0,0.0,0.0,0.0,0.0,0.0,0.0,0.0,0.0,0.0,0.0,3.5007,3.5007,3.5829,3.6201,3.6201,3.6201,3.6201,3.6201,3.696,3.696,0.0,0.0,0.0,0.0,0.0,0.0,0.0,0.0,0.0,0.0,0.0,0.0,0.0,0.0,0.0,0.0,0.0,0.0,0.0,0.0,0.0,0.0,0.0,0.0,0.0,0.0,0.0,0.0,0.0,0.0,0.0,0.0,0.0,0.0,0.0,0.0,0.0,0.0,0.0,0.0,0.0,4.08,4.0779,4.0779,4.0779,0.0,4.0779,4.0779,4.0779,4.0779,4.0779,4.0779,0.0,0.0,0.0,0.0,0.0,0.0,0.0,0.0,0.0,0.0,0.0,0.0,0.0,0.0,0.0,0.0,0.0,0.0,0.0,0.0,0.0,0.0,0.0,0.0,0.0,0.0,0.0,0.0,0.0,0.0,0.0,0.0,0.0,0.0,0.0,0.0,0.0,0.0,0.0,0.0,0.0,0.0,0.0,0.0,0.0,0.0,0.0,0.0,0.0,0.0,0.0,0.0,0.0,3.5007,3.5007,3.5829,3.6201,3.6201,3.6201,3.6201,3.6201,3.6516,3.6738,0.0,0.0,0.0,0.0,0.0,0.0,0.0,0.0,0.0,0.0,0.0,0.0,0.0,0.0,0.0,0.0,0.0,0.0,0.0,0.0,0.0,0.0,0.0,0.0,0.0,0.0,0.0,0.0,3.9566,3.985,4.0294,0.0,0.0,0.0,0.0,0.0,0.0,0.0,0.0,0.0,0.0,4.0882,4.0882,4.0882,0.0,0.0,4.0882,4.0882,4.0882,4.0882,4.0882,4.0882,4.0882,0.0,0.0,0.0,0.0,0.0,0.0,0.0,0.0,0.0,0.0,0.0,0.0,0.0,0.0,0.0,0.0,0.0,0.0,0.0,0.0,0.0,0.0,0.0,0.0,0.0,0.0,0.0,0.0,0.0,0.0,0.0,0.0,0.0,0.0,0.0,0.0,0.0,0.0,0.0,0.0,0.0,0.0,0.0,0.0,0.0,0.0,0.0,0.0,0.0,0.0,0.0,0.0,3.5082,3.5139,3.5829,3.6201,3.6201,3.6201,3.6201,3.6201,3.6442,3.6812,0.0,0.0,0.0,0.0,0.0,0.0,0.0,0.0,0.0,0.0,0.0,0.0,0.0,0.0,0.0,0.0,0.0,0.0,0.0,0.0,0.0,0.0,0.0,0.0,0.0,0.0,0.0,0.0,4.0554,4.0882,4.0882,0.0,0.0,0.0,0.0,0.0,0.0,0.0,0.0,0.0,0.0,4.0882,4.0882,4.0882,4.0882,4.0882,4.0882,4.0882,4.0882,4.0882,4.0882,4.0882,0.0,0.0,0.0,0.0,0.0,0.0,0.0,0.0,0.0,0.0,0.0,0.0,0.0,0.0,0.0,0.0,0.0,0.0,0.0,0.0,0.0,0.0,0.0,0.0,0.0,0.0,0.0,0.0,0.0,0.0,2.8886,0.0,0.0,0.0,0.0,0.0,0.0,0.0,0.0,0.0,0.0,0.0,0.0,0.0,0.0,0.0,0.0,0.0,0.0,0.0,0.0,0.0,0.0,3.5157,3.5605,3.5978,3.6201,3.6201,3.6201,3.6201,3.6293,3.696,3.7421,3.7402,0.0,0.0,0.0,0.0,0.0,0.0,0.0,0.0,0.0,0.0,0.0,0.0,0.0,0.0,0.0,0.0,0.0,0.0,0.0,0.0,0.0,0.0,0.0,0.0,0.0,0.0,3.9694,4.0433,4.0862,0.0,0.0,0.0,0.0,0.0,0.0,0.0,0.0,0.0,0.0,4.0882,4.0882,4.0882,4.0882,4.0882,4.0882,4.0882,4.0882,4.0882,4.0882,4.0882,0.0,0.0,0.0,0.0,0.0,0.0,0.0,0.0,0.0,0.0,0.0,0.0,0.0,0.0,0.0,0.0,0.0,0.0,0.0,0.0,0.0,0.0,0.0,0.0,0.0,0.0,0.0,2.8886,2.8886,0.0,0.0,0.0,0.0,0.0,0.0,0.0,0.0,0.0,0.0,0.0,3.3002,3.3534,0.0,0.0,0.0,0.0,0.0,0.0,0.0,0.0,0.0,0.0,0.0,0.0,3.5231,3.5605,3.5978,3.6201,3.6201,3.6201,3.6442,3.696,3.7255,3.7843,3.8918,0.0,0.0,0.0,0.0,0.0,0.0,0.0,0.0,0.0,0.0,0.0,0.0,0.0,0.0,0.0,0.0,0.0,0.0,0.0,0.0,0.0,0.0,0.0,0.0,0.0,4.0218,0.0,0.0,0.0,0.0,0.0,0.0,0.0,0.0,0.0,0.0,0.0,4.0882,4.0882,4.1131,4.1214,4.0924,4.1131,4.1234,0.0,0.0,0.0,0.0,0.0,0.0,0.0,0.0,0.0,0.0,0.0,0.0,0.0,0.0,4.4118,4.4687,4.4821,4.4909,4.4841,0.0,0.0,0.0,0.0,0.0,0.0,0.0,0.0,0.0,0.0,0.0,0.0,0.0,0.0,2.9756,0.0,2.9741,0.0,0.0,0.0,0.0,0.0,0.0,0.0,0.0,3.2681,3.3289,3.3837,3.3837,3.3837,0.0,3.3837,3.3837,0.0,0.0,0.0,0.0,0.0,0.0,0.0,0.0,3.5231,3.5754,3.6052,3.6201,3.6201,3.6201,3.659,3.7421,3.7916,3.8574,3.9281,3.9858,4.0002,0.0,0.0,0.0,0.0,0.0,0.0,0.0,0.0,0.0,0.0,0.0,0.0,0.0,0.0,0.0,0.0,0.0,0.0,0.0,0.0,0.0,0.0,0.0,4.079,0.0,0.0,0.0,0.0,0.0,0.0,0.0,0.0,0.0,4.0882,4.0882,4.0882,4.0882,4.1131,4.1214,4.0924,0.0,0.0,0.0,0.0,0.0,0.0,0.0,4.0882,4.0882,4.0882,4.0882,4.0882,4.131,4.1735,4.1947,0.0,0.0,4.48,4.521,4.5438,4.5438,4.5094,4.4979,4.5369,4.5094,4.4956,0.0,0.0,0.0,0.0,0.0,0.0,0.0,0.0,3.0994,3.1318,0.0,3.1318,0.0,0.0,0.0,0.0,0.0,3.1824,0.0,0.0,3.3365,3.3837,3.3837,3.3837,3.3837,3.3837,3.3837,3.3837,3.3837,3.3837,0.0,0.0,0.0,0.0,0.0,0.0,3.5381,3.6126,3.6201,3.6219,3.6312,3.6312,3.6683,3.7533,3.8958,3.9465,3.8812,4.0094,4.0504,3.9786,4.0433,0.0,0.0,0.0,0.0,0.0,0.0,0.0,0.0,0.0,0.0,0.0,0.0,0.0,0.0,0.0,0.0,0.0,0.0,0.0,0.0,4.0882,0.0,0.0,0.0,0.0,0.0,0.0,0.0,0.0,0.0,0.0,4.0944,4.0903,4.0882,4.0903,0.0,0.0,0.0,0.0,4.0944,4.0944,4.0924,4.0924,4.0924,4.0924,4.0924,4.0944,0.0,0.0,4.0882,4.0882,4.1167,4.1877,4.2018,4.2441,4.3883,4.4732,4.537,4.5438,4.5415,4.5438,4.5438,4.5415,4.5392,2.8886,0.0,0.0,0.0,0.0,2.9741,3.0129,3.0129,3.0994,3.1395,3.1395,3.1395,0.0,0.0,0.0,0.0,0.0,0.0,3.2588,3.2664,3.3458,3.3837,3.3837,3.3837,3.3837,3.3837,3.3837,3.3837,3.3837,3.3837,3.3837,3.3837,0.0,0.0,0.0,0.0,3.5381,3.6126,3.6201,3.6645,3.754,3.7558,3.8363,3.9993,4.0724,4.0924,4.0779,4.0833,4.0811,4.0576,4.0218,0.0,0.0,0.0,0.0,0.0,0.0,0.0,0.0,0.0,0.0,0.0,0.0,0.0,0.0,0.0,0.0,0.0,0.0,0.0,4.0882,4.0882,4.0811,0.0,0.0,0.0,0.0,0.0,0.0,0.0,0.0,0.0,4.1814,4.1276,4.1007,0.0,0.0,4.1928,4.1928,4.2124,4.2228,4.199,4.1855,0.0,4.1928,4.1928,4.1855,4.1928,4.1659,4.1255,4.0924,4.0882,4.0954,4.1239,4.1664,4.2159,4.2559,4.3675,4.4663,4.521,4.5438,4.5438,4.5438,4.5438,4.5438,2.8886,2.8886,2.8886,2.9119,2.9431,2.9897,3.0129,3.0129,3.0994,3.1533,3.184,3.184,3.184,3.184,3.1916,0.0,0.0,0.0,3.3061,3.3061,3.3609,3.3837,3.3837,3.3837,3.3837,3.3837,3.3837,3.3837,3.3837,3.3837,3.3837,3.3837,0.0,0.0,3.4707,3.5091,3.5557,3.6158,3.6529,3.7032,3.7821,3.8424,3.9215,4.0125,4.1244,4.1688,4.1395,4.142,4.1493,4.1421,4.0986,4.0986,0.0,0.0,0.0,0.0,0.0,0.0,0.0,0.0,0.0,0.0,0.0,3.9734,4.0146,0.0,0.0,0.0,4.0882,4.0956,4.0945,4.1111,0.0,0.0,0.0,0.0,0.0,0.0,0.0,4.1421,4.1669,4.2011,4.2281,4.1772,4.1524,4.1866,4.2083,4.2322,4.2322,0.0,4.2559,4.2364,4.2322,4.2322,4.2322,4.2322,4.2322,4.2322,4.2115,4.1845,4.1483,4.1421,4.1493,4.1493,4.1854,4.2213,4.25,4.3284,4.4118,4.4731,4.4937,4.5006,4.537,4.5438,4.5438,2.8964,2.8978,2.8964,2.9275,2.9974,3.0052,3.0129,3.0206,3.1071,3.184,3.2528,3.2604,3.2588,3.2588,3.2664,0.0,3.2757,3.3441,3.3761,3.3837,3.3837,3.3837,3.3837,3.3837,3.3837,3.3837,3.3795,3.3812,3.3888,3.3922,3.3939,3.3939,3.3922,3.4057,3.4511,3.524,3.5892,3.6272,3.6998,3.7448,3.7696,3.9165,3.9715,3.9127,4.1197,4.2015,4.1326,4.19,4.2322,4.2322,4.2322,4.2322,4.2249,0.0,0.0,0.0,0.0,0.0,0.0,0.0,0.0,0.0,0.0,0.0,0.0,0.0,0.0,4.0935,4.0986,0.0,4.1205,4.151,0.0,0.0,0.0,4.2175,4.2175,4.2175,4.2195,4.2237,0.0,0.0,4.2447,4.2447,4.2373,4.2447,4.2405,4.2331,4.2426,4.2393,4.2447,4.2488,4.2373,4.2373,4.2456,4.2435,4.2435,4.2373,4.2311,4.2364,4.2228,4.2207,4.2322,4.2281,4.2322,4.2449,4.3203,4.3285,4.3529,4.4055,4.4199,4.4454,4.5279,4.5439,4.5508,2.9275,2.9741,2.9119,2.9042,2.9197,2.9819,3.0129,3.0206,3.167,3.2069,3.1686,3.2299,3.2588,3.2588,3.3213,3.3517,3.3534,3.3685,3.3837,3.3837,3.3837,3.3837,3.3837,3.3837,3.3837,3.3854,3.4128,3.4265,3.4282,3.4556,3.471,3.4693,3.471,3.4942,3.5351,3.5781,3.6439,3.7129,3.7298,3.8191,3.9702,4.1104,4.1972,4.2429,4.2631,4.2691,4.2446,4.234,4.2322,4.2322,4.2322,4.2322,4.2322,4.1998,0.0,0.0,0.0,0.0,0.0,0.0,0.0,0.0,0.0,4.1327,4.0995,0.0,4.1821,0.0,4.1624,4.1947,4.2006,4.2071,0.0,0.0,4.1583,4.134,4.134,4.134,4.1481,4.1806,4.2392,4.289,4.3242,4.3284,4.3284,4.3284,4.2973,4.289,4.3221,4.3284,4.3284,4.3263,4.3242,4.3284,4.3263,4.3284,4.3159,4.2807,4.2766,4.2642,4.2311,4.2322,4.2322,4.2322,4.2322,4.2417,4.2564,4.2543,4.2868,4.3435,4.4018,4.4639,4.5441,4.563,4.5794,2.9197,2.9508,2.9119,2.8886,2.8978,2.9353,2.9586,2.9664,3.0516,3.1148,3.1472,3.2604,3.3137,3.3137,3.3609,3.3837,3.3837,3.3837,3.3837,3.3837,3.3837,3.3837,3.3854,3.4008,3.4076,3.4094,3.447,3.4659,3.4659,3.4864,3.4967,3.4984,3.5138,3.5418,3.585,3.6103,3.6599,3.7376,3.7792,3.8695,4.0163,4.1228,4.2216,4.306,4.3215,4.3221,4.3242,4.2994,4.2849,4.287,4.287,4.2849,4.2849,4.2663,4.2559,0.0,0.0,0.0,0.0,0.0,0.0,0.0,0.0,0.0,0.0,0.0,4.2472,4.2208,4.1881,4.2043,4.2828,4.2683,4.2642,4.2849,4.2474,4.2153,4.2153,4.1852,4.1877,4.25,4.2616,4.2946,4.3497,4.3615,4.3615,4.3615,4.3387,4.3325,4.3553,4.3615,4.3615,4.3615,4.3615,4.3615,4.3615,4.3615,4.3532,4.3304,4.3221,4.3139,4.2911,4.287,4.287,4.2849,4.2849,4.2849,4.287,4.2849,4.2998,4.3392,4.3817,4.431,4.5008,4.5422,4.5849,2.8886,2.8886,2.8886,2.8886,2.8886,2.8886,2.8886,2.8886,2.9119,3.0067,3.1472,3.2773,3.3382,3.3458,3.3609,3.3685,3.3837,3.3837,3.3837,3.3837,3.3837,3.3871,3.3846,3.4231,3.4419,3.447,3.4864,3.5052,3.5052,3.5087,3.5121,3.5138,3.5429,3.5822,3.6236,3.6236,3.6614,3.7463,3.814,3.8956,3.9902,4.0646,4.1501,4.237,4.3136,4.3615,4.3615,4.3615,4.3615,4.3615,4.3615,4.3615,4.3594,4.3242,4.3014,0.0,4.2642,0.0,0.0,0.0,0.0,0.0,0.0,0.0,0.0,4.2637,4.3029,4.3421,4.2043,4.1751,4.3151,4.294,4.2858,4.3248,4.3136,4.3157,4.3213,4.2677,4.2524,4.3386,4.2907,4.2851,4.3462,4.3615,4.3615,4.3615,4.3594,4.3573,4.3615,4.3615,4.3615,4.3615,4.3615,4.3615,4.3615,4.3615,4.3615,4.3594,4.3573,4.3615,4.3573,4.3573,4.3594,4.3573,4.3553,4.3573,4.3615,4.3594,4.3594,4.3629,4.3608,4.3832,4.4508,4.5257,4.5765,2.8886,2.8886,2.8886,2.8886,2.8886,2.8886,2.8886,2.8964,3.0376,3.1071,3.1302,3.0994,3.1225,3.1856,3.2528,3.3213,3.3837,3.3837,3.3837,3.3837,3.3837,3.4008,3.4282,3.435,3.4556,3.4864,3.5241,3.5412,3.5412,3.572,3.5892,3.5892,3.5943,3.6218,3.6557,0.0,0.0,0.0,3.8047,3.8719,3.9902,4.0646,4.1501,4.237,4.3136,0.0,4.3615,4.3615,4.3615,4.3615,4.3615,0.0,0.0,0.0,0.0,0.0,0.0,0.0,0.0,0.0,0.0,0.0,4.2779,4.2434,4.2358,4.2439,4.2519,4.26,4.2362,4.1939,4.1636,4.1499,4.148,4.1559,4.1055,4.0821,4.1424,4.1424,4.1656,4.2524,4.306,4.3386,4.3539,4.3615,4.3615,4.3615,4.3615,4.3615,4.3615,4.3615,4.3615,4.3615,4.3615,4.3615,4.3615,4.3615,4.3615,4.3615,4.3615,4.3615,4.3615,4.3615,4.3615,4.3615,4.3615,4.3615,4.3615,4.3615,4.3615,4.3615,4.3615,4.3856,4.4592,4.5348,4.6183,2.8886,0.0,2.8886,2.8886,0.0,2.8886,2.8886,2.8964,2.9819,3.0608,3.1395,3.1363,3.184,3.2621,3.3002,3.3458,3.3837,3.3837,3.3837,3.3837,3.3837,3.4042,3.4385,3.459,3.4864,3.5241,3.5618,3.5789,3.5806,3.5994,3.6097,3.6097,3.6097,3.6178,3.642,3.6178,3.6483,3.7365,3.7605,3.8542,4.0137,4.0568,4.1521,4.2907,4.3386,0.0,0.0,0.0,0.0,0.0,0.0,0.0,0.0,0.0,0.0,4.3615,4.3615,4.3615,4.3615,4.3615,4.3615,4.3615,4.3233,4.26,4.181,4.1733,4.1965,4.237,4.237,4.237,4.235,4.235,4.235,4.2273,4.1985,4.1907,4.2196,4.1578,4.1501,4.2139,4.1985,4.2062,4.2907,4.2984,4.3213,4.3539,4.3615,4.3615,4.3615,4.3615,4.3615,4.3615,4.3615,4.3615,4.3615,4.3615,4.3615,4.3615,4.3615,4.3615,4.3615,4.3615,4.3615,4.3615,4.3615,4.3615,4.3615,4.3615,4.3615,4.3615,4.3615,4.3691,4.4201,4.4805,4.548,2.8886,2.8886,2.8886,2.8886,2.8886,2.8886,2.8886,2.8886,0.0,0.0,0.0,3.1763,3.2452,3.3382,3.3382,3.3534,3.3761,3.3837,3.3837,3.3837,3.3837,3.4076,3.4505,3.4813,3.5189,3.5618,3.5943,3.6097,3.6097,3.6097,3.6097,3.6097,3.6097,3.6097,3.6097,3.6097,3.6258,3.6581,3.7045,3.8145,3.9883,4.0275,4.1288,4.2984,4.3365,4.3615,4.3615,4.3615,4.3615,4.3615,4.3615,4.3615,4.3615,4.3615,4.3615,4.3615,4.3615,4.3615,4.3615,4.3615,4.3539,4.3386,4.3365,4.2907,4.1578,4.1578,4.1733,4.237,4.237,4.26,4.2927,4.2907,4.2907,4.2754,4.283,4.2907,4.2984,4.2139,4.1733,4.2293,4.1366,4.0841,4.2216,4.2293,4.2447,4.3213,4.331,4.3462,4.3539,4.3615,4.3615,4.3615,4.3615,4.3615,4.3615,4.3615,4.3615,4.3615,4.3615,4.3615,4.3615,4.3615,4.3615,4.3615,4.3615,4.3615,4.3615,4.3615,4.3615,4.3615,4.3615,4.3615,4.3691,4.4146,4.4654,2.8886,2.8886,2.8886,2.8886,2.8886,2.8886,2.8886,2.8886,2.8886,2.9819,3.1302,2.9974,3.0284,3.1763,3.1779,3.2468,3.3761,3.3837,3.3837,3.3837,3.3837,3.4213,3.4881,3.495,3.5344,3.5977,3.6063,3.6097,3.6097,3.6097,3.6097,3.6097,3.6097,3.6097,3.6097,3.6097,3.6097,3.6178,3.6581,3.7125,3.7827,3.9569,4.0588,4.0977,4.2677,4.3615,4.3615,4.3615,4.3615,4.3615,4.3615,4.3615,4.3615,4.3615,4.3615,4.3615,4.3615,4.3615,4.3615,4.3615,4.331,4.2677,4.26,4.2754,4.3213,4.3213,4.2984,4.2447,4.237,4.183,4.0685,4.0529,4.0353,3.9666,4.004,4.0666,4.1501,4.1888,4.237,4.306,4.2621,4.1907,4.2062,4.1733,4.1656,4.237,4.2677,4.283,4.3462,4.3615,4.3615,4.3615,4.3615,4.3615,4.3615,4.3615,4.3615,4.3615,4.3615,4.3615,4.3615,4.3615,4.3635,4.3615,4.3656,4.3656,4.3677,4.3615,4.3698,4.3718,4.3739,4.3698,4.3718,4.385,4.4037,2.8886,2.8886,2.8886,2.8886,2.8886,2.8886,2.9119,2.9508,2.9042,2.9586,3.0608,3.0361,3.0917,3.2069,3.2528,3.3078,3.3837,3.3837,3.3837,3.3854,3.4042,3.4436,3.4967,3.5172,3.5549,3.608,3.6097,3.6097,3.6097,3.6097,3.6097,3.6097,3.6097,3.6097,3.6097,3.6097,3.6097,3.6097,3.6241,3.7045,3.8383,3.9333,4.0353,4.1521,4.2447,4.2984,4.2907,4.3157,4.331,4.331,4.3462,4.3615,4.3615,4.3615,4.3615,4.3615,4.3615,4.3615,4.3615,4.3008,4.2236,4.1473,4.1396,4.1549,4.1855,4.2152,4.2042,4.1733,4.1656,4.1424,4.0666,4.0588,4.0353,4.004,4.0353,4.0666,4.0958,4.0977,4.121,4.1443,4.0821,4.0509,4.0977,4.1035,4.1424,4.2216,4.237,4.2677,4.3462,4.3233,4.3157,4.3539,4.3615,4.3615,4.3615,4.3615,4.3615,4.3615,4.3615,4.3615,4.3615,4.3615,4.3739,4.3925,4.3987,4.4091,4.4277,4.436,4.436,4.436,4.436,4.436,4.436,4.436,4.4503,2.8886,2.8886,2.8886,2.8886,2.8886,2.8886,2.9275,2.9741,2.9197,2.9275,2.9897,3.0531,3.1302,3.2053,3.2681,3.3154,3.3534,3.3534,3.3609,3.3795,3.4213,3.459,3.4984,3.5326,3.5703,3.6063,3.6097,3.6097,3.6097,3.6097,3.6097,3.6097,3.6097,3.6097,3.6097,3.6097,3.6097,3.6097,3.6097,3.6867,3.8463,3.8761,3.9864,4.1501,4.1985,4.2216,4.237,4.2697,4.2851,4.2851,4.3233,4.3462,4.3462,4.3539,4.3615,4.3615,4.3615,4.3615,4.3594,4.2753,4.1867,4.1085,4.0855,4.0778,4.0644,4.0608,4.0783,4.1016,4.1346,4.1268,4.088,4.0958,4.0958,4.0646,4.0724,4.0724,4.0724,4.0431,4.0137,4.0059,3.943,3.9272,3.9823,4.0275,4.0802,4.1521,4.2219,4.2839,4.33,4.3131,4.329,4.3674,4.3842,4.3801,4.378,4.3905,4.3967,4.3925,4.3967,4.4008,4.3987,4.3946,4.4029,4.4381,4.4463,4.4567,4.4898,4.496,4.494,4.4898,4.4877,4.494,4.4919,4.4919,4.493,2.8886,2.8886,2.8886,2.8886,2.8886,2.8886,2.8964,2.9042,2.8964,2.8978,2.9042,2.9134,2.9586,3.0284,3.0516,3.144,3.2681,3.2757,3.3137,3.3829,3.4213,3.459,3.5001,3.5344,3.5703,3.6063,3.6097,3.6097,3.6097,3.6097,3.6097,3.6097,3.6097,3.6097,3.6097,3.6097,3.6097,3.6097,3.6097,3.6178,3.6402,3.749,3.8524,3.9471,4.0646,4.1578,4.2216,4.2447,4.2447,4.2524,4.2774,4.3004,4.3081,4.3386,4.3615,4.3539,4.3539,4.3615,4.3539,4.3497,4.3055,4.279,4.1788,4.1228,4.0919,3.9983,3.9864,4.0802,4.1753,4.1366,4.0294,4.0588,4.0412,3.9254,3.9588,3.9981,4.0059,4.0568,4.0958,4.0958,4.004,3.9842,3.9783,3.9505,3.9407,4.0585,4.1935,4.2895,4.3072,4.3803,4.4243,4.4556,4.4448,4.4277,4.4277,4.4608,4.4691,4.4774,4.4836,4.4753,4.4712,4.4733,4.4898,4.4857,4.494,4.4981,4.5043,4.5002,4.5064,4.5188,4.5147,4.5043,4.5002,4.5084,4.508,2.8886,2.8886,2.8886,2.8886,2.8886,2.8886,2.8886,2.8886,2.8886,2.8886,2.8886,2.8886,2.9353,3.0129,3.1132,3.1977,3.2604,3.3061,3.3576,3.4179,3.4556,3.4933,3.5292,3.5669,3.5943,3.608,3.6097,3.6097,3.6097,3.6097,3.6097,3.6097,3.6097,3.6097,3.6097,3.6097,3.6097,3.6097,3.6097,3.6097,3.6258,3.7125,3.8066,3.8761,3.9393,3.9786,4.0178,4.0646,4.0802,4.0568,4.1133,4.1443,4.121,4.1346,4.1656,4.2042,4.2119,4.2042,4.1753,4.0879,4.0047,3.9349,3.9271,3.9037,3.8978,3.8887,3.9096,3.9569,3.9962,3.9805,3.9272,3.9411,3.9333,3.8798,3.8956,3.9133,3.9114,3.9411,3.9647,3.9569,3.9333,3.9226,3.9528,3.9831,4.0363,4.118,4.2229,4.2625,4.2724,4.3121,4.336,4.3479,4.3897,4.441,4.4638,4.4836,4.5002,4.5002,4.5002,4.5002,4.5043,4.5002,4.5064,4.5333,4.5395,4.5519,4.5788,4.5788,4.5788,4.5747,4.5788,4.5788,4.5788,4.5788,4.5788,2.8886,2.8886,2.8886,2.8886,2.89,2.8988,2.9032,2.9047,2.912,2.9149,2.9149,2.9164,2.9464,3.0169,3.1492,3.2046,3.2216,3.3006,3.3667,3.4186,3.462,3.5021,3.5532,3.5909,3.6097,3.6097,3.6097,3.6097,3.6097,3.6097,3.6097,3.6097,3.6097,3.6097,3.6097,3.6097,3.6097,3.6097,3.6097,3.6097,3.6178,3.6724,3.7428,3.8225,3.8286,3.8365,3.8603,3.9235,3.9393,3.9077,3.9726,4.0021,3.9707,3.9864,4.0178,4.088,4.1035,4.0958,4.0646,3.9736,3.8806,3.7964,3.8121,3.8121,3.7862,3.8079,3.8225,3.8322,3.8333,3.8468,3.8402,3.8719,3.8835,3.8688,3.8645,3.8762,3.897,3.897,3.9086,3.897,3.9123,3.9061,3.9436,4.0098,4.0815,4.1318,4.1937,4.2195,4.2295,4.2534,4.2874,4.3016,4.3918,4.4462,4.4796,4.5195,4.5254,4.5374,4.5436,4.5457,4.5374,4.5374,4.5395,4.583,4.585,4.5912,4.6078,4.6163,4.6225,4.6246,4.6246,4.6306,4.6142,4.6225,4.6225,2.8886,2.89,2.89,2.893,2.893,2.9222,2.9354,2.9369,2.9661,2.9873,2.9859,2.9778,2.9888,2.9924,3.0691,3.079,3.0899,3.2016,3.2965,3.3694,3.4104,3.4685,3.5452,3.5909,3.6097,3.6097,3.6097,3.6097,3.6097,3.6097,3.6097,3.6097,3.6097,3.6097,3.6097,3.6114,3.6097,3.6131,3.6166,3.6131,3.6131,3.6212,3.6696,3.7436,3.7445,3.7747,3.8444,3.8603,3.8603,3.8603,3.8998,3.9156,3.9235,3.955,3.9943,4.0431,4.0802,4.1016,4.1035,4.1307,4.1132,4.0296,3.9767,3.9707,3.8383,3.7899,3.7712,3.7561,3.7899,3.8034,3.8148,3.9025,3.9374,3.8751,3.8967,3.9292,3.9703,3.9585,3.9777,3.974,3.9722,3.974,3.9813,3.9913,4.0169,4.0488,4.1185,4.1802,4.1941,4.2785,4.3578,4.4191,4.4538,4.4804,4.4543,4.5328,4.6018,4.6018,4.5995,4.608,4.6184,4.6225,4.6204,4.6184,4.6223,4.6223,4.6225,4.6266,4.6246,4.6266,4.6266,4.6266,4.6266,4.6266,4.6266,2.9515,2.9515,2.9515,2.9515,2.9529,2.9647,2.969,2.969,2.9807,2.9947,2.9947,2.9947,2.9947,2.9947,3.0922,3.1167,3.0984,3.1872,3.2921,3.3865,3.4173,3.4755,3.5811,3.6029,3.6097,3.6097,3.6097,3.6097,3.6097,3.6097,3.6097,3.6097,3.6097,3.6097,3.6131,3.632,3.644,3.6457,3.6662,3.6816,3.6782,3.6816,3.6964,3.7275,3.6806,3.6724,3.6947,3.7268,3.7268,3.7028,3.7348,3.7525,3.7348,3.7906,3.8444,3.884,3.8761,3.884,3.898,3.8603,3.8225,3.7845,3.814,3.8365,3.7935,3.7951,3.8093,3.8128,3.8199,3.8234,3.8163,3.8843,3.9303,3.9105,3.906,3.9114,3.914,3.9277,3.9441,3.9559,3.9887,4.0235,4.0235,4.0538,4.0704,4.0787,4.1582,4.1786,4.1592,4.2224,4.2882,4.2799,4.3443,4.3899,4.3123,4.4966,4.6246,4.6246,4.6225,4.6204,4.6266,4.6266,4.6225,4.6225,4.6246,4.6266,4.6266,4.6266,4.6266,4.6266,4.6266,4.6266,4.6266,4.6266,4.6266,2.9947,2.9947,2.9947,2.9947,2.9881,2.9983,3.0093,3.0108,3.0129,3.0173,3.0173,3.0173,3.0173,3.0284,3.1048,3.1293,3.1082,3.1861,3.2873,3.3888,3.3984,3.4697,3.5901,3.6097,3.6097,3.6097,3.6097,3.6097,3.6097,3.6097,3.6166,3.6268,3.6268,3.6337,3.6474,3.6696,3.6816,3.6868,3.7073,3.721,3.721,3.721,3.721,3.7142,3.6713,3.6457,3.6457,3.6701,3.6701,3.6538,3.6701,3.6701,3.6538,3.7189,3.7657,3.7882,3.7899,3.7899,3.8105,3.7559,3.7171,3.6945,3.7643,3.7965,3.7819,3.8047,3.8253,3.8288,3.8246,3.8132,3.825,3.8754,3.9122,3.9015,3.9062,3.9199,3.914,3.9425,3.962,3.9695,3.9979,4.0235,4.029,4.0492,4.0584,4.0675,4.1351,4.1444,4.1128,4.1491,4.1984,4.1649,4.255,4.3131,4.3156,4.4412,4.5434,4.5596,4.584,4.5921,4.6266,4.6266,4.6266,4.6266,4.6266,4.6266,4.6266,4.6266,4.6266,4.6266,4.6266,4.6266,4.6266,4.6266,4.6266,2.9976,2.991,2.9881,2.9939,2.9998,3.0232,3.0431,3.0393,3.0642,3.0715,3.07,3.0759,3.0715,3.0773,3.0827,3.0871,3.0993,3.161,3.253,3.3479,3.3576,3.4474,3.6016,3.6097,3.6097,3.6097,3.6097,3.6114,3.6148,3.6166,3.6303,3.6577,3.6628,3.6782,3.7176,3.7176,3.721,3.7227,3.7296,3.7296,3.7227,3.7313,3.733,3.7296,3.7227,3.7227,3.721,3.7176,3.7107,3.7142,3.7142,3.7193,3.719,3.7539,3.784,3.787,3.8153,3.84,3.8465,3.8904,3.8705,3.8312,3.9058,3.8912,3.8371,3.811,3.8014,3.7983,3.7888,3.7977,3.8365,3.8624,3.8778,3.8586,3.8799,3.9276,3.9862,4.0313,4.0373,4.0271,4.0125,3.9968,3.995,4.0015,4.0125,4.0318,4.0584,4.0787,4.0777,4.1063,4.1528,4.1984,4.2402,4.2652,4.3214,4.3793,4.4268,4.476,4.5087,4.5332,4.6084,4.6266,4.6266,4.6266,4.6266,4.6266,4.6266,4.6266,4.6266,4.6266,4.6266,4.6266,4.6266,4.6266,4.6266,3.0525,3.0525,3.0525,3.0525,3.0539,3.0627,3.0671,3.0685,3.0788,3.0817,3.0817,3.0817,3.0817,3.0817,3.0817,3.0817,3.0817,3.115,3.2046,3.3281,3.3526,3.4441,3.5855,3.6097,3.6097,3.6097,3.6097,3.6234,3.6422,3.6457,3.6645,3.697,3.7022,3.709,3.7244,3.745,3.7587,3.7621,3.7861,3.7981,3.7981,3.7964,3.7964,3.7981,3.7981,3.7981,3.7964,3.7484,3.7227,3.7227,3.721,3.721,3.721,3.7293,3.7376,3.746,3.7543,3.7626,3.7626,3.7874,3.7975,3.7761,3.8101,3.8223,3.8125,3.8147,3.8099,3.8099,3.7945,3.7927,3.791,3.7873,3.7975,3.8432,3.8618,3.8614,3.8812,3.9277,3.9685,3.9988,4.0005,4.0042,4.018,4.0235,4.029,4.051,4.0814,4.0822,4.0877,4.0932,4.1126,4.1481,4.19,4.2151,4.2299,4.2716,4.3297,4.3939,4.4432,4.5169,4.5921,4.6266,4.6266,4.6266,4.6266,4.6266,4.6266,4.6266,4.6266,4.6266,4.6266,4.6266,4.6266,4.6266,4.6266,3.0817,3.0817,3.0817,3.0817,3.0817,3.0817,3.0817,3.0817,3.0817,3.0817,3.0817,3.0817,3.0817,3.0817,3.0817,3.0817,3.0817,3.0817,3.1798,3.3281,3.3526,3.4441,3.5935,3.6097,3.6183,3.6268,3.6285,3.6474,3.6816,3.685,3.7039,3.7364,3.7416,3.7501,3.7621,3.7844,3.7964,3.8015,3.8186,3.8323,3.8323,3.8323,3.8323,3.8323,3.8323,3.8323,3.8289,3.7861,3.7621,3.7621,3.7621,3.7621,3.7621,3.7638,3.7621,3.7621,3.7621,3.7638,3.7621,3.7757,3.7621,3.7672,3.7844,3.7895,3.7844,3.8015,3.8066,3.7895,3.769,3.7553,3.7518,3.7364,3.7445,3.773,3.7885,3.7952,3.7992,3.8701,3.9295,3.9623,3.9768,3.9978,4.0143,4.0253,4.0327,4.0667,4.0832,4.084,4.0877,4.1053,4.1108,4.1145,4.1481,4.1481,4.1229,4.1649,4.2318,4.3048,4.3856,4.4944,4.5942,4.6185,4.6266,4.6266,4.6266,4.6266,4.6266,4.6266,4.6266,4.6266,4.6266,4.6266,4.6266,4.6266,4.6266,3.0817,3.0817,3.0817,3.0817,3.0817,3.0817,3.0817,3.0817,3.0817,3.0817,3.0817,3.0817,3.0817,3.0817,3.0817,3.0817,3.0817,3.0817,3.1647,3.2968,3.341,3.4278,3.5778,3.594,3.6191,3.6628,3.6662,3.6868,3.7227,3.7244,3.7416,3.7758,3.7809,3.7946,3.8169,3.8306,3.8272,3.8272,3.8306,3.8323,3.8323,3.8323,3.8323,3.8323,3.8323,3.8323,3.8306,3.8238,3.8255,3.8306,3.822,3.8203,3.8289,3.8323,3.8255,3.822,3.8306,3.8255,3.8289,3.8118,3.8135,3.8118,3.8066,3.8135,3.7758,3.7758,3.7741,3.7467,3.7381,3.7313,3.7313,3.7227,3.709,3.6799,3.7204,3.7474,3.794,3.8683,3.9112,3.9277,3.9604,3.9868,3.996,3.9997,4.0097,4.0244,4.052,4.062,4.0694,4.0895,4.1024,4.1145,4.1313,4.1229,4.1145,4.1229,4.1816,4.2652,4.338,4.437,4.5596,4.6003,4.6266,4.6266,4.6266,4.6266,4.6266,4.6266,4.6266,4.6266,4.6266,4.6266,4.6266,4.6266,4.6266,3.0817,3.0817,3.0817,3.0817,3.0817,3.0817,3.0817,3.0817,3.0817,3.0817,3.0817,3.0817,3.0817,3.0817,3.0832,3.0817,3.0846,3.0846,3.1316,3.2339,3.2736,3.3826,3.5163,3.5591,3.6104,3.6922,3.7056,3.7244,3.7587,3.7621,3.7809,3.8169,3.8152,3.8203,3.8323,3.8323,3.8323,3.8323,3.8323,3.8323,3.8323,3.8323,3.8323,3.8323,3.8323,3.8323,3.8323,3.8323,3.8323,3.8323,3.8323,3.8323,3.8323,3.8306,3.8306,3.8323,3.8306,3.8323,3.8272,3.8083,3.7946,3.7878,3.7792,3.7467,3.7381,3.7621,3.769,3.7621,3.7621,3.7587,3.757,3.7364,3.7159,3.7056,3.7235,3.7548,3.8135,3.8518,3.8783,3.9112,3.9295,3.9622,3.9886,4.0143,4.04,4.0704,4.0851,4.0859,4.0877,4.0914,4.106,4.106,4.1145,4.1145,4.1145,4.1145,4.1481,4.2235,4.2882,4.3546,4.4862,4.584,4.6084,4.6266,4.6266,4.6266,4.6266,4.6266,4.6266,4.6266,4.6266,4.6266,4.6266,4.6266,4.6266,3.0817,3.0817,3.0817,3.0817,3.0817,3.0817,3.0817,3.0817,3.0817,3.0817,3.0817,3.0817,3.0817,3.0832,3.0964,3.1022,3.1037,3.1168,3.1732,3.2503,3.3022,3.4008,3.5277,3.5875,3.6575,3.7315,3.745,3.7655,3.7946,3.7998,3.8135,3.8272,3.8323,3.8323,3.8323,3.8323,3.8323,3.8323,3.8323,3.8323,3.8323,3.8323,3.8323,3.8289,3.8203,3.8083,3.8101,3.8238,3.8323,3.8323,3.8323,3.8323,3.8306,3.8169,3.8169,3.8289,3.8186,3.8135,3.8272,3.8101,3.8015,3.7981,3.7775,3.7621,3.7535,3.7655,3.7825,3.7535,3.7535,3.7535,3.7501,3.733,3.7313,3.7381,3.7494,3.7639,3.7957,3.8263,3.86,3.8903,3.936,3.9772,4.0006,4.0461,4.0822,4.1053,4.1071,4.1024,4.1042,4.106,4.106,4.106,4.106,4.106,4.106,4.106,4.12,4.1873,4.2812,4.3355,4.4324,4.5535,4.6044,4.6226,4.6287,4.6308,4.6451,4.6451,4.6266,4.6266,4.6266,4.6308,4.6328,4.6533,4.6513,3.0817,3.0817,3.0817,3.0846,3.0876,3.0876,3.0949,3.0949,3.0993,3.0978,3.0978,3.0949,3.1022,3.0934,3.1256,3.1359,3.1373,3.1578,3.2253,3.2965,3.3708,3.4657,3.5769,3.6359,3.7064,3.7691,3.7827,3.7998,3.8203,3.8289,3.8306,3.8323,3.8323,3.8323,3.8323,3.8323,3.8323,3.8323,3.8323,3.8323,3.8323,3.8323,3.8323,3.8289,3.8083,3.7946,3.7998,3.8152,3.8323,3.8323,3.8323,3.8323,3.8289,3.7998,3.8015,3.822,3.8101,3.8049,3.8238,3.8238,3.822,3.8152,3.8135,3.8083,3.7724,3.7672,3.7655,3.7433,3.7313,3.7467,3.7484,3.7381,3.7535,3.7758,3.7877,3.7638,3.7568,3.8041,3.8519,3.8604,3.9596,4.018,4.0469,4.0723,4.1145,4.1108,4.106,4.106,4.106,4.106,4.106,4.106,4.106,4.106,4.106,4.106,4.1218,4.1526,4.2675,4.3529,4.4229,4.5203,4.5882,4.6167,4.6229,4.6455,4.674,4.6658,4.6575,4.6637,4.6844,4.672,4.6575,4.6803,4.6865,3.0817,3.0817,3.0817,3.0978,3.1183,3.1212,3.1344,3.1563,3.1578,3.1534,3.1578,3.1578,3.1563,3.1563,3.1637,3.1695,3.1695,3.1812,3.2259,3.3116,3.4338,3.5269,3.595,3.6162,3.6927,3.7862,3.8203,3.8255,3.8323,3.8323,3.8323,3.8323,3.8323,3.8323,3.8323,3.8323,3.8323,3.8323,3.8323,3.8323,3.8323,3.8323,3.8306,3.8289,3.822,3.8203,3.8203,3.8289,3.8323,3.8323,3.8323,3.8323,3.8306,3.822,3.8203,3.8255,3.8255,3.822,3.8272,3.8101,3.7895,3.7946,3.7775,3.7416,3.7381,3.7655,3.7724,3.7707,3.7895,3.7998,3.7998,3.8066,3.8066,3.8118,3.8152,3.8135,3.8118,3.822,3.851,3.8903,3.9448,3.9858,3.9961,4.0639,4.0976,4.106,4.106,4.106,4.106,4.106,4.106,4.106,4.106,4.1097,4.1244,4.1383,4.1615,4.1822,4.2772,4.34,4.4168,4.502,4.571,4.6019,4.6161,4.6472,4.6948,4.7237,4.7217,4.7299,4.732,4.7217,4.7154,4.7237,4.7196,3.1285,3.1285,3.1271,3.1388,3.152,3.1534,3.1637,3.1783,3.1798,3.1798,3.1798,3.1798,3.1798,3.1812,3.1944,3.2017,3.2076,3.2193,3.2514,3.3011,3.3899,3.4688,3.5391,3.5918,3.6867,3.8135,3.8323,3.8323,3.8323,3.8323,3.8323,3.8323,3.8323,3.8323,3.8323,3.8323,3.8323,3.8323,3.8323,3.8323,3.8323,3.8323,3.8203,3.8152,3.8203,3.8272,3.8066,3.8238,3.8306,3.8323,3.8323,3.8323,3.8272,3.8169,3.8152,3.8289,3.8135,3.8186,3.8186,3.8169,3.8049,3.8015,3.7827,3.7775,3.7758,3.7929,3.7998,3.8066,3.8186,3.8323,3.8323,3.8306,3.8323,3.8323,3.8323,3.8323,3.8323,3.8323,3.8323,3.8768,3.9263,3.9604,3.9961,4.0554,4.0892,4.106,4.106,4.106,4.106,4.106,4.106,4.106,4.106,4.1152,4.139,4.1744,4.2155,4.2486,4.3121,4.3481,4.3813,4.4759,4.5683,4.5956,4.6209,4.6735,4.7174,4.7505,4.7755,4.761,4.7568,4.7651,4.7672,4.7589,4.7506,3.1798,3.1798,3.1798,3.1827,3.1871,3.1871,3.1915,3.1973,3.1944,3.2032,3.1959,3.1944,3.2046,3.2032,3.2237,3.2354,3.2427,3.2661,3.2793,3.3058,3.3586,3.4128,3.4772,3.5874,3.6896,3.798,3.8237,3.8323,3.8323,3.8323,3.8323,3.8323,3.8323,3.8323,3.8323,3.8323,3.8323,3.8323,3.8323,3.8323,3.8323,3.8323,3.8186,3.8066,3.8169,3.8203,3.8066,3.8186,3.8323,3.8323,3.8323,3.8323,3.8255,3.8083,3.7964,3.8306,3.8083,3.8101,3.8272,3.8306,3.8289,3.8323,3.8306,3.8289,3.8289,3.8255,3.8255,3.8272,3.8323,3.8323,3.8323,3.8323,3.8323,3.8323,3.8323,3.8323,3.8323,3.8323,3.8323,3.8409,3.9093,3.9621,3.9876,4.0216,4.0639,4.0976,4.0994,4.1115,4.1134,4.1189,4.1262,4.1427,4.1519,4.1555,4.1757,4.1867,4.2365,4.2809,4.3383,4.3631,4.3755,4.4549,4.5488,4.6021,4.6385,4.7017,4.7604,4.8085,4.8127,4.79,4.7962,4.821,4.8127,4.7941,4.7879,3.1798,3.1798,3.1798,3.1959,3.2193,3.2207,3.2339,3.2588,3.2559,3.2602,3.2573,3.2588,3.2559,3.2602,3.2632,3.2676,3.2676,3.2749,3.2955,3.3308,3.3734,3.4174,3.4787,3.5819,3.6757,3.7275,3.7808,3.8237,3.8323,3.8323,3.8323,3.8323,3.8323,3.8323,3.8323,3.8323,3.8323,3.8323,3.8323,3.8323,3.8323,3.8323,3.8306,3.8169,3.8289,3.8272,3.8238,3.8272,3.8323,3.8323,3.8323,3.8323,3.8306,3.8238,3.8255,3.8272,3.8238,3.822,3.8306,3.8323,3.8323,3.8323,3.8323,3.8323,3.8323,3.8323,3.8323,3.8323,3.8323,3.8323,3.8323,3.8323,3.8323,3.8323,3.8323,3.8323,3.8323,3.8323,3.8357,3.8495,3.906,3.9621,3.9724,4.0033,4.0529,4.0838,4.0893,4.1275,4.1574,4.1629,4.1721,4.1904,4.2106,4.2124,4.2179,4.2252,4.2486,4.2849,4.3328,4.3809,4.4078,4.4568,4.525,4.6154,4.7012,4.7687,4.8175,4.8581,4.8645,4.85,4.8645,4.879,4.8624,4.8459,4.8417,3.2295,3.2295,3.2295,3.2398,3.2515,3.2544,3.2632,3.2749,3.2763,3.2763,3.2763,3.2763,3.2763,3.2763,3.2763,3.2763,3.2763,3.2763,3.294,3.3205,3.3397,3.3734,3.4261,3.5383,3.608,3.667,3.7447,3.8066,3.8237,3.8323,3.8323,3.8323,3.8323,3.8323,3.8323,3.8323,3.8323,3.8323,3.8323,3.8323,3.8323,3.8323,3.8323,3.8323,3.8323,3.8323,3.8323,3.8323,3.8323,3.8323,3.8323,3.8323,3.8323,3.8323,3.8323,3.8323,3.8323,3.8323,3.8323,3.8323,3.8323,3.8323,3.8323,3.8323,3.8323,3.8323,3.8323,3.8323,3.8323,3.8323,3.8323,3.8323,3.8323,3.8323,3.8323,3.8323,3.834,3.834,3.8443,3.8546,3.901,3.93,3.9248,3.9678,4.0332,4.0678,4.0786,4.1328,4.1873,4.1964,4.2019,4.2289,4.2491,4.2582,4.2619,4.2711,4.2729,4.2968,4.3486,4.3969,4.4643,4.5285,4.5968,4.6835,4.7581,4.8179,4.8589,4.8893,4.8997,4.9059,4.8997,4.8935,4.8997,4.8997,4.8873,3.2763,3.2763,3.2763,3.2763,3.2763,3.2763,3.2763,3.2763,3.2763,3.2763,3.2763,3.2763,3.2763,3.2763,3.2763,3.2763,3.2763,3.2763,3.2852,3.2852,3.2866,3.3132,3.3646,3.4437,3.547,3.641,3.7188,3.7808,3.8237,3.8323,3.8323,3.8323,3.8323,3.8323,3.8323,3.8323,3.8323,3.8323,3.8323,3.8323,3.8323,3.8323,3.8323,3.8323,3.8323,3.8323,3.8323,3.8323,3.8323,3.8323,3.8323,3.8323,3.8323,3.8323,3.8323,3.8323,3.8323,3.8323,3.8323,3.8323,3.8323,3.8323,3.8323,3.8323,3.8323,3.8323,3.8323,3.8323,3.8323,3.8323,3.8323,3.8323,3.8323,3.8323,3.8323,3.8357,3.846,3.8563,3.8717,3.8838,3.9063,3.9201,3.9305,3.9668,4.0294,4.0675,4.0869,4.1344,4.1873,4.2033,4.2211,4.2462,4.2733,4.2949,4.3059,4.3188,4.3188,4.3261,4.3867,4.4454,4.5178,4.6007,4.684,4.7581,4.7966,4.8544,4.8887,4.9059,4.9059,4.9059,4.9059,4.9059,4.9059,4.9059,4.8997,3.2763,3.2763,3.2763,3.2763,3.2763,3.2763,3.2763,3.2763,3.2763,3.2763,3.2763,3.2763,3.2763,3.2763,3.2763,3.2763,3.2763,3.2763,3.2763,3.2763,3.2852,3.3043,3.3558,3.4437,3.5296,3.6166,3.7102,3.7808,3.8066,3.8152,3.8237,3.8237,3.8152,3.8237,3.8237,3.8152,3.8323,3.8323,3.8323,3.8323,3.8323,3.8323,3.8323,3.8323,3.8323,3.8323,3.8323,3.8323,3.8323,3.8323,3.8323,3.8323,3.8323,3.8323,3.8323,3.8323,3.8323,3.8323,3.8323,3.8323,3.8323,3.8323,3.8323,3.8323,3.8323,3.8323,3.8323,3.8323,3.8323,3.8323,3.8323,3.8323,3.8323,3.8375,3.8409,3.8597,3.8734,3.8854,3.9008,3.9231,3.9389,3.9475,3.9561,3.9912,4.0281,4.0649,4.1052,4.1459,4.1884,4.2132,4.2293,4.2633,4.2901,4.3206,4.342,4.3586,4.3712,4.3659,4.437,4.5059,4.5939,4.6793,4.7661,4.8331,4.863,4.8716,4.8973,4.9059,4.9059,4.9059,4.9059,4.9059,4.9059,4.9059,4.9059,3.2763,3.2763,3.2763,3.2763,3.2763,3.2763,3.2763,3.2763,3.2763,3.2763,3.2763,3.2763,3.2763,3.2763,3.2763,3.2763,3.2763,3.2763,3.2763,3.2763,3.2852,3.3029,3.3573,3.4174,3.4962,3.5922,3.6513,3.7032,3.7464,3.7808,3.7808,3.7636,3.7636,3.7636,3.7894,3.7894,3.8066,3.8237,3.8323,3.8323,3.8323,3.8323,3.8323,3.8323,3.8323,3.8323,3.8323,3.8323,3.8323,3.8323,3.8323,3.8323,3.8323,3.8323,3.8323,3.8323,3.8323,3.8323,3.8323,3.8323,3.8323,3.8323,3.8323,3.8323,3.8323,3.8323,3.8323,3.8323,3.8323,3.8323,3.834,3.8323,3.8477,3.8563,3.8648,3.8905,3.9111,3.9196,3.9333,3.9573,3.9796,3.9847,3.9864,4.0008,4.0329,4.0701,4.1072,4.1479,4.196,4.2388,4.2549,4.2711,4.3122,4.3426,4.3675,4.3908,4.4263,4.4459,4.5216,4.5919,4.6793,4.7661,4.8265,4.8716,4.8887,4.8973,4.9059,4.9059,4.9059,4.9059,4.9059,4.9059,4.9059,4.9059,4.9059,3.2763,3.2763,3.2763,3.2763,3.2763,3.2763,3.2763,3.2763,3.2763,3.2763,3.2763,3.2763,3.2763,3.2763,3.2763,3.2763,3.2763,3.2763,3.2763,3.2763,3.2852,3.3117,3.347,3.3998,3.4612,3.5573,3.6009,3.6443,3.6789,3.7119,3.7119,3.7032,3.7119,3.7291,3.7533,3.7705,3.7894,3.8237,3.8323,3.8323,3.8323,3.8323,3.8323,3.8323,3.8323,3.8323,3.8323,3.8323,3.8323,3.8323,3.8323,3.8323,3.8323,3.8323,3.8323,3.8323,3.8323,3.8323,3.8323,3.8323,3.8323,3.8323,3.8323,3.8323,3.8323,3.8323,3.8323,3.8323,3.8323,3.8375,3.8443,3.8494,3.87,3.8905,3.9042,3.9299,3.9505,3.959,3.9744,4.0018,4.019,4.0275,4.0275,4.0224,4.0476,4.0835,4.1171,4.1454,4.1759,4.2209,4.2299,4.2299,4.2658,4.2945,4.3213,4.3641,4.4263,4.5059,4.5832,4.6619,4.7314,4.792,4.8523,4.8887,4.9059,4.9059,4.9059,4.9059,4.9059,4.9059,4.9059,4.9059,4.9059,4.9059,4.9059,3.2763,3.2763,3.2763,3.2763,3.2763,3.2763,3.2763,3.2763,3.2763,3.2763,3.2763,3.2763,3.2763,3.2763,3.2763,3.2763,3.2763,3.2763,3.2763,3.2763,3.2852,3.3043,3.3382,3.3734,3.4261,3.5312,3.5573,3.5922,3.6286,3.6443,3.6703,3.6946,3.6773,3.7119,3.7464,3.755,3.7808,3.8237,3.8323,3.8323,3.8323,3.8323,3.8323,3.8323,3.8323,3.8323,3.8323,3.8323,3.8323,3.8323,3.8323,3.8323,3.8323,3.8323,3.8323,3.8323,3.8323,3.8323,3.8323,3.8323,3.8323,3.8323,3.8323,3.8323,3.8323,3.834,3.834,3.8409,3.8494,3.8614,3.8768,3.8922,3.9059,3.9282,3.947,3.9659,3.9847,3.9967,4.0138,4.0429,4.0532,4.0515,4.0498,4.0429,4.0503,4.0846,4.0954,4.1218,4.1235,4.1579,4.1579,4.1669,4.1939,4.2209,4.2299,4.2927,4.3978,4.4864,4.5744,4.6619,4.7574,4.8093,4.8437,4.8887,4.9059,4.9059,4.9059,4.9059,4.9059,4.9059,4.9059,4.9059,4.9059,4.9059,4.9059,3.2763,3.2763,3.2763,3.2763,3.2763,3.2763,3.2763,3.2763,3.2763,3.2763,3.2763,3.2763,3.2763,3.2763,3.2763,3.2763,3.2763,3.2763,3.2763,3.2763,3.2852,3.2955,3.3117,3.347,3.3998,3.47,3.505,3.5399,3.5835,3.5922,3.5922,3.6096,3.6253,3.6443,3.6703,3.7378,3.7808,3.8152,3.8323,3.8323,3.8323,3.8323,3.8323,3.8323,3.8323,3.8323,3.8323,3.8323,3.8323,3.834,3.8357,3.8392,3.8409,3.8392,3.8392,3.8392,3.8409,3.8392,3.8375,3.8357,3.8323,3.8323,3.8323,3.834,3.8392,3.8529,3.8666,3.8751,3.8871,3.9042,3.9179,3.9265,3.9385,3.9676,3.9899,4.0036,4.0155,4.0258,4.0327,4.0532,4.0566,4.0566,4.0566,4.0566,4.0657,4.0748,4.0856,4.0856,4.0963,4.1054,4.1145,4.1218,4.1489,4.1759,4.1849,4.273,4.3782,4.4668,4.5656,4.6706,4.7661,4.7748,4.8093,4.863,4.9059,4.9059,4.9059,4.9059,4.9059,4.9059,4.9059,4.9059,4.9059,4.9059,4.9059,3.2763,3.2763,3.2763,3.2763,3.2763,3.2763,3.2763,3.2763,3.2763,3.2763,3.2763,3.2763,3.2763,3.2763,3.2763,3.2763,3.2763,3.2763,3.2763,3.2763,3.2763,3.2763,3.294,3.3132,3.3573,3.3998,3.4437,3.4962,3.5399,3.5486,3.5661,3.5661,3.5661,3.5922,3.6443,3.7119,3.7791,3.8066,3.8237,3.8323,3.8323,3.8323,3.8323,3.8323,3.8323,3.8443,3.8494,3.8563,3.8631,3.87,3.8734,3.87,3.8683,3.8666,3.8666,3.8666,3.8648,3.8648,3.8631,3.8426,3.8357,3.8323,3.8494,3.8512,3.8597,3.8854,3.9059,3.9094,3.9316,3.9505,3.9573,3.9642,3.9813,4.0087,4.0173,4.031,4.0395,4.0481,4.0498,4.0583,4.0583,4.0583,4.0583,4.0583,4.0583,4.0674,4.0674,4.0765,4.0765,4.0856,4.0946,4.1037,4.1218,4.1398,4.1579,4.2551,4.3515,4.4757,4.5725,4.6967,4.7748,4.7748,4.8093,4.8802,4.9059,4.9059,4.9059,4.9059,4.9059,4.9059,4.9059,4.9059,4.9059,4.9059,4.9059,3.2763,3.2763,3.2763,3.2763,3.2763,3.2763,3.2763,3.2763,3.2763,3.2763,3.2763,3.2763,3.2763,3.2763,3.2763,3.2763,3.2763,3.2763,3.2763,3.2763,3.2763,3.2763,3.2852,3.294,3.322,3.3558,3.4086,3.4612,3.4962,3.5399,3.5573,3.5573,3.5661,3.5835,3.6372,3.7119,3.7533,3.7722,3.8066,3.8237,3.8323,3.8323,3.8323,3.8426,3.8426,3.858,3.8837,3.8905,3.9008,3.9162,3.9231,3.9231,3.9248,3.9265,3.9282,3.9299,3.9333,3.9368,3.9368,3.8734,3.8512,3.8529,3.8785,3.8888,3.8974,3.9214,3.9453,3.947,3.959,3.9744,3.9881,4.0036,4.0241,4.0361,4.0429,4.0481,4.0549,4.0583,4.0583,4.0583,4.0583,4.0583,4.0583,4.0583,4.0583,4.0583,4.0583,4.0583,4.0583,4.0674,4.0765,4.0856,4.0946,4.0946,4.1291,4.2192,4.3248,4.458,4.5725,4.6773,4.7748,4.8179,4.8544,4.8973,4.9059,4.9059,4.9059,4.9059,4.9059,4.9059,4.9059,4.9059,4.9059,4.9059,4.9059,3.2763,3.2763,3.2763,3.2763,3.2763,3.2763,3.2763,3.2763,3.2763,3.2763,3.2763,3.2763,3.2763,3.2763,3.2763,3.2763,3.2763,3.2763,3.2763,3.2763,3.2763,3.2763,3.2763,3.2852,3.3029,3.347,3.3998,3.4437,3.4962,3.5399,3.5573,3.5573,3.5661,3.5835,3.6356,3.6946,3.7291,3.7636,3.8066,3.8323,3.8323,3.834,3.846,3.8683,3.87,3.8905,3.9248,3.9282,3.9385,3.9539,3.9573,3.9556,3.9539,3.9539,3.9522,3.9488,3.9488,3.947,3.9453,3.9179,3.9111,3.9145,3.9179,3.9282,3.9316,3.9642,3.9796,3.9899,4.0018,4.019,4.0378,4.0395,4.0498,4.0498,4.0549,4.0549,4.0583,4.0583,4.0583,4.0583,4.0583,4.0583,4.0583,4.0583,4.0583,4.0583,4.0583,4.0583,4.0583,4.0583,4.0674,4.0674,4.0674,4.0674,4.0929,4.1922,4.2819,4.396,4.5197,4.6337,4.7314,4.8179,4.8544,4.8716,4.8973,4.9059,4.9059,4.8973,4.9059,4.9059,4.9059,4.9059,4.9059,4.9059,4.9059,3.2763,3.2763,3.2763,3.2763,3.2763,3.2763,3.2763,3.2763,3.2763,3.2763,3.2763,3.2763,3.2763,3.2763,3.2763,3.2763,3.2763,3.2763,3.2763,3.2763,3.2763,3.2763,3.2763,3.2852,3.3117,3.347,3.3998,3.4437,3.4875,3.5399,3.5573,3.5573,3.5573,3.5748,3.6183,3.6616,3.7119,3.7464,3.7894,3.8323,3.8375,3.8477,3.8666,3.8871,3.9059,3.9282,3.9556,3.9676,3.9727,3.9779,3.983,3.983,3.983,3.983,3.9847,3.9847,3.9847,3.9864,3.9881,3.9881,3.9847,3.9864,3.9762,3.9676,3.9727,4.0018,4.0155,4.031,4.0481,4.0532,4.0566,4.0583,4.0583,4.0583,4.0583,4.0583,4.0583,4.0583,4.0583,4.0583,4.0583,4.0583,4.0583,4.0583,4.0583,4.0583,4.0583,4.0583,4.0583,4.0583,4.0583,4.0583,4.0583,4.0583,4.0946,4.1669,4.2551,4.3515,4.4845,4.6269,4.7074,4.8027,4.8199,4.8478,4.8499,4.8605,4.8716,4.8802,4.8929,4.9014,4.9059,4.9059,4.9059,4.9059,4.9059,3.2763,3.2763,3.2763,3.2763,3.2763,3.2763,3.2763,3.2763,3.2763,3.2763,3.2763,3.2763,3.2763,3.2763,3.2763,3.2763,3.2763,3.2763,3.2763,3.2763,3.2763,3.2763,3.2763,3.2852,3.3029,3.347,3.391,3.4261,3.4875,3.5399,3.5573,3.5573,3.5573,3.5661,3.5922,3.6443,3.686,3.7119,3.7722,3.8117,3.8305,3.8613,3.8922,3.9145,3.9368,3.9676,3.9916,4.0053,4.0207,4.0344,4.0498,4.0515,4.0532,4.0566,4.0566,4.0549,4.0498,4.0464,4.0429,4.0395,4.0429,4.0327,4.019,4.0104,4.0121,4.031,4.0412,4.0464,4.0549,4.0566,4.0583,4.0583,4.0583,4.0583,4.0583,4.0583,4.0583,4.0583,4.0583,4.0583,4.0583,4.0583,4.0583,4.0583,4.0583,4.0583,4.0583,4.0583,4.0583,4.0583,4.0583,4.0583,4.0583,4.0674,4.1127,4.2012,4.3069,4.4226,4.5285,4.6531,4.7248,4.7782,4.8056,4.8163,4.7929,4.8123,4.8846,4.8938,4.8839,4.8905,4.9183,4.9059,4.9059,4.9059,4.9059,3.2763,3.2763,3.2763,3.2763,3.2763,3.2763,3.2763,3.2763,3.2763,3.2763,3.2763,3.2763,3.2763,3.2763,3.2763,3.2763,3.2763,3.2763,3.2763,3.2763,3.2763,3.2763,3.2763,3.2852,3.294,3.3117,3.3558,3.3998,3.4525,3.5137,3.5573,3.5573,3.5573,3.5573,3.5835,3.6183,3.6356,3.6719,3.7394,3.7891,3.8336,3.8731,3.9109,3.9556,3.9762,4.007,4.0275,4.0378,4.0498,4.0532,4.0583,4.0583,4.0583,4.0583,4.0583,4.0583,4.0566,4.0566,4.0583,4.0583,4.0583,4.0583,4.0446,4.0446,4.0464,4.0498,4.0583,4.0583,4.0583,4.0583,4.0583,4.0583,4.0583,4.0583,4.0583,4.0583,4.0583,4.0583,4.0583,4.0583,4.0583,4.0583,4.0583,4.0583,4.0583,4.0583,4.0583,4.0674,4.0674,4.0674,4.0856,4.0856,4.0946,4.1037,4.1922,4.2819,4.3871,4.5021,4.5977,4.6756,4.738,4.7829,4.8036,4.8117,4.8001,4.8534,4.9284,4.9168,4.8775,4.9152,4.939,4.9204,4.9059,4.908,4.908,3.2763,3.2763,3.2763,3.2763,3.2763,3.2763,3.2763,3.2763,3.2763,3.2763,3.2763,3.2763,3.2763,3.2763,3.2763,3.2763,3.2763,3.2763,3.2763,3.2763,3.2763,3.2763,3.2763,3.2852,3.2955,3.3132,3.3382,3.391,3.4437,3.5137,3.5573,3.5573,3.5573,3.5573,3.5661,3.5835,3.6009,3.6421,3.6937,3.7641,3.8208,3.8741,3.9392,3.9861,4.0138,4.0378,4.0532,4.0566,4.0583,4.0583,4.0583,4.0583,4.0583,4.0583,4.0583,4.0583,4.0583,4.0583,4.0583,4.0583,4.0583,4.0583,4.0583,4.0566,4.0549,4.0566,4.0583,4.0583,4.0583,4.0583,4.0583,4.0583,4.0583,4.0583,4.0583,4.0583,4.0583,4.0583,4.0583,4.0583,4.0583,4.0583,4.0583,4.0583,4.0583,4.0583,4.0765,4.0946,4.0856,4.0856,4.1127,4.1308,4.1398,4.1561,4.2568,4.3536,4.452,4.5465,4.6249,4.6944,4.7551,4.7817,4.7859,4.7978,4.8166,4.8662,4.9118,4.8937,4.8763,4.9168,4.944,4.9147,4.9049,4.9162,4.9142,3.2763,3.2763,3.2763,3.2763,3.2763,3.2763,3.2763,3.2763,3.2763,3.2763,3.2763,3.2763,3.2763,3.2763,3.2763,3.2763,3.2763,3.2763,3.2763,3.2763,3.2763,3.2763,3.2763,3.2852,3.2955,3.3293,3.3558,3.3734,3.47,3.5312,3.5573,3.5573,3.5573,3.5573,3.5661,3.5661,3.5796,3.6027,3.6746,3.759,3.8196,3.8847,3.9514,4.0048,4.0344,4.0566,4.0583,4.0583,4.0583,4.0583,4.0583,4.0583,4.0583,4.0583,4.0583,4.0583,4.0583,4.0583,4.0583,4.0583,4.0583,4.0583,4.0583,4.0583,4.0583,4.0583,4.0583,4.0583,4.0583,4.0583,4.0583,4.0583,4.0583,4.0583,4.0583,4.0583,4.0583,4.0583,4.0583,4.0583,4.0583,4.0583,4.0674,4.0765,4.1127,4.0946,4.12,4.1561,4.1632,4.1559,4.174,4.2208,4.2352,4.2658,4.3593,4.4491,4.5159,4.5948,4.6667,4.7051,4.7524,4.7651,4.7727,4.8083,4.8421,4.8393,4.8643,4.8613,4.8891,4.9235,4.9386,4.908,4.901,4.9131,4.9183,3.2763,3.2763,3.2763,3.2763,3.2763,3.2763,3.2763,3.2763,3.2763,3.2763,3.2763,3.2763,3.2763,3.2763,3.2763,3.2763,3.2763,3.2763,3.2763,3.2763,3.2763,3.2763,3.2763,3.2852,3.2866,3.294,3.3117,3.3558,3.4437,3.5137,3.5573,3.5573,3.5589,3.5589,3.5637,3.5637,3.5732,3.6059,3.6539,3.7371,3.8108,3.8943,3.9582,4.0146,4.0583,4.0583,4.0583,4.0583,4.0583,4.0583,4.0583,4.0583,4.0583,4.0583,4.0583,4.0583,4.0583,4.0583,4.0583,4.0583,4.0583,4.0583,4.0583,4.0583,4.0583,4.0583,4.0583,4.0583,4.0583,4.0583,4.0583,4.0583,4.0583,4.0583,4.0583,4.0583,4.0583,4.0583,4.0583,4.0583,4.0583,4.0674,4.0765,4.1127,4.1489,4.2012,4.2551,4.2945,4.3126,4.318,4.3307,4.3595,4.3614,4.4011,4.4767,4.5418,4.6037,4.6549,4.7204,4.75,4.7617,4.7851,4.8105,4.8418,4.8777,4.8672,4.8697,4.8819,4.9102,4.9472,4.919,4.8868,4.881,4.8917,4.8979,3.2763,3.2763,3.2763,3.2763,3.2763,3.2763,3.2763,3.2763,3.2763,3.2763,3.2763,3.2763,3.2763,3.2763,3.2763,3.2763,3.2763,3.2763,3.2763,3.2763,3.2763,3.2763,3.2763,3.2763,3.2852,3.2852,3.3293,3.3822,3.4261,3.505,3.5573,3.5589,3.5589,3.5653,3.5748,3.5828,3.5987,3.632,3.6654,3.7263,3.8047,3.8811,3.9513,4.0112,4.0402,4.0493,4.0583,4.0583,4.0583,4.0583,4.0583,4.0583,4.0583,4.0583,4.0583,4.0583,4.0583,4.0583,4.0583,4.0583,4.0583,4.0583,4.0583,4.0583,4.0583,4.0583,4.0583,4.0583,4.0583,4.0583,4.0583,4.0583,4.0583,4.0583,4.0583,4.0583,4.0583,4.0583,4.0583,4.0583,4.0674,4.0946,4.1127,4.1489,4.2083,4.3054,4.363,4.4315,4.4517,4.4789,4.4879,4.5025,4.5085,4.5483,4.6242,4.6645,4.698,4.7495,4.7851,4.8027,4.8183,4.8359,4.8594,4.873,4.8901,4.8881,4.8928,4.8993,4.9195,4.95,4.9181,4.8713,4.8662,4.8803,4.8917,3.2763,3.2763,3.2763,3.2763,3.2763,3.2763,3.2763,3.2763,3.2763,3.2763,3.2763,3.2763,3.2763,3.2763,3.2763,3.2763,3.2763,3.2763,3.2763,3.2763,3.2763,3.2763,3.2763,3.2763,3.2763,3.3117,3.3646,3.391,3.4261,3.505,3.5589,3.5589,3.5685,3.5796,3.6034,3.6193,3.6336,3.6638,3.7014,3.7387,3.8035,3.867,3.935,3.9856,4.0328,4.0583,4.0583,4.0583,4.0583,4.0583,4.0583,4.0583,4.0583,4.0583,4.0583,4.0583,4.0583,4.0583,4.0583,4.0583,4.0583,4.0583,4.0583,4.0583,4.0583,4.0583,4.0583,4.0583,4.0583,4.0583,4.0583,4.0583,4.0583,4.0583,4.0583,4.0583,4.0583,4.0674,4.0691,4.0691,4.1106,4.1378,4.1847,4.2298,4.3036,4.4031,4.4739,4.5378,4.5981,4.6219,4.6438,4.6624,4.6667,4.7231,4.7605,4.7742,4.7846,4.8053,4.832,4.8535,4.8691,4.8691,4.8711,4.8789,4.894,4.894,4.894,4.8934,4.9177,4.9453,4.9143,4.8768,4.8942,4.898,4.8912,3.2763,3.2763,3.2763,3.2763,3.2763,3.2763,3.2763,3.2763,3.2763,3.2763,3.2763,3.2763,3.2763,3.2763,3.2763,3.2763,3.2763,3.2763,3.2763,3.2763,3.2763,3.2763,3.2763,3.2763,3.2763,3.3117,3.3646,3.4086,3.4349,3.5137,3.5589,3.5621,3.5907,3.6034,3.613,3.6352,3.667,3.6972,3.7115,3.7365,3.7863,3.8543,3.9291,3.9873,4.0328,4.0493,4.0583,4.0583,4.0583,4.0583,4.0583,4.0583,4.0583,4.0583,4.0583,4.0583,4.0583,4.0583,4.0583,4.0583,4.0583,4.0583,4.0583,4.0583,4.0583,4.0583,4.0583,4.0583,4.0583,4.0583,4.0583,4.0583,4.0583,4.0583,4.0583,4.0674,4.0765,4.089,4.1106,4.1591,4.2167,4.2782,4.3597,4.4158,4.505,4.5781,4.6362,4.6896,4.714,4.7457,4.7794,4.791,4.8027,4.8099,4.8183,4.8379,4.8555,4.8652,4.8691,4.875,4.8789,4.8828,4.8848,4.8848,4.8848,4.894,4.8848,4.8848,4.894,4.9105,4.9032,4.8928,4.9088,4.9312,4.9247]}]]